GFSSE_con_3kmhel_000.txt.gz
Helicity
-17 19 74 69 83 107 115 120 109 101 91 92 82 78 90 85 91 71 53 51 62 60 56 62 69 77 88 72 61 45 54 54 34 22 19 32 47 67 74 62 109 80 69
56 8 84 78 87 95 99 114 114 122 99 90 82 95 107 76 61 48 36 45 46 35 36 29 42 40 38 44 30 34 29 45 36 30 34 32 37 25 38 58 88 91 87
66 22 49 51 43 67 94 107 111 121 106 96 87 60 75 68 52 44 38 37 51 42 22 14 11 7 1 12 20 31 50 55 39 14 14 28 18 -14 16 56 53 67 69
53 6 12 36 27 67 91 77 93 101 85 72 57 39 41 41 42 31 20 21 24 37 23 11 6 11 8 8 12 4 17 30 20 1 3 13 4 -4 8 32 16 38 61
35 8 9 29 39 56 65 67 81 78 68 52 29 3 -30 13 35 42 34 26 46 45 33 11 3 -1 0 -3 -12 -18 -18 -12 11 1 2 5 -5 -8 9 16 19 13 35
35 18 30 56 52 67 62 64 75 65 50 41 21 -5 -30 -31 -9 48 43 55 64 40 14 9 0 -3 -11 -16 -16 -20 -26 -20 4 10 2 5 15 -22 -7 20 16 11 21
41 38 58 70 78 89 64 64 63 61 50 43 20 12 -4 -20 -10 22 27 54 54 23 4 4 0 -2 -5 -12 -18 -20 -19 -10 20 33 20 9 8 2 -19 -12 4 0 6
88 65 66 77 103 90 63 57 56 54 59 54 33 25 10 -1 -2 1 10 21 7 -10 -7 -10 -5 -6 -1 -3 -4 -6 -2 1 18 23 19 19 -6 -15 -26 -27 -27 -3 -3
112 116 95 91 77 74 61 49 50 47 59 63 59 45 34 18 -1 -6 5 1 -6 -6 -7 -6 -14 -16 -14 -14 -7 -4 8 9 28 43 37 47 0 -31 -25 -18 -17 -7 3
104 111 103 90 74 68 55 38 40 57 77 71 75 53 33 18 1 -6 5 -2 0 3 -5 -12 -14 -23 -25 -21 -17 -15 -8 1 39 63 81 82 15 -1 6 7 5 2 3
86 91 89 81 69 60 51 26 39 53 66 73 70 42 35 16 3 5 11 9 23 11 -4 -8 -8 -3 8 18 13 9 16 60 60 79 107 82 53 50 45 27 29 18 23
98 76 95 76 55 60 42 43 37 50 55 53 48 32 38 33 22 33 39 39 26 21 15 13 12 17 23 56 51 26 49 56 74 84 104 62 62 58 49 41 42 44 44
88 120 94 75 58 74 61 69 58 62 64 46 42 44 39 50 46 48 47 36 37 34 34 28 27 27 21 30 33 27 25 27 50 68 70 25 16 27 31 35 32 28 20
85 91 116 85 85 88 90 91 86 77 80 66 55 53 70 58 69 59 59 50 54 48 50 50 70 93 92 63 46 34 25 34 43 54 49 44 43 60 63 59 56 64 53
90 73 125 138 126 146 144 154 118 94 101 84 93 77 81 98 96 88 98 110 98 96 110 117 103 81 74 60 44 41 44 55 67 74 72 57 63 91 106 128 120 105 65
118 115 137 170 195 218 227 206 190 145 132 147 144 130 125 115 128 173 169 159 134 119 120 100 91 81 72 52 54 63 57 52 59 64 66 81 126 157 190 201 199 199 209
143 151 176 198 236 251 247 251 213 174 219 239 227 201 185 182 226 197 169 165 135 122 121 98 99 93 91 85 74 61 50 64 78 100 121 127 138 157 192 209 221 252 222
205 174 174 197 216 247 253 244 257 298 320 274 248 230 231 219 186 185 166 150 126 120 107 103 100 111 109 71 45 47 64 83 105 126 124 132 134 113 134 168 198 196 197
209 225 190 201 233 282 310 302 310 343 323 280 273 255 222 195 174 175 150 128 120 112 113 108 111 83 54 52 52 53 68 87 81 120 105 123 96 87 102 111 116 112 139
214 204 195 249 352 367 323 341 357 324 289 249 228 226 209 176 164 139 123 111 92 87 94 83 62 60 43 40 42 74 70 85 81 122 87 136 67 94 86 59 26 57 109
185 211 262 381 382 380 310 333 297 234 222 229 239 223 195 165 142 120 93 86 74 64 31 22 25 46 51 39 25 53 66 84 125 80 83 83 90 124 47 80 79 90 66
160 201 279 361 328 299 285 244 228 189 192 216 209 206 171 151 121 102 89 71 62 41 49 48 40 32 30 31 7 9 40 63 105 59 69 57 89 39 85 71 93 88 92
171 181 216 238 245 230 248 265 258 249 231 202 184 174 146 128 115 92 72 50 44 34 34 25 36 37 31 36 65 44 35 58 50 42 37 62 48 84 70 88 94 105 101
153 166 190 192 193 185 187 194 178 147 142 103 124 126 137 126 102 76 57 41 34 21 33 26 42 41 45 57 50 106 104 117 86 71 94 47 86 73 97 127 138 123 113
190 185 178 186 166 143 152 148 125 131 125 131 144 151 138 116 90 65 46 32 28 26 29 49 71 92 70 72 78 79 91 114 117 152 119 124 104 109 137 163 156 150 146
229 219 205 213 164 129 133 108 117 148 158 170 142 138 112 92 78 63 48 39 35 39 49 62 79 99 98 99 98 106 108 109 109 123 140 149 157 176 212 205 183 158 150

GFSSE_con_3kmhel_003.txt.gz
Helicity
-54 -44 19 45 75 90 93 95 73 83 68 56 61 103 111 123 127 72 62 54 81 36 35 6 38 47 43 41 58 39 45 54 32 4 6 16 34 45 62 39 24 56 21
31 -33 13 42 85 92 81 78 79 88 94 67 52 71 66 73 68 55 42 57 53 52 30 -0 8 14 15 25 28 27 28 22 24 39 20 25 20 18 18 -2 30 40 38
58 -9 14 20 85 85 93 85 80 87 88 78 65 47 47 41 47 17 20 34 38 41 26 18 15 12 14 13 19 22 17 27 36 25 26 28 21 4 2 8 34 14 20
56 24 22 49 52 60 81 73 74 74 76 74 53 28 23 7 20 13 4 -2 28 30 25 22 18 17 13 4 4 3 2 22 30 26 43 30 28 14 7 -8 19 10 9
50 32 15 28 32 59 77 66 64 62 59 53 32 -11 -29 2 -0 38 29 67 44 42 34 24 19 12 15 11 15 7 8 5 27 29 23 23 22 18 15 -0 15 16 19
45 33 22 28 34 72 65 57 59 59 52 36 17 -14 -29 -27 -18 12 9 65 58 43 26 17 16 11 10 4 -3 -3 4 5 19 27 24 17 22 6 8 -4 10 11 11
43 37 34 46 48 71 69 59 59 50 42 29 24 -0 -26 -38 -14 9 4 33 49 22 17 16 16 16 16 11 7 1 9 10 38 51 37 26 26 6 1 4 -0 -2 -5
67 58 55 62 59 80 67 61 54 48 33 32 29 16 -0 -33 -29 -6 17 29 7 -6 -12 -9 -9 -12 -14 -13 -8 -12 -9 6 26 40 44 47 15 -6 -8 -6 -2 -10 3
72 85 68 68 71 80 70 64 49 34 27 29 23 20 7 7 -15 -19 -2 6 -6 -9 -5 -8 -14 -17 -16 -16 -12 -11 -0 9 28 54 59 82 43 17 6 -1 -2 -6 -10
79 82 82 90 86 68 60 65 46 24 22 50 30 20 11 -13 -11 -16 -7 -11 -9 -8 -8 -12 -9 -6 -2 2 2 3 11 13 36 48 68 96 60 56 51 33 25 17 11
75 85 89 91 92 75 65 48 43 39 59 63 39 23 15 8 3 4 12 3 -1 2 -2 -3 -3 1 7 14 16 18 17 33 34 55 65 54 41 43 48 45 42 27 25
70 84 80 87 99 91 64 61 61 65 65 66 44 24 28 29 32 27 28 21 22 21 15 18 15 26 35 34 35 37 35 29 31 44 56 46 55 60 64 60 34 39 32
68 94 83 87 93 101 82 83 82 85 83 69 39 39 31 49 61 61 58 62 62 49 52 42 46 56 71 63 53 41 35 37 36 41 50 48 54 63 74 82 99 103 85
110 80 94 90 98 91 91 99 102 102 92 77 64 60 63 74 65 74 75 82 81 67 65 74 72 70 63 54 48 50 51 49 50 57 70 85 91 97 99 100 96 126 123
70 110 118 116 108 102 108 111 123 106 102 96 87 78 97 88 98 101 109 111 113 100 99 96 83 65 50 50 59 55 61 69 76 76 80 115 132 159 172 170 171 214 223
63 111 179 132 128 142 136 131 116 110 122 134 140 136 120 111 127 128 140 126 111 102 92 74 61 53 46 39 54 64 57 57 70 98 111 144 207 230 224 226 225 231 221
127 140 200 196 168 183 194 186 144 154 198 203 187 172 156 157 156 145 123 113 111 101 84 74 74 70 72 79 62 48 63 93 121 141 153 171 185 215 223 233 225 222 216
141 168 218 223 204 234 230 234 257 230 240 234 218 186 164 154 148 139 135 126 100 96 83 76 71 75 69 34 40 71 72 96 141 177 163 165 138 142 159 207 198 196 198
149 220 276 265 238 271 321 324 308 294 298 251 225 190 167 157 138 143 123 110 102 96 93 75 58 39 21 41 54 80 86 100 131 116 147 136 118 118 132 168 165 172 181
158 219 301 311 304 352 378 336 315 308 302 267 242 207 186 175 156 139 128 118 96 79 73 56 46 39 25 23 41 76 77 95 113 129 113 103 100 102 125 106 90 123 167
177 233 325 376 359 423 386 346 280 255 240 250 228 217 215 182 157 139 108 94 69 55 33 35 31 54 39 36 21 56 73 100 114 140 57 92 65 110 98 71 104 117 113
180 226 334 398 458 437 285 232 227 222 227 239 230 244 208 172 142 119 88 73 68 49 56 51 45 32 30 31 9 21 53 68 119 37 99 89 91 60 48 74 93 124 135
190 253 320 383 424 338 268 312 332 291 276 251 235 216 181 157 134 109 90 63 49 37 40 34 32 34 31 38 55 38 50 78 67 42 76 97 55 51 58 78 96 133 149
201 247 256 273 283 236 234 253 236 209 198 153 159 161 166 154 134 110 84 51 36 25 40 29 37 27 29 46 55 105 90 99 105 88 78 74 39 50 49 80 102 128 131
220 217 206 205 211 210 218 235 242 221 165 175 183 184 177 154 133 104 76 56 46 32 32 50 56 70 64 75 79 81 86 96 91 132 106 68 45 50 59 75 111 126 141
225 219 202 200 196 205 214 216 208 188 189 188 159 172 143 132 120 109 93 74 58 51 56 63 72 86 95 109 107 103 93 88 95 89 115 115 112 110 129 128 108 137 144

GFSSE_con_3kmhel_006.txt.gz
Helicity
-41 -35 -22 33 34 58 65 60 42 36 38 29 32 57 79 93 96 62 35 25 43 23 2 28 31 44 52 43 43 44 37 44 55 37 36 24 23 27 23 27 14 19 11
26 -20 -36 20 57 66 72 63 55 52 51 33 34 70 60 47 50 26 18 19 7 20 25 13 2 17 13 25 36 34 35 31 27 32 49 51 47 37 31 16 16 28 17
41 -12 -64 10 68 71 67 72 67 60 63 44 39 40 44 24 19 5 7 9 23 18 17 19 15 14 13 6 13 21 27 28 28 35 60 52 51 49 41 24 44 37 22
54 9 -22 36 81 71 73 71 69 64 57 53 43 27 18 -7 10 6 9 20 26 23 18 25 21 25 28 15 19 19 25 32 46 51 52 49 50 49 50 36 28 31 26
38 26 6 27 72 66 64 60 63 57 56 52 36 -2 -4 -1 11 25 18 38 36 35 27 26 28 26 28 29 26 31 41 45 48 52 48 46 47 39 48 42 28 29 33
30 39 31 43 37 56 67 55 49 46 44 37 25 -20 -23 -7 3 10 5 50 47 33 21 19 23 24 28 23 18 10 13 21 34 45 40 36 42 22 16 21 16 22 18
34 26 34 41 28 61 57 49 45 37 27 22 12 -3 -39 -38 -36 3 8 32 27 15 6 9 10 12 15 13 8 2 -1 18 32 39 39 38 36 13 12 9 7 4 13
57 29 25 32 35 72 61 47 39 23 6 0 2 -7 -25 -73 -54 -20 17 24 21 4 -1 -3 -2 -2 -4 -3 3 5 16 18 32 44 43 52 32 8 5 0 -1 -1 -7
56 54 34 39 50 74 64 55 42 24 8 5 -5 -16 -35 -60 -70 -32 -6 19 2 -6 -14 -16 -16 -6 2 8 14 16 24 29 37 49 58 75 51 29 22 20 14 14 10
53 63 56 60 67 84 74 61 48 32 23 16 3 -3 -13 -40 -50 -30 -2 1 -1 0 -4 0 5 3 4 11 14 21 25 25 26 33 46 64 43 39 28 31 27 22 22
57 56 69 64 73 88 86 59 51 42 33 47 30 20 9 -4 -12 -12 -2 8 11 15 18 16 12 30 38 46 49 54 48 33 32 37 44 37 47 50 58 61 46 23 12
57 46 57 60 65 89 82 80 70 61 65 63 48 39 30 32 27 11 21 21 31 40 32 44 57 65 54 43 49 56 36 42 44 49 60 73 74 66 66 74 75 86 81
95 76 77 82 86 110 94 96 96 90 85 75 60 46 51 56 57 52 53 53 55 63 64 82 82 76 59 44 49 43 43 47 43 47 55 87 89 81 76 69 83 105 142
116 119 92 97 123 116 107 99 103 107 92 83 72 62 72 73 75 59 71 71 90 94 109 89 76 72 62 49 50 53 48 46 52 59 83 133 137 133 116 109 161 194 200
88 119 129 140 131 124 115 105 116 109 98 91 93 87 86 95 81 80 102 110 110 100 95 82 74 71 61 56 53 58 69 74 86 92 106 167 192 187 211 248 223 202 186
77 110 162 163 158 159 137 119 109 122 114 108 112 106 107 105 100 117 144 127 118 98 81 73 59 57 44 35 52 65 67 66 92 111 130 153 209 221 231 225 228 203 231
49 89 154 188 206 188 166 139 136 142 140 136 146 148 135 137 134 142 140 125 106 91 72 61 57 51 55 61 52 50 66 85 141 145 156 160 173 206 225 218 211 209 197
84 100 136 176 205 221 205 206 227 183 201 186 185 167 169 143 141 151 128 123 97 83 58 50 50 47 45 34 51 65 58 95 147 160 156 147 148 140 168 200 201 195 189
92 125 161 220 249 273 318 320 282 244 246 239 217 189 178 158 147 148 137 113 93 77 68 54 46 21 14 38 68 81 64 91 152 159 150 138 135 108 99 145 162 144 143
110 141 213 254 315 377 374 351 313 307 317 290 253 228 216 175 158 147 128 107 82 67 62 47 39 23 3 27 43 79 68 94 130 146 145 121 124 85 81 82 64 75 122
141 158 222 299 362 440 405 351 321 278 277 290 280 245 211 181 158 134 108 88 67 34 6 16 11 37 14 26 15 70 73 85 96 124 115 69 109 76 52 58 49 58 86
135 173 238 304 392 431 393 282 254 243 258 276 249 228 190 178 144 134 109 77 38 7 29 32 33 11 3 -5 -11 -6 40 72 142 91 92 113 80 80 68 79 81 97 103
116 187 252 329 405 420 361 362 344 311 310 271 225 224 191 165 160 136 102 61 45 21 8 8 10 20 14 5 20 -1 8 45 65 88 130 106 86 71 42 43 53 63 84
161 201 249 326 401 341 279 277 264 238 217 166 188 178 171 164 154 127 94 77 53 16 25 13 16 9 4 20 23 67 74 89 66 67 91 105 63 54 37 53 33 64 73
182 214 231 289 289 249 213 223 230 212 215 239 199 188 175 169 148 123 112 90 64 38 33 41 41 43 28 30 37 53 84 110 133 162 145 108 59 38 31 40 71 16 53
186 198 210 228 190 189 191 191 202 234 229 219 172 172 162 153 144 143 127 105 86 72 63 50 52 62 67 76 74 81 91 98 108 105 129 98 61 30 81 33 18 40 58

GFSSE_con_3kmhel_009.txt.gz
Helicity
-26 9 -11 27 30 31 39 36 34 35 34 25 29 35 38 45 55 29 18 -3 6 -4 -11 18 27 47 64 50 54 49 47 44 54 51 46 49 52 56 54 46 27 8 6
24 3 -4 19 30 35 38 41 41 41 35 26 29 53 50 46 36 18 3 -2 -17 -2 7 15 16 13 17 34 41 37 42 42 39 43 55 65 77 80 76 55 41 56 33
37 18 -9 1 50 54 48 43 43 43 42 28 35 32 33 29 13 -0 -6 -4 13 11 21 22 29 19 14 17 37 33 36 35 39 49 65 62 64 76 79 60 54 70 53
30 21 -8 26 62 61 51 44 40 41 44 34 30 34 14 14 7 10 1 28 20 24 31 31 39 44 44 35 37 37 42 48 58 71 62 64 54 58 64 58 39 59 51
24 16 10 55 64 56 49 42 35 35 37 39 26 -1 -13 -1 14 16 15 22 35 42 39 39 43 45 50 50 47 50 54 57 64 61 58 55 43 36 31 23 24 27 40
79 23 12 47 59 63 52 40 31 27 29 26 3 -54 -36 -27 -12 4 21 45 43 38 33 37 35 41 43 39 37 34 39 41 33 44 47 39 31 26 12 8 8 16 18
52 32 6 42 45 63 58 38 26 19 16 6 -10 -54 -65 -23 -20 -24 20 44 33 19 7 12 12 16 16 17 18 23 25 26 29 34 37 36 29 21 13 10 6 4 -6
63 43 16 17 28 65 52 39 26 18 10 -4 -26 -51 -72 -74 -43 -17 38 26 21 4 -7 -1 -4 1 7 14 18 24 30 29 30 31 37 41 34 27 13 16 13 7 -1
58 63 31 18 20 59 53 46 30 22 12 1 -19 -45 -55 -65 -55 -21 -1 10 1 -7 -8 -6 -0 6 17 21 26 32 36 40 30 33 34 40 40 28 28 17 6 8 6
72 58 42 30 29 48 46 53 42 33 29 18 4 -9 -21 -37 -30 -9 8 11 7 5 7 16 17 30 49 53 51 51 46 43 43 34 40 43 29 23 30 41 40 26 14
71 55 47 38 42 58 62 47 46 33 27 40 36 33 8 -14 -17 -0 11 23 24 26 27 38 50 67 68 70 70 58 44 39 43 47 47 59 54 48 50 51 58 57 63
60 41 43 49 54 64 73 55 48 43 46 52 51 38 23 21 16 24 36 43 40 49 64 85 88 77 62 47 54 59 46 51 52 53 59 77 71 66 63 64 70 79 92
47 57 58 70 81 73 78 87 68 61 74 72 64 57 47 45 48 53 51 60 59 82 79 79 76 68 70 58 54 54 53 50 45 49 76 99 104 99 81 82 123 183 165
56 58 50 83 104 73 87 98 89 81 84 84 71 72 65 65 65 77 84 96 95 92 92 94 75 65 59 56 55 58 61 54 61 70 94 148 130 115 201 220 205 188 156
53 48 65 79 114 100 93 103 100 85 85 89 83 85 88 78 87 102 121 119 104 97 95 85 75 66 64 62 65 66 73 62 66 75 94 161 192 233 231 233 199 172 227
62 55 71 79 106 116 113 111 100 102 102 98 97 99 96 101 121 140 144 134 112 101 87 81 72 58 54 54 63 66 59 53 78 93 103 128 188 209 204 196 194 197 179
49 46 55 94 115 126 126 118 118 117 131 113 116 121 140 148 153 148 148 133 114 99 85 72 56 52 58 56 59 53 61 76 99 126 127 136 142 194 194 194 190 170 161
63 51 63 80 130 146 166 179 155 165 169 159 160 165 176 169 159 161 143 129 101 88 67 56 60 48 47 47 52 56 54 73 120 141 135 138 140 138 152 188 185 167 159
57 44 60 76 115 180 237 248 234 217 219 220 216 211 187 173 167 157 143 114 90 78 72 56 49 35 39 51 50 45 51 81 136 145 161 148 147 154 139 140 142 140 143
61 68 94 119 139 238 352 349 340 315 318 279 260 247 225 176 172 156 136 109 82 80 70 48 43 24 12 33 38 42 63 76 105 129 139 113 135 143 122 97 92 81 100
110 119 113 167 218 344 388 388 343 324 311 296 300 268 230 188 172 155 129 102 87 79 58 37 3 18 25 29 31 59 58 74 86 86 87 127 133 132 89 81 80 79 76
95 131 133 152 223 305 367 354 332 321 309 314 308 283 237 193 177 149 113 90 75 52 39 37 25 -4 -9 -3 -15 -26 31 46 80 65 94 121 120 127 112 103 103 98 95
110 133 137 170 234 307 389 467 462 416 373 325 296 274 222 196 168 145 119 97 78 48 35 28 13 8 7 -4 11 -16 -13 30 65 67 92 119 113 91 74 59 47 51 58
117 150 128 176 243 318 336 353 330 265 255 228 235 220 227 180 167 149 127 104 81 57 41 16 -1 -3 -15 20 -4 25 19 31 3 4 37 89 83 81 40 21 29 8 21
150 172 155 185 234 273 291 295 309 307 238 286 265 255 208 188 169 146 126 107 98 73 53 32 18 15 6 -1 9 19 42 57 76 71 80 85 71 23 11 -1 -11 -4 10
183 168 162 199 226 261 268 256 240 281 261 281 246 220 180 180 165 148 132 123 106 85 64 52 40 33 28 25 24 33 34 24 39 70 94 78 73 12 44 -9 18 18 24

GFSSE_con_3kmhel_012.txt.gz
Helicity
25 45 35 29 19 9 12 24 32 33 31 27 32 40 33 51 46 16 0 0 -1 -7 4 7 27 41 56 65 69 30 43 35 38 41 50 45 56 71 73 82 62 37 57
44 36 18 23 20 16 17 24 31 33 29 25 32 58 65 73 52 33 27 5 -1 5 13 15 14 18 32 40 48 39 42 38 31 43 54 43 55 74 82 71 75 72 74
36 28 21 25 23 19 24 31 30 29 25 28 50 52 56 49 30 22 12 12 17 23 26 29 32 28 18 31 41 39 41 43 50 56 53 47 59 66 76 70 55 60 68
33 26 17 32 33 33 32 27 28 29 25 31 49 26 29 34 8 23 11 32 29 32 37 43 47 50 44 41 41 41 49 54 59 54 50 59 60 72 64 64 38 39 47
24 29 53 58 56 38 31 31 24 21 24 23 16 1 3 17 15 25 21 32 43 43 39 48 50 52 51 49 50 50 54 51 58 39 66 66 62 69 51 35 29 35 29
22 37 91 107 64 43 31 31 28 21 12 12 2 -42 -41 -23 -13 2 19 48 43 31 27 31 28 38 37 43 39 43 45 57 34 40 38 38 25 48 30 27 17 12 21
69 57 59 77 55 55 39 28 25 17 5 -9 -34 -68 -32 -16 -9 -25 8 38 25 15 12 19 30 27 21 26 23 31 33 33 25 28 28 29 28 34 25 21 12 9 3
46 29 62 63 57 64 45 32 28 16 3 -18 -38 -57 -40 -47 -26 -14 32 12 5 5 10 16 18 14 21 27 33 42 45 41 20 32 33 29 52 27 22 13 8 10 6
47 45 46 41 43 67 53 39 30 24 9 -9 -24 -39 -32 -33 -14 4 15 -5 -13 0 10 17 15 18 35 43 49 50 46 37 22 45 32 35 70 27 21 28 23 17 8
73 76 63 57 36 36 42 47 35 30 33 25 18 16 -3 -19 -12 10 6 18 15 16 25 32 48 48 60 64 64 51 31 4 45 37 40 59 38 27 28 43 53 50 43
72 82 80 66 44 39 43 55 42 34 38 46 47 39 4 -11 -9 0 38 27 29 43 47 60 66 60 40 48 49 37 1 40 39 48 56 77 51 48 50 56 66 68 66
56 53 63 61 42 45 50 57 41 45 36 36 36 38 23 21 25 35 45 49 50 58 74 71 72 46 30 43 40 29 49 48 54 55 72 80 71 72 70 78 101 140 132
45 52 50 65 50 63 60 55 68 57 55 52 49 49 60 58 55 48 51 46 44 57 51 46 57 62 60 54 46 49 50 44 49 53 98 100 102 94 114 183 199 160 146
56 39 35 51 71 61 57 50 66 66 62 62 58 61 68 77 86 80 79 84 81 79 66 71 66 67 61 52 45 43 43 44 56 64 89 110 153 176 201 196 146 181 201
77 30 34 35 42 63 67 56 76 63 69 61 68 67 86 100 109 128 119 109 89 79 73 70 69 70 65 53 43 42 49 49 46 57 88 154 175 186 182 170 186 174 168
66 42 38 38 44 48 74 63 69 73 71 71 80 86 103 123 140 147 146 127 97 86 77 73 70 59 50 42 41 45 47 44 56 66 85 109 170 170 168 163 161 152 156
75 66 46 38 54 66 66 75 82 91 88 86 89 106 130 139 156 157 148 128 111 84 73 64 50 40 39 39 41 37 39 46 57 80 95 103 107 151 163 162 155 146 146
71 68 64 55 45 65 78 102 115 113 115 102 120 127 147 152 168 169 135 127 108 89 65 52 44 38 36 37 36 38 40 48 77 100 114 120 125 116 111 153 153 136 131
83 82 67 48 38 54 83 151 145 149 161 173 167 149 165 168 165 162 135 125 100 78 62 47 42 42 39 40 35 35 40 53 79 102 119 118 115 115 115 112 119 97 113
112 91 89 80 73 87 140 193 241 235 252 246 218 193 197 182 155 156 143 122 85 62 54 37 38 34 30 37 27 34 51 58 80 93 103 93 105 105 111 110 92 81 63
151 128 100 91 94 146 228 252 280 288 304 304 280 234 233 220 170 156 137 112 80 73 56 42 26 22 24 37 33 40 58 68 66 73 91 75 116 104 100 95 91 80 87
171 139 127 111 110 149 162 176 282 318 317 304 350 316 278 228 176 154 125 102 85 62 54 43 26 12 19 28 24 35 65 62 86 48 108 111 95 130 107 111 107 103 98
179 147 129 125 125 152 158 266 360 400 376 394 412 379 311 233 175 153 127 103 79 61 44 35 31 27 16 24 36 22 10 63 83 71 75 94 113 108 101 83 70 63 66
137 137 129 108 125 177 183 231 290 379 342 318 352 340 283 216 171 151 123 96 83 61 44 37 32 25 5 21 5 34 38 55 42 41 44 24 102 69 69 69 60 58 62
121 126 127 112 130 159 153 187 274 282 311 365 367 323 269 190 161 145 116 103 91 71 59 42 27 26 23 22 36 41 40 42 40 50 55 65 75 64 49 42 22 11 29
158 140 125 108 118 127 177 176 275 297 348 411 326 301 224 178 167 147 126 115 95 78 58 46 42 38 38 41 44 46 49 54 55 53 51 57 65 48 66 47 26 36 50

GFSSE_con_3kmhel_015.txt.gz
Helicity
54 74 58 51 35 11 4 7 13 15 24 40 57 56 63 80 65 45 24 25 18 10 15 14 53 64 71 84 88 57 45 42 32 37 30 17 35 58 70 97 67 35 99
69 58 61 49 32 12 5 11 17 19 15 24 42 67 69 74 64 50 32 15 15 15 25 33 41 50 50 57 53 39 30 31 34 41 40 23 38 57 71 63 65 78 70
67 71 47 51 37 25 16 19 20 15 10 28 58 66 89 92 67 43 29 29 29 33 35 40 49 43 42 45 38 41 43 41 49 47 25 25 49 65 68 71 62 51 62
56 62 55 54 51 37 34 26 26 17 13 29 25 38 56 59 40 47 33 32 37 38 40 45 50 49 50 56 54 47 42 37 41 23 31 55 42 68 55 59 65 51 43
40 43 90 59 64 52 41 27 23 22 16 11 1 15 28 36 48 28 37 37 41 39 43 44 45 43 50 48 47 49 45 39 27 11 45 46 36 71 48 38 32 33 47
32 36 92 89 91 72 52 30 14 17 10 -3 -16 -13 -4 -9 6 14 28 44 40 32 30 28 27 29 32 30 27 29 31 28 13 23 36 41 20 62 45 36 24 22 14
97 137 105 137 89 71 56 36 21 14 6 -14 -38 -37 -25 -5 -3 -8 19 33 22 15 12 15 15 15 18 17 20 29 25 13 2 9 31 42 68 55 37 31 17 16 17
74 94 115 85 88 82 58 39 26 15 4 -18 -45 -42 -36 -29 -17 9 31 22 12 7 9 10 11 12 18 32 40 34 27 17 10 15 46 31 68 44 29 28 32 28 23
80 97 89 59 81 92 63 51 37 18 13 -4 -14 -31 -27 -21 1 38 32 19 9 7 13 16 27 45 50 50 47 38 22 4 9 51 28 55 70 50 36 40 54 58 48
69 75 83 62 65 67 66 65 49 31 28 20 22 27 -1 -6 8 30 30 31 22 26 30 41 42 45 46 46 44 32 11 -16 21 29 43 71 68 56 53 63 68 60 58
66 74 79 84 86 73 93 71 52 41 39 46 47 28 -2 -18 2 13 66 49 47 41 44 45 43 31 17 30 34 19 6 51 47 58 63 88 69 59 61 68 76 83 109
44 50 61 70 73 81 107 90 51 51 43 37 35 31 4 30 44 65 64 52 54 53 46 39 21 4 10 40 41 18 44 46 43 54 100 104 86 87 94 156 171 130 143
59 61 63 72 81 109 110 89 86 77 47 51 50 52 51 54 60 49 54 41 45 26 20 4 18 49 42 47 51 47 39 36 44 68 141 116 92 116 193 184 142 197 163
81 65 61 60 77 74 83 90 55 83 71 65 72 59 74 75 79 83 69 106 105 63 59 61 57 45 35 43 49 49 51 46 57 78 133 133 143 183 173 148 168 146 146
101 83 66 52 65 51 73 60 58 52 124 52 92 67 67 82 87 103 154 120 105 101 87 68 60 49 41 44 44 47 52 55 57 70 104 144 150 154 152 154 133 133 138
86 87 74 56 60 44 46 63 72 31 86 65 142 79 83 91 127 173 143 139 134 122 98 78 66 50 41 40 38 47 53 54 55 63 100 93 125 134 134 134 124 121 123
80 82 93 72 60 58 70 65 67 66 82 143 110 105 93 160 175 146 150 153 138 124 100 80 57 38 37 40 43 50 50 51 46 59 80 85 70 101 112 123 117 116 120
90 93 98 96 70 76 90 90 73 55 92 159 136 149 149 155 133 146 160 154 132 116 94 81 60 38 39 44 43 46 43 44 57 79 92 91 103 93 84 104 103 99 115
86 111 129 116 88 87 74 72 102 117 185 108 119 161 192 159 158 177 169 150 128 125 99 75 60 52 42 38 32 40 52 40 61 74 84 80 93 94 94 95 89 69 97
73 112 118 144 111 89 92 109 159 207 226 273 279 230 198 174 166 160 161 156 137 111 85 65 57 42 35 36 28 40 54 53 76 67 80 73 93 88 100 89 86 92 79
105 162 144 169 134 138 151 232 259 292 333 287 282 283 240 218 199 179 168 158 134 110 83 64 43 36 36 39 22 47 46 66 66 69 90 90 129 87 84 113 98 88 107
224 214 215 156 142 154 238 236 312 375 340 272 284 314 302 305 252 197 156 156 126 99 80 63 43 13 23 23 12 2 55 54 47 87 82 103 99 119 117 111 103 107 115
143 194 210 210 147 163 211 290 376 367 418 369 348 358 353 336 281 220 158 142 125 97 77 60 37 33 22 25 26 23 31 84 89 87 79 114 90 125 108 101 96 105 104
118 218 216 247 225 184 215 249 311 394 403 349 357 383 366 365 318 222 162 144 121 90 74 50 39 30 11 26 0 44 61 95 88 91 113 93 113 103 92 101 104 86 77
112 186 205 204 219 216 207 174 276 245 315 402 405 431 425 400 307 219 168 148 120 93 77 57 41 37 29 27 38 48 53 56 56 87 89 86 112 102 98 86 62 68 48
132 196 225 184 191 216 167 226 217 222 378 434 436 471 443 381 249 205 162 141 115 99 79 64 51 40 38 42 51 61 74 95 120 131 117 98 92 87 96 88 86 34 78

GFSSE_con_3kmhel_018.txt.gz
Helicity
86 82 70 55 55 36 25 15 22 29 34 36 55 77 91 92 84 81 75 47 31 24 24 31 65 73 113 89 81 57 44 38 41 35 26 19 28 52 57 71 66 79 64
133 83 62 56 51 41 31 22 14 12 20 38 53 69 88 83 75 60 35 35 36 40 40 41 52 65 70 69 48 38 46 34 39 33 21 13 25 42 52 53 58 61 55
102 98 61 60 53 50 45 36 20 8 15 39 58 87 112 96 67 48 40 38 40 41 38 43 56 58 56 51 36 30 27 30 27 15 17 22 15 51 45 49 50 40 41
125 66 65 67 61 53 49 37 27 9 21 26 28 42 66 63 58 49 44 41 41 38 39 39 42 46 56 55 43 36 28 28 21 12 30 42 55 52 46 44 34 35 33
105 31 62 66 69 60 55 38 26 16 2 8 10 15 18 27 29 41 38 43 41 34 30 28 30 33 37 38 29 27 37 28 10 12 21 47 31 46 46 40 27 18 18
63 117 85 65 71 84 61 41 32 18 -11 -3 0 -5 -21 -10 9 16 36 37 29 24 21 22 25 24 24 18 14 17 18 11 -2 7 13 14 52 54 39 26 21 21 17
167 164 92 96 122 98 70 46 36 27 4 -1 -8 1 1 -15 -25 2 37 26 18 12 13 13 13 13 9 4 15 13 9 1 -2 10 22 63 45 52 36 27 28 22 18
170 138 103 152 125 96 80 62 43 27 9 -2 -14 -17 -20 -32 -48 7 20 12 8 4 4 5 2 2 13 19 18 15 10 5 7 27 55 65 74 52 37 38 54 60 72
144 154 125 135 107 93 72 70 62 34 16 -1 -9 -11 -12 -14 13 41 30 17 14 11 8 17 17 15 19 20 21 17 11 6 43 36 94 47 61 55 46 50 53 62 69
125 115 95 118 110 105 80 72 71 42 27 20 10 34 7 10 33 39 47 35 25 20 18 19 17 17 12 10 18 16 9 22 36 68 61 60 79 62 57 60 73 83 96
94 96 76 94 105 99 101 79 79 80 50 42 51 33 16 2 11 39 59 44 42 33 33 24 13 -2 4 4 3 13 41 46 62 78 67 95 85 73 69 96 120 117 141
79 83 85 80 79 107 111 128 91 81 73 52 35 38 10 15 52 79 68 58 48 48 38 21 9 14 13 16 18 40 40 51 60 87 84 99 81 87 183 161 175 172 143
72 82 96 150 162 113 149 114 89 107 67 48 62 43 46 124 102 78 65 54 45 31 33 29 15 39 34 35 37 45 54 55 69 95 114 127 148 170 132 167 144 128 131
90 95 112 121 165 183 164 116 66 88 52 44 54 71 119 105 81 64 69 61 40 50 79 89 77 53 53 62 51 46 59 69 87 96 117 145 155 147 145 123 110 113 111
146 137 150 131 151 185 193 135 79 71 77 87 108 113 137 105 82 81 149 169 134 143 138 118 103 83 69 56 52 50 58 68 103 85 81 131 131 125 120 108 102 101 95
131 171 195 172 193 149 183 142 78 58 130 78 148 110 111 109 98 215 233 172 167 136 145 131 108 85 73 61 45 48 62 68 83 105 64 74 101 98 97 95 99 96 92
99 151 172 205 220 136 95 128 80 61 112 132 178 109 100 153 234 214 174 182 155 147 154 151 124 90 84 62 57 50 61 64 65 91 69 52 61 71 75 83 86 85 87
110 114 161 194 230 179 120 92 111 62 118 222 181 158 163 245 258 214 170 187 161 166 148 151 127 99 80 69 53 49 61 60 63 108 121 107 72 62 71 79 79 83 83
107 117 138 212 222 226 225 138 130 99 193 242 225 185 236 298 224 199 205 208 176 190 171 133 121 86 68 57 41 38 54 49 57 93 94 90 87 96 81 85 89 92 85
153 128 171 223 246 242 307 194 154 155 253 247 254 279 409 316 260 215 227 226 213 184 151 130 102 80 62 47 17 15 48 47 91 87 94 88 106 92 82 79 78 78 86
157 181 170 260 286 320 349 246 202 246 331 425 470 475 349 280 244 241 247 230 206 195 156 114 86 86 74 51 23 20 24 49 70 61 87 119 114 111 109 104 81 62 66
162 169 177 222 288 286 310 270 281 366 400 473 450 394 314 270 296 299 286 252 234 207 165 121 97 60 41 39 17 6 24 41 58 49 109 123 111 119 123 98 79 69 92
140 153 234 227 290 303 287 479 538 580 585 515 486 426 379 319 376 326 320 261 225 184 149 110 88 68 36 17 29 9 27 30 46 104 96 131 116 127 104 83 75 93 109
192 143 188 270 281 339 465 574 526 470 518 533 485 451 380 374 407 345 344 291 221 169 138 99 77 55 42 30 20 32 41 64 69 83 128 126 123 136 105 91 86 99 93
112 194 169 184 268 340 481 520 510 486 493 534 491 419 394 421 424 371 352 294 217 165 131 104 78 70 52 40 37 41 50 59 70 108 99 102 88 84 99 99 92 91 84
119 139 203 234 275 345 410 442 433 435 467 505 511 455 459 462 448 420 345 269 228 181 136 104 86 77 63 57 49 53 59 72 87 128 146 116 102 84 105 96 86 83 84

GFSSE_con_3kmhel_021.txt.gz
Helicity
51 65 57 58 68 66 62 66 54 50 57 73 92 104 95 93 86 69 59 45 45 35 31 42 66 109 73 73 53 41 44 40 39 40 41 37 45 52 43 58 63 60 52
93 58 69 63 70 68 67 65 53 36 33 55 74 91 95 89 88 67 47 42 45 43 36 34 55 62 57 47 27 20 34 31 27 29 26 26 19 46 46 49 50 53 44
112 61 61 58 69 64 60 59 51 40 23 19 50 94 90 90 72 58 47 40 35 31 25 27 38 49 52 38 31 34 28 30 25 23 17 19 10 51 50 50 51 41 32
131 64 52 58 71 66 56 62 46 47 50 35 50 83 86 85 65 42 39 31 27 21 21 26 29 35 34 32 31 31 23 8 8 17 25 -12 25 49 48 41 32 38 26
112 64 50 63 68 59 55 62 47 41 41 25 17 32 39 41 38 31 30 25 20 18 20 26 25 23 19 20 17 17 8 1 5 9 -3 31 36 38 45 36 22 15 12
92 80 63 64 66 76 56 60 51 45 38 16 -1 -7 -16 4 12 21 21 16 13 13 12 14 12 6 7 9 14 17 13 1 2 23 12 33 23 42 38 37 23 16 14
108 83 60 78 83 83 56 65 51 31 28 15 8 -11 -22 -25 -23 -3 4 4 3 2 3 -2 2 0 3 9 12 13 9 8 21 53 63 66 48 53 36 30 34 53 60
122 74 68 86 96 92 64 63 61 40 30 19 11 1 -19 -37 -34 6 -1 -4 -3 -2 -3 -1 0 3 13 11 12 8 7 21 38 63 65 71 58 48 38 28 50 56 62
176 128 104 94 98 92 65 56 49 48 37 25 13 11 -20 -58 -3 20 12 4 4 4 9 20 12 5 5 7 7 10 17 40 55 58 72 59 61 57 53 56 62 67 92
153 129 142 126 112 89 67 59 57 51 50 49 23 32 18 22 39 25 16 11 7 15 16 17 10 4 4 4 14 37 47 88 70 69 61 63 76 69 68 76 73 110 123
148 125 123 143 140 107 98 73 79 66 55 50 61 36 23 41 46 47 28 25 17 16 19 14 9 14 8 4 17 47 60 64 65 68 59 69 74 86 135 122 144 154 138
142 126 114 123 130 121 108 104 98 93 81 46 63 46 26 31 59 68 52 42 28 29 23 18 22 29 34 30 34 66 55 83 70 75 68 66 66 152 142 162 143 114 122
140 128 128 117 108 106 139 144 127 111 102 61 55 37 57 43 58 85 72 53 38 38 33 42 40 42 56 58 53 60 70 84 82 83 91 135 163 116 131 104 112 113 93
92 111 148 149 125 105 138 160 131 114 94 63 45 47 79 93 123 90 80 68 58 44 62 64 61 79 80 71 69 70 72 91 80 84 107 139 151 154 117 98 99 94 86
103 101 142 185 164 193 196 167 148 116 89 48 67 64 101 99 90 116 108 90 91 94 109 111 103 99 96 86 84 74 75 99 80 77 76 121 123 125 112 98 95 98 93
131 158 135 207 210 261 230 184 174 125 92 71 70 81 125 117 114 151 169 173 164 171 145 126 108 100 104 93 102 79 77 92 69 74 70 76 98 100 101 103 100 96 93
105 156 178 204 283 274 243 211 185 139 115 106 99 135 130 118 165 212 248 217 192 184 178 163 143 120 124 97 97 92 71 77 95 77 74 72 81 91 94 98 100 91 88
183 143 180 224 254 304 248 208 189 121 148 167 143 143 145 184 210 209 241 213 212 192 169 179 157 144 115 97 77 68 66 67 102 90 65 64 53 57 73 80 93 93 93
149 189 206 289 276 240 259 243 191 134 157 194 190 240 258 277 250 236 248 234 235 214 197 186 177 129 113 92 67 58 46 61 69 89 84 68 59 59 51 88 99 98 97
86 159 153 331 323 309 253 228 203 190 182 224 241 303 331 353 287 287 274 245 240 249 231 201 169 150 104 87 59 52 24 42 47 73 80 79 80 85 77 85 69 61 64
105 98 147 195 337 440 390 309 255 228 245 295 302 383 433 390 341 341 284 265 228 241 221 190 167 147 137 95 69 62 35 34 30 38 66 94 108 90 84 65 48 40 42
86 93 99 131 292 429 474 398 329 313 311 343 363 390 419 383 392 347 302 257 232 267 238 197 157 134 112 107 74 62 67 41 32 54 81 111 122 118 103 89 61 43 35
69 96 100 105 196 382 437 503 565 570 540 487 444 427 425 418 398 356 331 297 235 253 239 192 150 126 104 85 79 51 68 47 43 57 110 159 160 153 130 102 68 50 52
45 85 114 123 122 299 422 533 530 472 500 493 502 514 450 414 414 401 351 334 274 281 247 185 139 113 92 77 63 66 60 55 53 59 91 127 138 143 97 72 80 87 82
136 120 141 107 165 185 387 482 514 503 553 602 571 583 514 482 436 431 368 358 303 294 255 188 147 122 91 78 65 59 72 75 92 105 90 111 124 100 105 107 87 110 120
187 180 138 133 141 231 334 443 486 579 572 584 559 538 558 552 488 432 389 369 316 286 268 197 152 128 103 90 74 72 70 76 85 116 119 118 97 83 101 92 98 111 103

GFSSE_con_3kmhel_024.txt.gz
Helicity
41 24 44 53 69 76 85 90 89 83 78 86 105 109 118 110 101 88 70 52 47 40 44 68 77 48 39 31 31 47 30 34 40 56 75 85 91 75 72 85 66 40 50
53 46 45 52 64 73 77 88 91 82 80 73 106 111 100 85 68 56 47 42 36 31 33 55 80 56 48 42 21 20 22 30 38 44 45 39 44 63 57 51 50 53 51
102 63 40 44 56 61 61 74 84 76 82 93 76 89 86 83 62 50 42 34 29 22 23 31 44 41 32 26 27 31 39 37 33 28 27 24 25 54 53 54 44 39 37
109 74 44 47 48 50 54 59 74 69 56 67 104 82 88 71 55 42 30 23 19 19 17 14 17 25 26 25 26 31 24 20 26 23 22 16 18 52 49 38 30 33 22
113 89 47 49 45 52 55 52 83 79 68 72 87 93 81 60 34 26 18 13 11 9 8 9 10 13 18 23 22 12 10 17 32 13 18 16 12 31 39 31 23 17 9
126 103 55 49 47 57 60 47 69 71 53 47 42 36 35 25 13 10 9 4 -3 -10 -11 -8 -5 3 6 8 12 18 18 30 22 -4 16 9 18 32 29 31 24 14 13
139 111 70 52 47 64 60 41 53 62 50 34 22 11 8 4 1 -4 -8 -11 -16 -22 -24 -21 -11 -4 -0 10 17 23 31 49 44 49 51 44 21 35 25 28 49 69 66
142 106 66 61 51 59 62 38 43 60 51 34 8 -1 -9 -19 -11 -8 -10 -16 -20 -20 -18 -9 -3 4 11 14 18 33 45 68 54 68 66 59 44 38 35 43 52 53 59
108 104 71 68 60 61 56 48 35 49 52 50 36 8 -10 -30 -17 -3 -7 -13 -15 -11 -12 -2 12 11 10 16 29 38 51 58 66 63 63 63 54 54 52 56 59 79 108
121 103 80 82 82 79 63 54 44 53 54 43 30 24 -16 -32 23 23 7 -3 -6 -4 6 8 12 17 18 28 47 55 77 89 81 79 67 60 67 73 71 68 92 121 135
139 115 116 111 123 105 87 59 56 59 71 57 45 23 22 35 56 58 35 18 12 10 9 15 19 22 19 25 49 76 77 62 84 72 59 61 74 122 124 146 163 156 166
154 130 119 129 130 119 98 88 81 76 78 76 71 44 46 57 52 52 46 50 41 36 28 26 32 34 43 44 49 83 71 77 86 84 68 50 138 142 161 157 139 134 122
156 146 127 136 144 141 129 120 109 102 96 87 83 80 52 62 64 63 60 53 56 65 67 65 72 58 54 52 60 78 85 91 94 100 110 145 161 124 142 122 109 110 89
168 160 152 152 163 147 144 151 132 123 103 108 88 92 90 82 74 77 78 64 76 77 86 84 90 91 90 74 73 88 84 84 94 102 116 152 179 170 98 89 96 97 91
160 158 162 171 159 169 149 143 149 138 134 98 101 96 96 103 105 101 92 81 91 94 95 125 127 113 109 96 90 98 90 91 97 97 96 142 138 128 111 100 93 91 86
130 191 193 173 167 183 174 176 146 141 131 122 107 112 105 120 132 142 123 114 108 115 120 134 131 127 123 107 109 106 92 80 84 96 92 99 117 113 103 97 88 88 89
113 164 243 227 209 196 198 208 191 176 148 140 111 106 104 124 155 144 147 163 154 144 170 170 171 150 142 118 119 109 95 87 80 86 81 88 99 106 97 94 91 92 97
149 146 233 254 266 225 228 241 242 207 179 149 105 104 113 133 185 195 224 220 182 184 191 185 173 179 158 138 111 99 92 88 82 74 69 61 63 75 84 90 96 101 99
132 167 182 279 280 289 273 276 283 237 209 168 118 127 144 161 205 238 239 239 227 231 215 186 189 174 168 143 114 99 79 73 72 66 54 54 53 61 70 80 89 94 97
119 119 148 197 283 274 302 295 298 281 259 184 192 182 225 240 275 290 283 280 252 250 223 213 217 222 170 137 126 114 93 68 63 57 50 52 55 73 68 73 73 76 86
143 133 110 154 214 341 355 354 307 286 286 260 230 257 310 316 319 348 307 298 264 234 196 214 238 208 202 147 145 137 106 84 70 65 68 81 94 96 99 94 87 70 55
102 139 144 164 176 291 360 340 370 356 370 291 363 318 309 349 390 374 359 314 273 257 209 201 215 208 187 169 144 144 127 97 82 90 92 117 136 145 139 128 103 75 62
63 84 98 107 116 191 273 423 502 515 510 453 366 350 337 378 379 373 395 377 308 271 190 177 194 188 182 170 150 123 139 108 99 94 132 162 168 182 160 129 117 113 93
54 61 64 87 120 147 244 383 419 434 430 393 367 428 424 386 410 421 439 404 334 274 203 195 187 177 179 154 136 133 129 108 97 100 104 127 150 165 131 102 119 124 150
92 90 72 75 102 158 280 274 351 416 444 506 529 500 495 487 450 459 451 423 353 310 259 238 243 208 170 140 122 111 116 120 118 122 109 119 150 145 112 139 133 168 196
120 141 164 148 137 151 208 283 262 344 531 597 541 543 549 530 505 471 476 439 370 333 316 281 281 239 175 149 119 110 101 103 105 125 129 124 121 112 138 131 161 191 166

GFSSE_con_3kmhel_027.txt.gz
Helicity
19 -11 38 28 28 46 65 72 78 89 110 129 123 140 150 147 134 119 102 73 58 49 38 29 22 21 17 17 30 38 40 47 66 93 95 91 91 82 80 65 72 43 41
55 23 45 24 28 49 63 73 82 86 92 117 115 107 103 99 87 65 51 43 36 24 36 56 38 53 49 38 17 12 23 43 54 54 57 57 60 66 63 50 62 53 49
100 47 46 31 19 38 45 55 67 85 99 124 131 116 87 61 44 36 33 28 25 20 23 41 49 39 29 20 17 22 38 40 40 37 36 32 38 59 54 54 45 35 37
85 64 55 35 21 33 29 33 39 64 80 100 107 93 93 61 41 33 23 21 18 13 10 15 21 19 22 19 23 33 36 28 27 31 30 28 26 59 53 40 30 26 13
93 87 59 57 28 34 42 33 27 39 58 80 99 92 68 45 38 27 22 17 13 9 5 3 4 7 11 17 16 24 29 18 26 19 21 19 18 43 48 35 23 12 2
106 103 69 69 40 37 43 45 47 55 61 77 91 90 59 33 15 11 9 3 -2 -5 -6 -6 -5 -2 2 7 15 22 16 16 11 8 21 16 17 27 37 29 26 11 4
137 114 90 76 50 40 36 42 38 38 56 54 47 39 22 11 8 1 -7 -13 -20 -24 -23 -20 -14 -7 1 8 9 19 23 31 31 53 43 26 16 35 34 41 51 46 44
130 123 101 70 54 46 31 40 39 35 44 41 31 9 10 9 -2 -8 -10 -16 -22 -24 -22 -11 -7 -3 8 11 16 25 32 44 49 63 60 43 36 46 41 56 55 59 87
109 123 109 76 54 50 41 48 45 32 32 27 14 5 7 12 11 2 -5 -14 -21 -25 -15 -9 1 7 15 25 19 28 32 46 59 58 64 52 48 53 53 55 62 106 119
103 99 92 84 73 68 61 53 49 44 33 40 28 13 -10 -7 18 16 15 2 -2 -13 -7 7 2 13 30 36 34 49 59 77 65 67 65 52 59 62 63 64 116 158 151
102 92 91 90 77 86 86 59 59 53 49 51 48 33 6 -31 3 31 18 16 20 12 11 17 19 29 42 50 60 60 61 48 55 58 52 37 74 101 145 158 167 178 159
108 81 79 70 86 113 101 81 77 74 72 54 55 51 34 33 60 63 42 28 31 37 41 47 60 64 71 59 46 62 47 57 64 62 43 38 114 138 145 153 142 127 129
127 114 91 92 93 121 126 112 101 101 88 71 63 65 69 82 88 77 63 46 43 50 62 83 82 79 88 81 70 66 64 69 73 81 99 114 126 140 136 141 128 105 83
137 130 115 115 114 129 140 141 133 124 109 95 75 82 105 103 105 89 85 71 72 73 77 97 90 90 103 103 84 91 86 82 86 96 122 186 179 181 94 93 97 94 88
174 133 117 143 152 151 160 151 148 145 148 116 111 111 123 117 106 105 94 97 89 100 89 103 118 109 109 111 98 95 92 95 103 104 112 160 151 139 118 97 92 94 87
152 153 176 169 166 174 184 175 164 146 147 143 138 131 131 123 127 125 118 109 104 107 113 114 118 116 120 118 120 113 101 97 99 102 106 115 129 117 103 92 88 96 88
195 158 161 191 203 201 185 192 169 143 126 139 151 150 141 143 134 133 141 132 104 122 149 144 142 139 136 131 133 119 103 91 91 94 90 94 106 115 100 96 100 101 98
223 223 207 201 207 222 230 217 188 158 145 139 145 158 153 156 150 161 176 145 144 169 169 157 146 150 140 136 132 129 116 97 92 83 74 74 78 81 88 92 93 99 111
160 181 191 211 241 233 255 252 234 216 199 159 141 169 171 157 173 182 161 157 190 198 173 161 163 147 144 147 146 140 120 98 77 75 68 62 58 64 69 80 96 101 108
125 135 140 163 196 275 303 279 254 261 220 207 155 196 197 180 201 200 205 237 236 231 200 188 184 191 166 155 169 165 143 113 88 67 64 62 65 80 91 98 90 87 94
112 178 170 177 146 262 371 363 271 246 264 255 191 219 233 215 231 235 238 259 246 222 211 215 215 194 196 171 182 169 155 139 118 91 76 76 100 113 122 112 97 93 86
161 182 201 183 158 223 283 326 387 303 268 273 253 292 281 288 275 308 298 278 228 251 244 222 209 210 204 174 168 176 158 138 124 118 108 118 139 151 162 153 136 128 109
102 116 151 197 186 185 210 308 450 510 471 446 337 322 318 303 311 341 341 304 284 317 270 231 194 183 212 200 158 167 176 134 137 128 142 146 162 184 173 152 152 135 136
88 98 103 127 141 162 184 323 381 418 431 404 376 366 374 346 305 366 386 375 333 320 296 242 195 188 229 214 204 174 165 144 132 125 133 142 153 157 162 150 150 166 184
104 106 98 96 89 106 156 230 279 287 335 425 518 450 402 412 320 364 392 396 362 365 345 304 282 175 210 221 215 184 167 166 157 149 133 122 126 132 147 158 171 205 236
69 77 82 94 111 137 147 178 220 218 315 413 527 514 456 434 427 411 432 414 409 432 389 309 289 257 222 239 232 196 162 149 129 137 144 130 126 135 159 159 213 223 229

GFSSE_con_3kmhel_030.txt.gz
Helicity
5 -4 41 10 15 9 17 31 55 85 97 123 137 151 140 124 112 86 79 78 68 45 13 20 7 11 19 18 39 46 40 42 54 67 77 85 81 82 78 78 62 38 40
48 25 38 23 17 9 18 34 44 77 108 122 119 128 130 108 78 59 50 34 22 19 19 -6 17 36 37 23 15 21 34 51 60 72 79 74 65 71 64 57 52 44 45
90 55 44 29 28 13 14 33 47 56 92 98 95 89 81 73 63 47 34 21 12 11 32 44 66 51 30 15 13 20 24 30 34 38 43 40 46 61 56 50 47 38 39
72 73 52 30 33 24 20 25 29 39 75 101 99 94 68 48 35 31 29 23 18 18 15 22 24 24 11 10 16 15 20 22 23 29 21 32 34 60 54 48 43 34 16
88 78 48 30 32 27 27 29 34 36 45 90 82 88 64 40 32 26 23 19 14 4 -4 -1 6 7 11 11 9 3 9 14 12 14 16 20 31 35 56 48 43 33 17
95 87 40 48 43 29 23 29 37 31 30 72 67 72 46 32 26 23 20 12 4 -4 -10 -9 -5 -3 -1 8 8 5 5 7 5 9 10 6 22 11 45 50 65 54 49
101 92 75 72 50 33 25 24 27 23 24 54 80 49 30 19 12 10 5 -5 -9 -13 -11 -8 -2 2 6 8 6 9 19 21 17 29 22 13 14 39 45 54 43 44 62
103 98 84 70 44 39 32 42 36 27 35 44 45 35 20 11 9 12 2 -4 -11 -9 -7 0 2 3 8 13 13 14 26 37 36 38 32 25 25 42 50 56 60 86 98
104 111 93 75 56 47 41 49 42 38 21 17 20 11 2 13 6 2 5 -2 -4 -10 -1 4 7 6 12 16 25 31 37 48 41 33 34 28 25 44 49 50 75 115 109
97 83 79 70 82 66 56 55 51 43 25 13 8 12 17 16 10 9 1 -6 -3 -2 -14 21 23 19 25 29 42 50 57 57 41 36 32 31 38 44 50 96 155 148 126
74 75 85 93 79 73 73 64 66 53 42 31 18 26 27 20 11 26 19 6 2 4 22 27 32 39 41 51 52 55 59 40 42 41 38 40 64 110 132 162 177 173 133
57 38 58 57 75 85 79 91 92 77 65 58 50 41 34 19 28 49 35 33 27 30 33 35 53 63 46 42 43 57 46 50 53 50 38 37 113 141 137 152 130 122 116
58 59 55 58 64 90 102 114 111 104 93 83 70 57 52 54 70 80 69 54 52 62 63 75 70 66 61 52 56 58 61 66 69 75 65 101 123 137 126 121 122 103 87
76 64 69 75 72 85 123 120 117 119 110 110 97 89 92 91 111 109 91 83 69 76 83 85 81 75 80 78 70 73 74 75 79 95 137 171 189 175 97 92 95 86 76
87 97 90 91 94 91 134 126 131 124 118 108 121 131 134 129 122 126 112 105 91 89 91 95 98 93 85 88 85 82 83 86 91 101 123 164 156 136 106 92 89 80 71
150 130 140 127 137 125 130 119 146 142 133 122 134 139 145 149 143 138 138 129 111 96 104 102 104 109 99 91 101 96 92 94 104 111 116 126 136 118 103 94 93 88 79
122 152 185 170 147 151 139 160 177 150 145 137 141 139 145 156 147 138 148 146 126 137 138 141 136 131 118 110 119 116 104 104 105 110 109 110 114 113 103 100 96 88 87
147 152 157 184 172 159 197 214 212 194 169 148 145 144 153 173 168 158 160 143 158 161 162 160 147 147 133 116 123 123 114 101 100 105 104 96 94 96 96 102 95 97 92
150 164 169 193 214 213 214 222 227 207 193 168 155 139 162 179 174 187 166 160 191 185 163 178 169 144 140 140 141 142 122 99 93 98 101 94 90 92 98 110 108 101 98
163 172 183 201 177 210 245 249 243 237 190 208 186 160 169 170 190 197 191 204 218 208 198 192 182 180 154 150 170 169 145 121 104 95 92 91 90 95 100 103 97 94 105
160 179 205 240 225 261 281 257 232 212 248 253 230 204 201 175 210 218 202 204 224 218 187 213 214 186 189 169 199 175 165 143 132 111 97 93 98 110 124 119 105 98 93
105 126 142 171 200 254 282 267 288 246 261 275 269 234 252 218 235 237 227 243 234 226 228 216 222 224 198 167 180 189 154 149 140 132 115 108 124 135 147 139 131 119 106
83 113 135 128 128 201 258 272 400 376 345 365 332 275 294 300 265 259 274 285 260 213 218 227 234 235 235 179 162 181 175 139 162 147 141 128 132 158 167 153 148 134 130
154 141 120 156 154 151 183 266 293 297 325 358 374 342 371 373 312 296 318 303 308 270 286 247 252 257 263 218 215 188 203 176 176 164 140 134 137 149 168 160 153 149 157
118 135 183 133 158 156 160 196 231 229 258 300 328 336 389 402 355 345 339 340 303 368 286 329 315 296 301 244 245 247 234 233 217 199 167 124 129 128 141 163 160 169 198
125 120 127 145 84 118 161 168 208 198 203 289 337 345 384 444 416 362 373 383 379 396 373 351 328 323 323 273 257 252 248 239 212 213 202 160 138 142 152 164 170 180 214

GFSSE_con_3kmhel_033.txt.gz
Helicity
28 20 13 8 -1 -6 8 8 30 40 56 93 110 105 116 110 102 88 80 63 29 4 -1 -7 4 14 18 24 32 37 40 52 57 67 72 66 69 70 61 62 44 33 35
40 27 32 18 13 -12 -6 2 39 49 65 102 120 106 86 80 71 61 50 34 11 -25 -28 -17 24 28 28 4 7 18 36 51 55 58 61 60 58 56 52 47 40 45 52
67 40 39 27 19 5 -14 11 34 53 69 91 106 100 61 51 44 35 32 19 15 36 49 61 70 37 22 16 11 17 23 27 32 40 46 46 55 53 49 42 42 33 38
85 46 41 26 17 16 -14 13 35 39 49 64 66 62 48 35 22 19 18 16 27 39 36 52 28 20 15 11 9 13 17 23 28 23 28 38 41 55 50 46 38 26 23
69 52 49 30 27 6 -1 8 28 34 65 70 69 52 31 16 14 16 14 12 12 15 5 4 5 6 4 -1 1 8 9 12 16 16 23 30 29 35 46 52 37 28 19
64 67 59 46 39 14 7 6 19 22 29 55 64 43 19 8 8 8 8 5 -6 -14 -15 -12 -5 1 -2 -3 -2 2 4 6 4 12 17 19 18 20 44 56 56 56 68
61 63 57 52 45 28 22 18 16 16 8 33 67 46 15 3 7 6 2 -1 -6 -10 -8 -8 -1 5 4 -2 -0 7 15 20 16 18 19 18 20 34 46 56 65 85 110
66 53 54 65 52 25 27 25 18 4 24 26 60 36 21 6 1 -1 -2 -7 -8 -6 -2 2 4 15 12 10 9 15 26 26 23 28 22 17 19 36 45 54 82 110 113
72 67 57 52 46 32 37 40 35 31 51 41 47 33 26 16 8 6 -3 -8 -7 -5 -0 -5 13 12 11 17 20 25 33 33 25 23 23 20 16 38 47 59 120 124 123
62 61 53 46 41 42 32 48 47 51 43 45 26 28 39 42 27 12 9 -1 -2 -2 -10 20 18 24 22 28 36 43 45 37 28 27 24 22 9 37 74 129 144 134 107
58 46 54 54 46 50 46 41 47 56 55 50 45 36 51 33 34 35 21 17 21 16 33 27 30 40 47 43 41 45 33 24 28 32 28 26 87 140 154 164 145 109 96
49 34 31 43 47 58 57 52 49 52 55 59 58 57 49 51 48 50 48 50 46 57 53 50 58 49 34 28 31 42 37 41 43 39 37 43 108 113 119 122 112 107 84
38 31 33 31 35 49 56 65 66 79 82 76 76 71 62 54 56 64 72 66 70 76 77 76 60 51 47 37 38 42 47 50 53 54 62 87 97 116 117 99 103 85 77
53 49 43 34 40 52 61 74 77 95 86 86 82 79 89 82 70 75 86 89 90 89 93 82 74 74 70 60 50 51 55 59 65 83 102 167 194 143 101 85 80 76 69
54 57 68 67 62 74 79 77 80 79 81 73 84 88 92 94 91 97 102 106 100 103 100 99 93 89 81 71 64 61 70 81 92 99 109 157 147 122 91 78 69 62 60
77 66 85 82 104 109 107 101 81 78 74 83 88 92 88 95 101 109 117 116 109 104 109 105 103 100 98 82 82 75 78 91 103 112 118 122 140 112 90 79 74 67 64
76 89 116 110 111 110 136 130 128 106 96 90 94 90 95 99 106 114 121 129 119 124 124 135 135 126 117 104 95 91 97 104 109 115 122 120 117 127 95 84 71 70 59
131 107 83 115 122 141 137 153 150 136 132 120 118 108 100 95 104 121 130 130 137 151 144 148 152 145 123 111 111 116 111 113 114 116 115 119 119 111 113 94 82 77 72
116 118 112 103 108 126 142 161 164 163 150 148 151 131 108 113 111 129 138 131 153 164 154 167 175 147 126 125 130 129 128 116 112 116 121 120 119 108 105 113 104 97 84
126 139 140 161 127 145 156 165 177 167 140 166 161 147 143 145 131 147 146 135 174 180 175 175 163 173 150 149 150 150 143 128 120 117 120 115 107 104 100 96 88 91 103
133 147 152 172 179 203 234 229 208 187 179 176 174 148 160 162 156 159 167 147 185 203 174 161 208 193 200 176 185 165 157 143 127 129 128 121 109 105 100 103 99 93 92
156 172 179 162 175 221 244 249 267 220 201 169 193 182 169 196 212 205 200 189 202 212 190 205 249 250 218 172 182 186 144 142 142 143 133 124 115 121 123 121 121 113 106
172 152 147 156 155 155 180 243 309 292 275 241 234 205 215 237 266 253 254 255 251 226 228 233 230 241 262 189 179 190 188 156 175 171 149 138 129 137 143 146 139 131 118
257 179 127 139 144 164 148 183 214 255 271 299 288 225 251 264 289 276 274 293 286 275 202 222 228 226 294 288 227 173 203 180 168 157 157 151 148 143 145 154 152 143 135
176 163 131 117 182 194 183 155 187 186 191 205 243 228 229 254 275 302 302 333 341 342 236 266 311 255 264 298 314 287 243 214 206 207 186 185 176 155 163 168 158 147 144
135 139 137 124 121 187 183 159 147 144 155 199 215 204 223 278 314 320 295 335 361 350 332 365 313 289 317 311 329 315 341 275 222 251 240 215 187 186 179 173 170 160 160

GFSSE_con_3kmhel_036.txt.gz
Helicity
50 47 22 3 5 -14 -25 -15 12 7 30 47 70 95 99 98 73 60 45 24 11 -6 -16 -14 10 27 23 25 29 30 37 47 49 62 65 63 49 31 35 37 10 45 37
60 51 33 14 -4 -1 -13 -16 2 7 37 72 92 84 74 64 52 42 28 5 -25 -67 -19 0 32 25 14 9 11 19 24 30 31 29 13 15 39 40 41 43 58 52 45
74 57 36 29 18 -3 -21 -17 31 25 48 63 72 63 53 35 30 24 12 6 14 29 0 42 47 26 17 15 14 19 21 24 27 26 3 37 45 46 43 40 38 29 32
67 53 31 28 9 -6 5 2 34 35 50 59 57 62 37 20 17 16 11 20 39 54 72 64 38 20 20 19 18 20 22 26 21 7 28 39 43 50 47 42 31 24 21
51 36 45 37 -5 1 -2 9 11 25 56 63 61 40 23 12 10 10 14 36 40 35 33 19 11 8 13 12 11 11 13 13 4 -6 28 32 28 41 46 65 29 25 15
44 46 77 43 16 26 9 8 3 19 46 58 52 34 10 1 0 -2 -2 -5 4 -1 1 -9 -5 1 -1 0 0 0 1 -2 -28 17 21 26 36 40 52 58 59 59 62
44 57 56 51 41 14 1 17 -1 -3 34 47 53 35 15 2 0 -5 -8 -10 -13 -15 -12 -8 -4 1 1 -3 -4 -1 4 -5 -7 11 18 25 44 45 53 61 86 111 118
45 50 62 48 55 36 5 10 36 0 11 56 63 43 28 12 11 2 -8 -12 -9 -11 -9 -6 2 -2 -3 -4 -2 4 8 -9 0 17 19 22 35 37 47 68 107 111 130
45 47 59 42 52 44 13 14 13 7 11 55 51 46 45 41 23 13 3 -5 -9 0 -1 -1 11 6 1 2 7 14 12 -1 8 20 18 17 34 33 43 104 126 121 130
31 37 41 36 41 35 32 28 23 36 52 72 56 53 69 58 39 27 14 7 2 13 9 29 23 17 22 24 25 25 18 -5 23 20 19 30 -1 28 73 103 106 89 90
24 26 38 48 48 40 41 44 35 45 49 64 63 55 60 36 40 49 47 39 25 18 47 46 49 47 43 39 33 25 -6 13 19 22 21 35 82 109 146 137 115 95 84
30 30 34 44 49 52 54 49 27 35 29 28 40 60 37 39 45 48 65 54 53 67 65 64 60 50 11 26 29 12 16 23 25 29 50 65 109 127 128 118 94 73 62
30 34 33 34 39 46 53 53 50 43 46 42 36 49 48 61 66 51 69 64 61 56 57 58 55 39 42 40 37 32 33 31 40 44 89 95 111 115 88 86 81 77 76
52 44 35 42 45 36 45 47 46 51 55 62 51 47 60 63 65 72 69 67 69 64 64 60 64 67 63 56 53 49 45 47 51 56 109 162 172 131 96 81 77 71 64
68 47 37 37 39 42 40 52 53 54 69 60 63 65 60 69 70 65 74 85 77 81 77 77 77 77 75 75 67 59 54 57 65 72 106 154 165 124 89 79 68 62 56
78 65 44 46 45 47 56 62 58 52 56 58 59 54 56 63 69 71 74 91 93 91 88 86 90 93 90 83 79 71 69 72 80 88 104 123 154 121 101 80 64 55 48
95 78 57 57 58 56 63 80 90 70 74 59 61 53 50 55 66 76 85 96 95 103 99 108 113 112 116 107 92 79 75 78 92 101 97 94 104 118 94 83 73 70 52
101 97 82 78 77 81 79 92 98 130 81 72 61 67 58 59 66 86 92 107 100 118 118 122 132 126 121 120 108 94 90 98 107 111 106 96 87 84 111 95 83 69 67
105 104 96 85 81 75 73 105 118 107 127 75 85 91 73 75 75 89 101 104 109 130 140 142 142 134 136 132 117 108 107 114 115 128 118 111 107 91 85 118 115 97 88
116 125 134 118 101 88 82 111 149 152 121 127 95 104 98 108 95 103 108 109 120 143 161 168 153 157 153 140 128 121 129 130 124 119 122 121 112 100 88 82 91 100 113
145 143 148 172 153 139 151 170 164 176 175 167 156 112 102 105 107 119 125 125 136 157 162 156 160 181 191 167 168 152 142 134 130 132 131 121 120 104 102 99 95 89 97
152 174 167 163 178 192 200 206 191 175 183 152 140 136 115 110 110 141 148 172 152 179 180 182 224 232 206 203 183 170 152 141 144 136 140 135 124 127 115 111 112 108 108
220 205 174 160 150 169 185 209 251 260 245 199 183 154 149 127 142 146 170 224 195 207 249 257 235 223 240 207 202 217 201 160 162 162 149 153 145 144 130 127 130 134 132
226 235 221 187 149 138 146 182 160 219 232 224 192 162 175 166 154 171 171 200 231 263 276 277 280 209 247 273 256 216 253 236 164 152 153 158 161 153 150 159 152 155 153
155 147 147 149 142 120 161 193 186 151 140 138 128 122 120 152 159 173 194 210 249 291 255 289 268 228 251 276 287 303 229 220 217 209 189 176 177 168 168 171 174 175 177
119 118 123 133 132 120 101 145 178 163 138 134 141 153 119 122 146 131 175 236 269 284 303 311 286 285 261 301 311 309 321 283 266 264 249 231 169 191 226 213 201 190 187

GFSSE_con_3kmhel_039.txt.gz
Helicity
47 65 33 18 -10 -2 -20 -2 8 18 23 33 72 79 97 85 47 32 16 13 7 -11 -19 5 19 22 21 22 24 24 30 36 42 51 52 42 28 27 31 36 34 49 48
81 72 43 22 -7 -7 -25 -23 -3 -1 24 50 70 70 68 50 31 18 7 -5 -31 -23 -7 19 28 19 14 16 18 19 24 28 16 -7 -21 -12 31 36 44 48 81 47 54
82 79 48 36 2 8 -6 -23 -2 3 44 58 67 54 60 29 16 9 6 6 -6 -0 29 58 33 16 14 18 19 20 22 25 7 -26 -34 15 34 44 43 40 36 33 39
93 60 53 45 39 14 -10 -1 2 15 46 63 58 59 45 24 15 11 16 37 47 67 76 49 28 18 18 19 18 19 18 10 -9 -3 17 32 31 44 48 36 28 25 23
94 52 87 56 31 16 13 12 -7 10 36 50 48 40 25 17 14 17 32 58 52 49 43 34 22 14 18 13 12 11 10 1 -16 -1 35 47 49 40 50 65 27 22 31
71 62 94 68 47 39 18 6 -15 -3 33 47 47 29 23 20 18 20 30 33 29 26 23 15 7 11 11 5 4 5 -1 -26 -36 21 18 30 37 43 49 61 78 78 81
68 100 63 60 65 60 57 14 9 2 15 39 39 28 16 16 15 11 6 8 5 4 6 7 10 10 6 3 3 5 -2 -28 -28 10 33 42 51 47 56 77 96 106 107
56 73 87 79 74 61 61 31 24 2 8 33 41 36 29 20 10 7 3 -0 -1 -0 5 7 11 5 1 -0 2 5 -2 -25 -7 26 26 45 33 44 50 80 89 90 95
41 47 64 62 77 79 40 38 21 22 11 39 41 34 37 34 22 13 7 7 6 7 5 14 9 6 5 4 7 5 -3 -19 5 29 18 42 42 39 56 93 83 84 99
36 37 54 40 47 49 48 37 22 11 34 46 49 58 37 48 35 27 21 13 11 16 15 27 22 21 23 22 17 9 -6 -21 19 18 24 38 29 36 84 98 91 84 79
40 27 37 40 55 51 48 58 47 47 50 62 62 68 64 19 32 57 44 55 32 38 41 41 37 39 37 33 25 14 -9 8 22 25 44 56 92 121 154 130 111 80 60
34 27 39 49 59 66 68 75 35 46 40 38 45 58 21 20 40 38 86 78 60 63 69 58 49 39 12 30 27 12 6 27 30 31 92 91 112 131 124 112 94 77 64
49 45 35 42 52 60 70 68 48 48 36 36 31 38 25 36 77 71 71 70 72 74 60 60 53 34 30 41 44 32 42 31 38 40 109 93 111 107 98 86 78 74 67
71 64 50 55 59 54 55 52 53 51 49 51 49 49 37 66 76 56 61 62 57 86 56 63 60 59 62 54 52 53 50 46 43 72 123 148 147 113 87 72 77 72 66
85 79 68 59 53 64 53 61 53 55 63 48 55 66 71 77 108 67 62 97 76 79 68 79 74 87 74 73 72 68 63 58 57 83 148 181 166 136 103 83 77 69 60
111 106 78 72 58 44 63 39 55 62 67 55 67 86 69 87 89 66 95 131 98 72 92 87 90 99 95 101 91 79 73 74 76 89 162 149 159 133 106 89 77 67 55
89 76 78 77 66 53 61 60 55 72 70 73 68 71 73 86 80 74 71 158 133 98 86 96 109 129 134 125 117 104 94 85 89 98 147 142 128 139 105 86 73 74 59
139 141 108 108 83 75 71 87 93 76 86 73 80 75 71 66 72 91 105 166 155 132 105 123 129 150 154 148 147 143 119 111 96 105 131 148 116 105 129 105 85 76 69
89 96 104 117 103 81 77 102 127 108 87 83 93 87 75 68 70 96 127 156 177 148 139 166 153 151 160 173 170 162 144 135 117 128 132 135 140 127 94 146 147 115 100
135 134 141 126 89 105 108 101 179 156 132 120 100 110 96 110 91 118 123 119 152 163 181 194 173 181 188 197 189 188 178 153 135 147 144 157 164 136 147 138 139 133 122
128 132 127 128 138 128 140 147 188 179 161 164 153 118 128 111 111 140 155 131 147 177 200 175 170 209 243 248 258 232 198 150 150 165 155 180 163 151 154 165 123 137 132
129 132 126 123 126 157 179 202 216 175 157 181 176 158 156 191 155 177 176 180 183 196 198 207 207 259 287 301 324 238 217 168 155 181 171 183 167 180 173 173 143 151 146
149 175 167 163 170 182 177 206 228 258 221 185 212 216 185 156 194 165 179 199 216 230 243 248 260 272 319 305 263 320 255 239 199 171 186 199 181 205 193 187 177 168 181
175 169 171 159 155 149 143 166 187 215 242 249 203 159 136 138 140 166 184 204 229 270 279 288 317 340 345 354 301 226 328 341 249 204 167 172 178 181 198 207 204 214 212
164 162 151 142 134 131 114 119 155 179 209 198 165 128 141 135 103 107 150 186 235 269 265 285 317 394 389 377 366 392 318 317 321 316 259 194 151 173 197 206 246 226 222
122 115 116 119 117 111 107 95 94 114 175 193 194 162 155 148 163 128 132 175 222 248 288 308 312 350 380 355 372 367 410 407 363 359 349 295 233 241 238 254 267 265 263

GFSSE_con_3kmhel_042.txt.gz
Helicity
39 43 48 28 25 14 7 10 15 22 19 56 71 80 73 62 33 24 20 13 -1 -4 10 16 21 13 11 19 23 29 40 40 27 34 29 28 29 39 48 100 32 36 47
97 65 58 43 27 27 -11 -9 -4 10 26 48 65 62 51 49 28 14 2 -11 -17 5 28 31 19 18 20 19 18 20 26 20 3 -20 -35 5 29 41 43 50 43 30 34
70 85 47 35 26 11 -5 -20 -11 -9 32 36 61 44 40 29 18 13 6 -7 5 20 60 36 23 20 19 22 23 25 27 16 6 -19 -51 -15 9 38 37 30 31 35 38
91 66 56 29 40 18 10 8 -8 13 24 40 34 45 31 18 13 17 38 53 56 66 46 31 21 21 21 21 21 18 6 2 25 28 15 4 32 47 56 25 30 33 24
81 56 91 83 71 31 -1 15 -2 5 31 41 28 26 17 15 16 27 49 53 59 58 43 31 22 19 18 16 15 11 -3 -5 10 27 39 40 14 39 54 50 43 52 37
43 191 112 86 62 48 36 23 -3 13 20 37 36 21 14 10 12 36 34 31 32 34 26 21 19 16 13 8 5 -3 -26 -20 -15 -10 18 42 31 38 53 72 83 91 105
188 142 126 105 94 65 56 31 21 11 13 37 29 24 19 17 10 5 9 10 14 14 17 20 19 15 9 6 4 -4 -27 -23 -24 25 50 39 27 45 68 81 106 107 117
100 69 97 117 110 109 104 62 42 33 20 29 21 21 26 19 15 9 5 7 9 10 11 15 10 8 3 2 0 -12 -27 -18 -2 34 29 28 36 46 67 80 84 91 93
90 86 76 84 88 112 106 91 82 40 29 41 49 33 34 31 22 18 16 16 18 18 17 17 11 8 6 5 2 -9 -18 8 24 23 55 33 41 52 81 74 76 78 79
69 84 54 64 66 72 59 62 65 63 33 48 54 72 56 40 31 36 25 19 26 29 35 29 23 21 19 16 7 -2 -8 -1 12 17 39 26 43 63 94 89 82 77 74
54 82 40 45 42 58 73 66 64 56 53 52 67 66 41 29 31 52 28 48 25 48 49 48 40 37 35 29 20 1 -9 6 25 48 37 64 79 118 127 102 87 62 63
59 50 32 21 41 53 66 95 61 71 65 72 72 61 38 11 32 40 84 77 68 58 72 64 53 43 31 31 26 8 21 9 39 80 81 103 130 137 123 115 93 73 64
110 112 79 97 89 74 111 77 49 76 52 74 61 70 26 10 85 127 97 78 83 84 78 82 66 45 31 42 48 44 52 49 38 113 99 108 114 110 114 102 83 82 75
77 78 111 135 112 98 87 85 42 79 56 55 48 87 48 23 130 100 102 85 87 82 61 77 75 50 55 83 75 71 77 57 75 154 135 149 129 114 102 84 81 85 82
106 75 63 92 114 101 104 91 73 85 101 66 65 56 110 48 141 134 91 102 73 111 73 90 81 78 104 82 91 104 97 82 93 185 165 186 174 131 106 87 86 80 77
84 115 107 75 64 76 103 91 88 101 117 96 81 83 81 85 162 152 112 157 146 108 76 130 117 129 112 112 111 107 107 112 113 185 200 187 186 163 129 103 89 82 78
77 128 132 102 74 56 109 66 61 82 98 121 94 102 109 87 146 152 114 163 189 131 118 155 145 152 164 164 132 134 142 131 141 205 195 182 184 171 137 109 97 85 77
136 149 119 97 82 100 85 136 94 68 120 121 125 121 139 118 120 146 152 184 214 190 125 166 199 213 203 197 182 166 169 163 165 164 217 185 168 169 157 137 113 101 85
116 149 177 174 151 97 88 133 145 133 96 101 120 163 155 145 136 131 143 192 225 236 176 129 222 276 247 216 189 192 204 197 187 184 189 208 164 186 179 172 157 131 104
219 140 129 143 137 158 143 138 193 225 178 125 88 167 200 201 197 187 166 176 259 254 206 156 250 286 248 207 216 229 232 223 194 197 206 196 224 229 215 213 213 195 154
248 247 245 256 238 219 166 205 282 244 210 198 161 82 145 175 229 219 224 194 274 270 235 182 273 276 242 255 299 301 291 210 203 195 208 203 236 232 258 243 211 197 174
162 201 198 176 175 173 180 179 187 228 238 225 189 146 113 130 232 284 244 278 248 271 300 290 353 372 304 325 377 373 278 257 204 215 229 217 243 252 257 246 211 210 187
138 166 171 168 173 182 214 218 211 220 293 298 244 195 154 140 166 262 254 303 299 284 299 360 378 386 370 351 409 361 288 277 250 224 215 243 271 300 271 269 241 227 217
93 137 150 158 147 142 141 155 178 181 196 259 235 168 145 117 105 127 194 267 268 266 299 333 404 435 471 392 414 293 352 333 282 238 208 199 249 283 279 278 262 239 265
114 118 129 133 128 117 121 122 123 130 139 149 187 215 215 163 147 144 93 152 224 240 259 285 382 433 481 476 480 470 346 380 368 365 302 270 255 279 299 290 271 259 249
118 120 110 111 119 128 112 99 99 104 102 110 135 158 183 172 188 216 176 109 151 215 254 273 278 343 415 484 484 444 441 453 461 459 413 373 294 278 327 322 270 298 308

GFSSE_con_3kmhel_045.txt.gz
Helicity
21 31 37 25 14 16 20 33 37 33 39 51 56 52 43 41 27 21 16 7 12 29 32 24 25 31 23 32 37 44 53 39 37 26 16 41 55 56 66 43 35 19 33
56 36 39 36 24 16 19 27 33 36 38 52 51 53 38 39 22 11 6 0 10 36 26 18 22 22 25 28 35 43 55 61 42 38 31 37 42 42 37 33 27 18 29
74 58 53 37 38 25 24 18 9 21 33 43 43 25 20 23 8 1 -8 9 25 57 34 21 24 20 18 19 25 41 54 51 37 24 31 2 22 33 26 23 25 32 32
90 63 42 52 56 44 24 15 -6 -8 25 36 28 23 15 11 8 18 36 36 63 53 37 26 24 19 17 17 14 16 38 46 20 -27 -39 -12 23 40 32 25 25 19 30
88 72 45 61 66 56 37 20 6 -1 19 55 32 21 14 12 21 43 55 80 65 47 30 28 20 13 11 6 -1 -8 9 17 23 9 41 15 9 33 58 67 69 43 44
94 111 90 90 71 60 42 20 -3 22 12 30 25 19 18 15 24 36 35 39 43 31 25 24 17 9 4 -2 -14 -21 -5 2 18 19 29 19 23 41 62 74 80 113 123
109 115 119 88 73 72 54 26 37 33 24 22 20 20 15 19 25 17 14 17 22 22 22 21 14 7 1 -7 -17 -22 -11 0 18 28 26 20 21 58 73 96 95 102 108
138 135 108 94 104 84 72 55 55 47 33 32 -7 14 20 18 13 15 15 11 14 16 19 16 11 6 0 -5 -14 -18 -2 -5 24 31 23 28 31 56 70 79 86 83 88
107 103 104 109 121 116 115 77 71 47 54 37 30 20 27 26 25 26 22 23 24 23 22 13 10 8 6 2 -5 -4 15 25 35 20 33 24 33 59 69 64 73 78 76
56 60 87 119 104 107 106 108 104 71 51 56 54 42 42 36 32 35 28 30 34 31 34 21 16 16 16 12 5 2 19 17 47 57 32 25 40 77 92 79 75 72 72
54 38 45 73 71 73 82 70 78 72 61 74 79 76 49 26 25 33 34 43 43 50 49 41 37 35 34 25 17 14 24 21 45 50 36 61 77 114 99 77 71 72 78
67 31 31 22 18 46 62 83 80 70 77 97 89 81 56 49 30 24 24 48 59 66 68 61 58 52 52 39 33 29 30 29 72 72 65 103 149 130 122 114 92 81 77
88 69 40 42 3 45 68 66 78 82 87 100 95 72 55 57 47 56 69 59 68 70 70 71 62 57 58 62 53 56 46 52 90 99 99 137 157 124 130 112 88 84 78
106 137 127 84 36 93 115 83 69 85 78 90 81 59 54 71 94 95 100 91 103 94 81 74 67 54 55 61 71 83 71 90 110 120 113 140 142 130 118 105 88 89 87
84 109 124 153 129 105 133 85 78 77 76 59 81 66 58 81 126 134 90 100 96 110 104 80 67 69 73 73 87 99 95 106 146 162 160 169 159 148 133 109 93 94 91
84 74 78 118 122 138 118 110 90 95 77 74 71 95 89 73 124 134 128 119 105 91 97 97 98 85 94 109 98 102 111 111 144 167 179 179 173 161 141 121 100 96 96
92 101 62 57 103 132 144 114 109 124 111 107 97 85 104 105 113 138 162 165 137 119 89 98 85 119 143 141 132 128 128 132 158 179 194 195 178 161 148 129 114 98 96
93 134 128 103 86 88 141 106 101 84 113 118 103 123 108 117 148 155 169 166 179 172 179 172 159 159 177 183 172 141 142 145 181 178 190 204 189 171 145 130 124 110 101
111 101 109 124 110 71 82 120 99 103 103 120 132 126 127 144 148 180 188 165 182 180 184 194 190 222 229 229 199 182 167 169 167 235 218 222 196 190 173 140 149 149 114
233 262 242 170 126 119 98 93 107 114 113 125 148 156 174 146 202 192 186 223 233 232 202 226 226 242 259 260 241 209 192 186 197 207 255 237 226 215 190 188 192 198 145
269 278 270 245 268 236 221 204 186 164 147 138 128 119 164 178 188 210 242 232 278 280 250 234 243 237 251 335 325 267 241 203 204 203 229 288 275 254 237 231 234 237 206
198 212 214 208 201 214 222 239 233 216 214 199 168 147 138 179 188 241 226 289 319 320 304 291 312 331 306 386 376 340 273 270 237 221 250 261 306 332 286 258 263 248 237
177 143 148 167 161 134 143 170 212 241 244 230 232 196 155 140 145 170 204 253 273 340 336 333 335 362 342 419 417 380 300 262 229 247 238 285 297 356 370 318 278 260 247
64 129 159 181 195 182 145 113 107 127 149 159 156 166 156 138 119 114 137 174 230 254 304 343 366 377 472 442 502 383 427 326 251 214 211 224 276 281 321 360 304 268 247
114 134 149 164 180 177 166 157 146 129 100 99 130 143 115 139 133 111 99 128 174 234 228 259 350 318 397 437 492 510 467 473 409 344 242 257 266 293 282 302 345 315 310
119 129 137 141 140 157 144 153 158 152 143 133 118 119 117 109 123 116 148 166 162 159 179 209 198 255 295 368 478 454 462 433 358 388 349 296 265 265 281 312 350 354 391

GFSSE_con_3kmhel_048.txt.gz
Helicity
1 1 12 24 22 13 22 37 47 54 58 70 72 67 54 43 32 25 23 38 37 34 28 25 35 28 42 48 59 69 77 84 80 52 45 54 60 48 42 38 28 16 28
32 13 22 28 27 9 12 29 50 55 60 68 60 47 39 35 22 16 17 22 36 25 19 22 18 20 29 46 61 77 93 89 68 46 46 41 30 32 35 31 19 17 26
59 32 22 34 24 14 16 24 29 53 61 65 57 34 24 18 9 8 9 7 45 28 21 22 17 11 13 34 59 81 79 52 45 38 35 15 11 30 26 20 24 23 19
78 49 30 41 28 27 21 15 16 22 55 49 28 14 15 6 4 19 22 52 53 32 26 21 11 7 8 16 38 47 36 17 -11 -18 -4 7 18 27 19 14 16 22 18
85 80 46 52 47 29 22 20 11 26 26 28 20 17 11 14 20 47 48 62 45 32 26 17 7 2 -3 0 13 24 19 3 4 16 6 -7 4 28 48 58 42 36 56
99 83 66 60 57 43 30 36 36 40 3 -21 6 10 12 28 43 49 65 53 31 21 21 13 4 -3 -9 -8 2 11 12 23 33 1 1 11 9 50 60 69 88 102 89
104 81 60 75 69 50 42 36 58 42 33 -9 -24 -4 12 32 45 41 40 33 25 22 18 13 3 -6 -12 -16 -11 2 4 11 22 10 15 19 22 58 82 82 84 92 88
96 107 95 89 58 48 62 45 63 63 57 31 -6 -27 -6 21 23 28 31 33 28 26 21 15 6 -3 -10 -9 -4 1 11 51 36 29 23 21 34 60 62 70 72 77 83
96 100 104 85 66 74 76 71 67 70 78 61 30 13 -3 -9 3 10 18 26 28 28 24 17 9 2 -5 -9 2 11 43 52 47 35 39 28 30 57 64 61 64 70 71
104 99 86 105 125 96 80 73 76 80 78 60 55 48 40 20 7 16 11 11 21 25 24 22 17 10 4 2 11 26 42 65 57 52 48 31 37 80 81 75 60 60 65
65 51 66 96 112 102 93 95 91 83 81 65 65 62 46 26 28 27 18 23 22 21 27 24 23 20 18 13 15 33 48 56 54 48 39 22 79 121 104 87 69 74 75
36 9 53 84 82 86 77 81 73 77 88 92 87 68 64 51 33 36 34 32 24 26 30 23 28 32 39 30 27 24 49 63 64 58 53 54 101 118 107 104 84 82 76
8 29 18 29 37 55 61 69 62 70 93 104 94 75 64 65 55 55 47 40 49 53 53 46 39 39 45 52 48 43 47 67 71 60 70 104 137 145 133 119 101 86 78
61 40 10 -5 26 22 52 63 58 83 99 113 96 73 83 76 72 62 55 61 72 79 84 83 75 68 58 52 53 48 49 74 80 84 81 116 119 123 111 106 101 91 84
88 84 80 56 57 38 49 68 71 75 90 87 99 75 92 84 83 84 68 78 79 100 98 93 86 83 80 74 82 79 66 94 94 112 115 116 135 123 116 103 96 88 85
75 79 99 110 108 120 79 80 85 86 75 94 80 63 64 91 100 108 98 87 81 103 101 99 97 93 83 99 99 103 92 113 111 127 136 141 142 139 123 110 102 92 86
71 76 97 109 133 166 127 103 111 97 98 96 79 84 78 94 120 134 141 132 112 114 115 105 96 110 102 104 109 120 134 121 129 134 151 160 161 152 138 116 110 100 95
78 61 63 104 139 161 175 162 144 138 131 96 88 87 106 98 133 156 158 175 163 160 152 153 129 124 125 134 133 129 144 149 144 150 170 175 180 181 157 124 118 107 96
69 87 98 108 108 111 119 139 142 130 147 127 122 113 83 114 149 168 171 185 217 205 203 199 177 194 191 175 165 161 161 166 161 180 186 196 196 200 197 138 130 123 115
171 160 140 113 109 115 132 124 112 117 98 122 141 138 132 125 133 158 182 189 230 237 219 240 218 238 235 230 225 200 185 172 185 198 213 213 224 225 217 188 175 167 159
250 269 280 240 219 164 167 152 132 103 101 105 134 131 164 169 168 192 187 183 230 237 232 237 251 237 236 265 294 259 239 182 176 221 237 250 250 245 244 221 213 215 206
231 220 224 232 234 220 201 187 199 182 141 117 106 123 147 152 162 194 202 216 245 228 245 250 286 285 285 332 351 351 283 249 236 243 296 287 281 306 289 274 254 228 226
201 196 193 196 188 179 191 219 231 224 214 204 171 130 108 125 137 163 173 194 196 223 254 300 301 317 245 327 376 360 302 266 227 185 202 280 305 337 321 329 295 267 223
156 153 166 183 199 212 200 191 183 179 183 185 184 172 145 125 125 137 145 163 172 208 232 263 285 287 316 290 314 279 367 328 269 209 186 168 208 242 299 340 322 296 266
142 136 150 182 217 218 205 182 161 161 140 131 132 146 151 147 124 117 131 123 162 193 211 217 264 292 318 267 366 331 353 415 401 352 237 249 206 185 240 261 277 289 313
153 165 181 194 197 186 173 169 158 150 147 145 143 141 140 117 123 149 126 124 131 158 189 177 185 225 245 264 319 310 342 329 283 366 379 315 248 192 192 238 257 296 327

GFSSE_con_3kmhel_051.txt.gz
Helicity
-53 -34 -3 6 10 4 20 34 52 66 77 90 89 73 60 45 39 36 43 41 29 29 25 29 22 39 61 76 94 96 83 73 60 46 41 51 41 39 38 30 14 7 -2
7 -12 2 5 9 -1 1 4 28 50 68 73 62 49 43 37 31 28 33 29 27 16 17 13 13 21 37 56 66 62 57 58 55 52 43 27 23 32 34 22 13 15 47
35 1 -3 7 10 3 10 5 14 46 57 74 59 42 38 29 27 25 18 34 26 20 17 8 -0 5 26 46 54 57 52 52 45 37 28 9 11 25 21 20 16 16 13
48 17 13 22 17 31 24 13 3 32 71 66 50 37 28 21 19 27 29 49 28 20 15 5 -0 3 18 37 38 26 14 2 -10 -4 6 5 -0 14 11 14 16 21 5
71 46 35 45 45 35 26 14 12 39 6 18 21 17 13 -1 43 42 59 53 27 19 14 4 -4 -4 7 15 8 3 -8 -12 -5 -4 -5 -5 -0 14 38 31 27 24 69
109 66 58 56 48 36 23 16 39 32 -3 -28 -30 -0 14 36 48 55 67 42 16 14 8 -2 -7 -9 -6 4 -2 -4 -18 17 21 -0 -12 4 17 43 61 69 69 67 68
112 83 75 77 57 44 29 51 52 36 14 -9 -36 -25 -0 24 34 50 53 20 9 7 3 -1 -8 -14 -16 -8 -6 2 4 37 12 -4 1 14 22 68 72 73 72 64 59
104 105 84 69 54 49 43 51 51 43 30 20 -2 -21 -23 -20 12 16 20 9 2 -1 -2 -5 -15 -24 -31 -23 -14 -20 18 55 24 11 13 20 35 60 55 51 57 62 63
104 90 82 64 49 47 45 45 56 61 46 36 31 24 -8 -23 -32 -7 7 1 -2 -1 -1 -7 -13 -18 -19 -17 -2 3 31 38 32 17 17 19 24 43 46 37 43 52 57
95 83 78 65 51 56 59 51 72 78 64 51 44 37 37 34 -4 -0 2 1 5 8 3 -3 -8 -12 -10 -3 7 34 32 36 42 32 26 17 9 66 77 64 32 42 52
106 82 79 78 83 85 67 51 77 91 75 66 52 56 52 21 13 34 33 29 29 35 26 13 4 1 7 16 15 32 41 34 38 34 34 16 15 97 92 83 49 51 52
48 43 59 80 93 103 108 104 98 93 86 83 78 58 58 52 46 43 30 29 27 32 48 36 30 31 38 33 30 40 47 41 45 38 33 15 35 93 110 101 80 66 59
23 27 16 45 67 87 86 82 85 88 89 87 84 72 59 62 60 58 52 43 40 41 54 50 50 52 53 57 56 53 60 53 57 55 41 29 57 122 140 121 86 75 66
47 11 16 25 36 41 60 57 60 79 87 97 85 86 87 71 60 59 55 47 50 60 67 69 69 66 61 59 62 58 73 73 73 72 66 65 102 113 96 98 97 80 73
55 23 9 28 14 21 32 35 45 63 91 97 95 90 94 83 66 67 54 56 49 67 72 79 78 79 73 68 71 72 77 85 84 89 92 74 91 108 104 95 94 89 72
70 56 34 36 31 56 44 39 38 68 80 93 86 83 90 94 82 82 68 70 65 71 76 92 99 96 86 89 76 80 76 94 95 92 105 106 92 110 106 89 82 80 75
90 93 82 68 77 95 82 74 73 70 90 90 71 70 83 107 98 98 91 91 85 94 88 91 87 94 89 93 86 79 78 90 102 105 119 129 121 109 115 82 72 71 78
91 94 106 113 124 139 123 111 112 101 114 103 102 94 76 87 117 128 125 119 125 138 143 134 121 124 120 119 123 101 107 101 108 111 136 145 149 151 130 106 90 75 71
35 51 84 116 150 150 151 146 145 132 135 119 123 119 98 98 116 136 151 155 179 176 182 174 158 179 160 156 154 147 147 135 131 143 150 164 171 180 183 142 116 113 103
71 64 62 93 106 119 147 158 162 147 133 127 125 126 125 134 136 154 151 154 189 192 188 219 196 218 212 192 179 179 172 173 164 182 173 171 195 210 221 203 174 163 129
205 177 151 136 145 136 151 140 131 117 135 140 125 112 126 148 143 177 177 182 221 213 196 214 242 224 206 244 242 210 198 185 178 212 238 234 231 245 255 246 231 209 179
211 203 207 204 206 189 169 155 149 139 132 133 124 114 121 124 136 151 154 164 202 222 221 237 270 258 259 274 254 276 211 187 203 206 263 262 256 291 265 271 270 243 215
206 203 203 204 211 209 200 186 189 197 199 170 144 123 114 110 122 140 149 169 164 201 210 215 244 257 212 260 282 247 225 197 188 175 158 162 185 246 249 258 250 258 244
191 192 184 191 200 214 209 207 207 192 178 172 173 168 152 146 133 139 141 157 176 212 220 203 206 209 233 209 276 237 303 301 227 195 204 216 145 148 203 235 223 237 255
187 195 203 205 213 199 211 202 193 200 197 182 168 170 176 172 175 173 147 134 144 178 170 179 205 199 222 180 252 266 244 316 336 294 163 194 216 159 142 152 168 225 225
220 208 202 199 209 212 201 192 165 152 151 152 142 134 137 144 160 182 174 143 122 140 148 154 168 175 177 174 194 226 238 219 209 220 207 194 215 192 190 180 202 223 231

GFSSE_con_3kmhel_054.txt.gz
Helicity
-88 -70 -23 -23 -18 -2 16 41 62 65 72 77 74 61 43 31 30 38 33 29 25 23 23 13 14 26 61 70 71 69 68 63 53 40 44 35 29 30 26 19 13 -3 1
-20 -56 -25 -24 -5 -3 -8 -2 28 44 50 52 48 32 31 28 31 28 24 23 17 13 10 4 12 19 31 40 43 43 38 32 30 29 20 8 14 28 24 17 12 13 40
35 -31 -36 -17 -10 2 -3 -7 -16 10 32 35 18 22 29 26 30 16 27 19 14 8 4 -4 -4 1 13 23 29 25 24 22 20 10 3 -11 -3 17 18 15 8 -5 4
32 2 -33 -10 -5 13 14 2 -11 -27 -0 9 16 26 21 22 22 20 32 21 8 4 -0 -5 -6 -5 4 9 2 -5 -11 -15 -13 -14 -18 -16 -21 13 12 3 11 30 1
58 15 -17 10 14 33 23 17 11 6 -28 -22 3 3 -1 8 25 23 38 13 3 -1 -8 -12 -14 -13 -14 -24 -31 -36 -41 -32 -20 -22 -24 -19 -19 -1 25 16 20 40 54
69 42 9 31 45 38 31 28 46 12 -26 -34 -32 -23 -21 23 21 44 35 5 -6 -11 -16 -17 -18 -24 -27 -36 -45 -49 -37 -10 -7 -24 -23 -13 -11 27 46 50 38 45 50
72 55 51 46 52 50 34 31 48 21 -3 -18 -32 -35 -35 20 24 23 18 -6 -13 -15 -18 -21 -20 -23 -27 -31 -39 -50 -10 1 -9 -19 -18 -9 -6 31 38 45 40 34 28
80 80 59 49 56 56 45 67 45 22 8 7 -3 -5 -29 -15 -6 6 9 -13 -20 -19 -19 -21 -21 -17 -16 -14 -16 -26 19 17 4 -6 -12 -5 3 16 27 20 36 39 37
107 94 92 60 60 57 64 63 46 26 13 15 12 19 25 13 -6 -15 -10 -15 -17 -12 -14 -17 -19 -16 -10 -10 -9 1 28 23 18 8 3 2 -5 16 31 23 20 27 39
99 93 68 68 68 62 52 37 43 49 31 31 31 29 26 15 28 45 17 -4 6 11 8 1 -8 -13 -6 6 9 18 28 32 28 20 13 8 -6 38 64 43 13 21 25
82 85 91 82 76 55 43 24 53 55 49 49 43 44 51 32 18 10 18 12 16 31 28 23 23 25 34 40 50 46 40 29 29 26 24 8 -0 57 99 80 54 45 39
85 81 81 86 87 95 81 81 86 78 61 67 61 55 53 47 44 45 32 25 18 25 32 32 32 35 46 43 46 52 46 40 35 32 29 7 -0 58 104 98 78 54 43
38 68 57 73 92 95 105 93 108 86 69 67 67 66 57 50 46 48 44 35 32 32 41 46 52 51 51 53 53 58 55 54 50 47 37 19 -0 85 130 100 76 68 52
39 32 33 36 51 62 85 83 87 82 71 67 63 73 71 60 50 47 47 42 41 47 48 55 60 55 50 52 57 59 58 60 57 56 54 35 28 98 91 69 68 67 57
51 33 26 34 30 40 53 60 58 56 67 67 73 77 86 71 58 56 44 44 44 50 52 55 61 64 62 63 61 61 58 63 61 64 66 49 53 75 82 79 70 65 60
48 32 33 25 28 41 39 41 41 54 60 75 82 87 94 81 70 69 60 51 49 62 66 69 72 71 66 70 58 58 57 69 70 69 76 67 54 72 88 78 70 54 46
59 44 52 48 47 54 53 52 55 55 68 76 81 90 96 90 74 78 81 72 64 73 73 79 78 84 80 81 67 62 70 68 75 76 80 89 83 72 82 72 67 56 43
74 55 67 71 78 90 87 84 87 87 96 92 88 92 94 95 90 87 84 82 93 104 110 108 106 101 101 108 114 92 97 95 92 95 101 101 112 113 106 96 84 73 62
71 84 85 94 100 95 101 112 116 107 112 109 109 105 95 108 112 120 118 110 122 126 137 138 131 146 133 140 145 132 120 119 116 128 127 125 126 142 151 125 106 104 98
57 64 78 93 113 116 124 126 120 114 110 115 109 112 102 110 131 149 142 143 170 163 147 172 157 176 176 172 171 151 136 133 132 139 148 168 179 179 181 177 161 147 121
101 88 85 91 106 133 147 146 131 129 133 120 115 109 115 114 112 134 145 155 184 175 164 189 207 185 185 222 205 168 171 152 162 170 196 180 187 206 207 206 199 192 173
130 144 159 153 144 143 165 165 156 134 125 129 118 116 115 126 132 146 150 144 158 168 174 183 225 208 206 236 227 219 163 129 112 112 153 167 161 193 195 196 198 189 184
161 183 197 196 182 176 163 172 178 171 161 153 153 148 158 146 136 141 143 151 160 177 163 170 210 205 181 197 228 212 188 159 151 128 116 111 110 130 144 155 165 166 175
157 185 198 198 194 186 177 162 150 141 138 150 147 153 160 172 160 145 132 136 143 169 177 169 184 195 211 174 212 172 207 245 174 175 186 157 137 104 106 104 124 147 154
172 178 188 194 206 203 194 174 157 152 150 149 153 164 156 152 160 168 175 159 138 143 141 160 175 177 207 195 216 210 164 206 198 190 148 155 159 129 107 108 106 124 154
243 225 208 203 200 191 178 178 165 156 152 144 133 125 128 132 147 164 163 153 136 123 121 125 145 164 178 172 182 193 186 153 138 148 136 141 152 143 157 142 139 137 139

GFSSE_con_3kmhel_057.txt.gz
Helicity
-114 -74 -74 -35 -16 7 36 41 55 58 56 50 42 31 15 8 14 14 16 10 6 -1 -13 -14 9 31 36 50 64 48 36 30 24 24 18 11 15 15 10 2 -3 -4 16
-57 -72 -62 -50 -29 -18 1 21 40 49 37 31 18 7 -2 4 5 7 8 2 -2 -7 -21 -20 -18 6 18 24 18 11 10 11 11 6 -2 -6 -0 13 11 -1 -8 20 14
2 -60 -50 -36 -29 -28 -17 -14 -12 1 4 -9 -18 -15 -13 2 5 10 5 -3 -7 -7 -16 -18 -20 -11 -5 1 -1 -6 -6 -8 -9 -12 -17 -9 -2 2 2 1 -12 -9 7
6 -36 -40 -23 -21 -22 -12 -16 -29 -23 -26 -38 -40 -28 -17 -3 3 12 -0 -9 -12 -12 -16 -18 -22 -21 -19 -24 -29 -29 -30 -26 -29 -30 -26 -24 -17 -0 -8 -0 21 5 3
15 -22 -30 -13 -13 -2 -9 -8 -18 -28 -58 -65 -49 -34 -12 -7 -4 15 -4 -13 -14 -15 -22 -25 -28 -32 -37 -41 -44 -43 -31 -19 -23 -26 -16 -12 -15 9 7 8 8 43 15
31 7 -20 8 24 10 -1 6 13 -20 -45 -59 -53 -27 -21 -2 1 18 1 -14 -13 -16 -22 -25 -31 -37 -41 -46 -52 -50 -23 -15 -30 -29 -22 -17 -10 16 24 18 32 31 44
56 31 9 30 40 29 16 37 23 2 -21 -40 -56 -80 -0 -1 27 14 -1 -17 -18 -17 -20 -23 -27 -34 -40 -42 -46 -34 -11 -11 -21 -19 -17 -13 -7 -2 -5 -4 12 14 15
73 51 39 51 45 48 39 49 26 1 -12 -17 -33 -39 -33 -14 -5 -0 -13 -21 -18 -16 -16 -18 -21 -26 -31 -31 -37 -16 3 -3 -11 -9 -6 -3 -15 8 15 14 11 16 21
80 74 66 52 50 52 61 60 34 5 -5 -8 -8 -4 -13 5 -0 -12 -26 -18 -12 -7 -10 -12 -15 -16 -13 -11 -9 8 13 7 2 4 7 6 -9 16 37 28 18 19 19
99 87 71 65 59 55 53 60 37 33 23 14 15 11 15 15 9 18 2 -5 1 7 7 7 8 13 20 30 38 36 35 26 17 18 17 13 -10 20 65 53 40 31 29
123 114 104 88 66 55 44 37 56 50 48 40 35 36 33 22 25 23 11 5 13 22 21 19 16 24 32 35 38 39 33 25 21 21 19 10 -7 15 62 80 66 50 41
107 124 115 96 82 66 49 48 70 64 55 54 49 45 40 33 32 31 28 26 23 23 26 24 28 41 39 40 38 38 38 39 34 30 31 13 -4 4 76 105 77 57 49
42 63 70 85 90 85 72 75 83 83 67 59 61 56 49 43 39 38 38 40 37 35 34 37 41 40 44 47 47 43 40 43 42 39 32 14 14 25 123 97 66 53 47
48 59 71 72 79 90 97 82 96 94 68 57 57 55 55 49 44 43 46 43 40 39 36 37 39 41 47 52 54 50 47 45 44 47 39 23 23 40 93 70 58 54 51
31 33 39 52 57 64 66 75 76 70 57 50 49 49 52 51 47 48 45 43 41 40 40 44 48 51 53 56 54 53 52 50 45 50 49 34 32 36 60 75 69 52 52
25 26 23 27 30 34 42 48 52 52 50 50 48 51 53 53 52 51 47 46 44 48 50 53 54 55 56 59 52 57 58 56 54 52 53 49 41 46 57 66 68 60 48
27 42 33 29 28 32 34 41 49 46 48 45 51 51 52 60 56 51 50 49 51 55 50 55 58 65 69 71 63 64 71 65 65 61 61 62 59 51 52 54 53 63 53
32 43 38 37 34 32 38 46 51 54 55 55 61 65 53 54 56 55 56 52 54 59 65 71 78 82 83 85 85 81 84 81 72 72 79 78 81 81 77 64 57 56 58
31 44 51 49 42 41 53 70 70 70 72 72 79 78 68 67 63 68 69 65 69 80 85 89 92 97 93 99 101 83 93 95 85 87 79 90 91 91 94 89 87 81 78
42 31 40 52 54 69 85 86 85 81 74 72 74 75 65 72 69 76 74 73 89 100 99 111 111 116 116 106 109 112 114 105 104 101 88 99 107 90 89 88 92 94 89
68 58 41 55 58 82 105 106 99 91 85 79 81 74 75 74 73 78 79 78 95 101 90 100 112 117 123 145 140 121 106 96 103 108 98 101 83 95 87 93 105 111 108
98 94 97 79 93 99 114 123 124 106 95 98 92 77 74 78 84 99 103 102 101 111 100 102 124 148 153 165 171 182 132 110 111 83 80 92 95 104 106 101 96 98 91
83 104 125 130 134 142 133 150 149 145 128 114 116 116 136 142 129 119 109 108 108 126 133 123 135 143 155 174 153 181 178 145 120 117 88 86 83 83 75 86 53 75 99
125 141 157 174 180 187 166 154 138 132 124 125 126 130 135 151 158 167 155 148 138 144 148 145 149 153 174 179 201 170 172 200 153 161 174 114 100 87 80 79 85 95 98
140 155 183 200 208 201 188 165 149 144 140 133 132 141 157 177 192 197 190 183 166 157 143 138 136 154 176 181 203 203 164 188 187 175 168 125 133 130 103 93 97 100 119
178 178 181 192 207 190 176 171 153 136 131 132 135 138 148 145 146 170 170 168 162 149 134 126 119 133 152 163 179 203 230 216 181 190 168 124 128 127 130 114 122 144 152

GFSSE_con_3kmhel_060.txt.gz
Helicity
-74 -48 -59 -31 -27 -6 21 29 35 39 34 27 13 0 -12 -10 -2 3 -7 -13 -23 -26 -23 1 30 36 33 43 39 30 22 19 17 14 7 0 4 0 -9 -14 -21 22 11
-43 -44 -48 -41 -37 -26 -8 9 34 23 19 7 -7 -16 -25 0 0 -4 -11 -16 -19 -23 -22 -7 5 11 23 20 8 4 11 12 4 -5 -22 0 -6 0 -7 -25 -13 9 3
-15 -37 -57 -37 -47 -48 -30 -12 6 5 -3 -18 -30 -31 -27 -8 -8 -9 -15 -16 -21 -24 -23 -20 -8 0 0 -5 -9 -6 -4 -6 -16 -21 -31 -14 -2 -12 -2 14 1 0 -1
-12 -23 -42 -37 -37 -36 -27 -35 -36 -24 -33 -41 -48 -53 -39 -16 -10 -12 -15 -15 -17 -20 -24 -27 -20 -15 -21 -22 -26 -24 -20 -20 -32 -35 -21 -20 0 -10 3 8 15 9 2
-28 -18 -16 -24 -20 0 -20 -39 -45 -65 -62 -58 -65 -68 -48 -28 -6 -13 -21 -21 -21 -24 -26 -26 -25 -29 -27 -30 -33 -22 -17 -25 -41 -32 -17 -18 -4 3 11 24 23 27 6
-21 -21 12 -14 -4 4 -4 -9 -29 -58 -96 -100 -78 -57 -46 -38 2 -7 -18 -21 -22 -25 -25 -26 -29 -30 -35 -37 -38 -23 -16 -32 -44 -21 -15 -9 -7 -6 -1 2 11 12 10
7 0 -6 -1 18 6 5 16 -15 -42 -69 -94 -81 -61 -32 -24 6 -2 -18 -25 -24 -28 -30 -31 -31 -29 -32 -31 -32 -13 -15 -32 -25 -12 -11 -11 -5 -2 0 1 3 7 7
45 31 22 29 34 17 34 24 1 -19 -41 -68 -87 -40 -41 -8 -3 -17 -27 -25 -20 -18 -17 -19 -22 -24 -25 -25 -22 1 -7 -28 -7 -4 -2 -1 -1 17 25 16 7 4 4
59 49 41 32 38 45 51 33 16 -1 -20 -32 -28 -10 -8 -12 -13 -7 -17 -23 -16 -16 -17 -17 -16 -18 -18 -14 -10 9 4 -14 -9 4 0 3 18 35 41 31 21 15 13
63 53 61 55 43 38 36 52 32 23 11 0 12 28 28 20 5 3 -13 -18 -13 -5 0 0 2 4 4 6 10 13 12 8 10 11 13 18 -4 13 53 53 38 34 29
79 70 66 65 58 45 45 48 43 52 45 42 39 45 26 10 8 5 16 5 1 2 10 14 22 29 27 27 23 22 8 23 22 22 22 48 11 4 53 77 66 49 41
89 97 89 81 76 67 68 58 60 48 42 50 47 42 34 36 28 18 33 29 25 26 31 28 35 39 21 26 38 36 29 35 35 33 30 37 23 14 26 88 68 54 49
55 95 104 102 94 78 65 64 87 63 58 63 62 62 60 52 44 36 43 41 39 40 36 38 48 38 40 41 47 44 45 47 47 47 50 42 31 32 95 86 68 58 49
31 44 73 84 80 80 83 67 56 54 62 64 61 58 60 59 56 52 47 48 45 47 49 46 51 48 46 45 44 45 50 52 53 58 63 64 46 45 63 72 69 59 53
66 42 49 58 64 81 74 72 62 48 55 57 54 47 50 51 54 50 46 43 43 49 50 54 49 48 50 53 53 54 54 52 53 64 62 87 52 48 48 52 74 61 54
109 43 47 53 54 64 65 57 59 52 44 46 45 45 42 49 52 54 52 47 46 51 59 60 62 62 60 58 55 56 56 61 58 60 63 64 73 47 43 51 55 61 51
74 45 34 40 43 41 39 49 47 44 44 46 49 44 44 48 52 56 56 55 57 62 60 61 58 59 61 62 59 65 73 71 71 66 69 69 73 70 53 48 46 48 51
57 39 34 47 39 32 37 44 44 44 50 57 55 52 51 50 49 58 61 63 70 70 66 61 64 68 67 69 73 82 88 77 65 67 75 79 74 71 82 69 51 43 43
63 52 37 35 37 34 40 43 45 53 62 67 69 68 61 57 57 60 64 68 72 77 77 80 83 85 88 91 90 88 91 85 78 89 83 84 76 84 83 92 87 62 52
73 48 51 43 31 36 42 45 57 62 62 65 70 72 69 70 65 69 71 67 75 81 83 88 88 97 99 101 99 92 96 91 94 95 88 93 88 80 77 80 93 87 87
78 64 54 47 40 58 71 72 71 71 71 78 81 77 80 80 81 78 79 78 81 86 84 90 100 102 106 109 132 119 99 104 100 101 86 84 91 84 72 86 97 93 93
116 88 68 47 41 44 62 72 85 90 89 85 96 84 83 83 84 91 88 89 87 94 88 93 104 117 118 134 155 163 159 118 122 101 87 80 72 75 83 77 81 78 79
113 108 102 88 71 78 83 116 120 124 119 111 100 107 119 119 109 107 104 107 109 131 131 126 138 133 171 162 133 190 187 138 194 151 106 94 80 92 99 88 92 91 93
124 120 98 103 110 121 117 121 107 105 105 122 132 127 123 129 128 130 127 132 141 152 146 135 147 155 172 185 223 173 177 235 203 191 142 100 122 115 97 88 76 70 91
115 88 101 128 133 149 155 154 140 130 131 124 119 115 121 125 141 149 161 161 156 152 139 134 129 142 162 175 195 211 181 194 176 197 182 155 146 135 111 101 105 108 124
66 89 113 140 157 162 162 159 148 128 118 114 115 117 125 137 149 172 174 164 154 144 129 126 121 120 133 140 158 181 223 224 200 190 185 158 152 135 139 149 159 143 147

GFSSE_con_3kmhel_063.txt.gz
Helicity
-18 8 -20 -20 -10 7 -3 6 14 15 6 -4 -11 -20 -21 -15 -1 -5 -14 -21 -18 -12 11 22 40 43 44 41 27 23 21 14 8 6 8 5 6 1 -15 -20 4 19 17
-4 -10 -31 -35 -33 -19 -8 -2 3 7 1 -8 -21 -26 -11 5 0 -7 -15 -18 -14 -15 7 15 20 25 24 16 14 16 11 3 -12 -15 -9 1 0 12 -8 -6 12 7 8
4 -14 -51 -46 -48 -45 -26 -6 8 3 -4 -16 -34 -33 -3 -2 -5 -10 -13 -17 -15 -10 -2 8 8 6 4 2 -1 3 -3 -18 -32 -28 11 8 3 1 15 5 6 7 2
9 -13 -49 -56 -46 -47 -29 -16 -6 -9 -20 -29 -41 -45 -10 -13 -13 -17 -15 -17 -18 -17 -12 -11 -13 -14 -13 -17 -18 -9 -10 -34 -21 5 -10 0 11 11 21 25 18 9 11
5 -17 -2 -51 -35 -8 -15 -36 -42 -36 -34 -40 -47 -56 -34 -17 -12 -20 -19 -21 -24 -27 -29 -27 -28 -27 -23 -26 -21 -14 -21 -39 -30 -26 -23 -3 -6 -6 3 20 24 20 28
11 3 13 -27 -18 -7 -8 -24 -54 -79 -78 -55 -52 -56 -50 -6 -10 -15 -17 -20 -25 -28 -31 -29 -31 -34 -30 -28 -16 -15 -28 -55 -43 -28 3 11 -9 -10 -10 4 15 15 13
19 38 10 7 -10 -20 -6 -11 -37 -66 -90 -94 -67 -59 -57 1 -9 -14 -18 -22 -23 -25 -26 -27 -27 -26 -21 -18 -6 -13 -24 -37 -25 -16 -8 -2 3 7 7 12 11 8 10
39 9 29 24 9 -13 -6 -6 -17 -33 -50 -73 -102 -79 -49 -7 -11 -24 -16 -16 -15 -15 -17 -18 -23 -23 -20 -18 -12 -13 -27 -47 -13 -1 2 29 14 24 27 25 22 16 15
49 25 23 32 27 18 9 6 1 -4 -12 -28 -3 -29 -14 -12 -13 -12 -12 -15 -14 -15 -18 -18 -21 -20 -16 -9 -1 1 -11 -27 -14 10 8 45 35 39 42 44 35 28 23
69 50 28 42 36 22 19 24 22 23 24 11 27 26 29 25 16 13 -1 -6 -5 -1 0 5 4 5 7 12 19 19 9 0 14 23 32 45 39 40 57 63 60 46 40
140 63 59 48 59 41 44 47 38 48 53 37 32 34 12 1 3 9 38 30 10 7 8 11 19 25 24 32 36 30 16 30 40 41 49 65 37 30 59 75 72 59 52
112 79 77 96 82 73 66 55 46 52 44 32 29 36 12 40 49 58 71 51 35 33 33 31 36 31 21 31 54 46 34 48 52 55 78 83 53 40 44 89 72 62 60
106 103 112 75 89 120 93 54 79 67 72 63 53 48 59 62 64 51 59 51 45 44 43 47 49 27 43 44 50 41 55 57 58 69 94 100 72 63 71 78 75 69 64
67 50 76 83 97 81 122 88 69 80 64 63 68 64 71 71 69 71 66 66 59 67 50 56 49 53 51 48 45 53 57 58 60 75 85 106 84 73 72 77 86 77 69
119 95 83 98 96 97 100 103 77 48 66 70 79 68 66 71 77 71 68 66 62 62 62 61 59 55 52 53 53 53 51 51 54 72 72 107 90 66 58 55 69 81 73
107 80 71 68 74 82 104 112 81 65 71 68 72 65 54 59 62 64 72 71 65 64 63 63 64 67 68 64 57 55 58 59 63 70 76 81 92 79 62 59 64 75 77
99 87 71 55 67 88 92 104 84 81 84 70 60 53 48 53 56 62 65 73 74 70 66 71 69 68 65 65 59 63 77 76 77 77 78 78 100 98 93 74 67 63 63
105 95 96 97 74 75 79 94 94 88 72 60 55 51 47 49 57 66 70 74 75 78 76 75 72 73 73 77 81 85 92 89 76 77 82 88 109 106 122 91 85 68 59
103 86 77 73 65 60 64 79 73 58 62 57 51 53 54 53 62 74 78 83 83 85 80 77 80 80 92 90 95 95 109 110 99 104 84 93 104 136 133 124 112 105 93
87 74 69 72 57 51 59 64 62 53 49 43 49 58 62 71 76 85 91 90 95 104 94 89 88 100 112 115 118 115 115 120 118 117 101 118 131 136 147 112 133 112 96
119 79 69 64 56 69 78 72 60 74 62 58 65 73 91 89 94 98 101 102 104 100 92 89 103 117 124 106 117 125 99 97 104 116 130 112 112 133 92 92 94 97 111
133 105 75 58 59 62 78 76 63 55 72 74 92 93 90 94 102 110 104 105 118 123 97 100 111 146 155 160 189 158 154 121 125 160 181 142 118 115 120 99 103 101 111
159 146 108 97 96 77 67 78 103 134 144 148 122 105 110 129 129 150 154 151 142 158 159 163 183 187 180 190 172 201 196 182 191 217 210 165 104 115 145 156 125 125 119
152 168 154 107 87 91 90 102 112 110 120 110 146 167 153 129 133 136 127 120 125 142 157 157 154 161 179 177 207 200 199 242 212 223 199 150 112 131 125 135 122 114 121
147 161 124 146 133 121 115 112 118 129 151 204 161 136 121 114 130 137 139 150 146 156 158 153 143 137 155 169 174 183 174 173 184 216 208 180 137 153 137 112 98 139 168
165 145 104 120 159 125 116 119 124 143 166 164 148 128 119 119 116 132 148 150 156 146 141 137 134 131 124 126 135 150 172 204 198 233 220 190 193 179 179 131 159 152 143

GFSSE_con_3kmhel_066.txt.gz
Helicity
48 66 27 12 15 5 11 1 1 5 -3 -9 -8 -12 2 5 -2 -4 0 6 12 22 44 43 43 38 40 36 29 17 5 0 5 11 16 8 11 4 10 8 20 0 16
66 29 10 -5 1 2 -2 0 0 5 -4 -13 -17 -2 8 4 0 0 1 9 16 19 23 29 30 29 19 15 12 2 -18 -16 4 2 -6 -1 10 13 7 16 9 7 6
40 2 -30 -30 -20 -10 -4 1 3 -2 -11 -20 -3 4 3 3 1 0 4 8 5 27 29 24 15 7 4 -2 -6 -21 -29 -24 -5 25 12 -42 1 24 18 13 6 9 11
35 -20 -55 -58 -47 -28 1 11 -3 -12 -22 -24 -15 -4 -1 1 -4 0 -3 -6 -6 2 10 -1 -4 -7 -17 -20 -18 -34 -34 -40 -38 -26 11 -3 -11 6 22 17 17 26 26
24 -36 -42 -63 -52 -25 -18 -16 -15 -22 -29 -33 -27 -16 -10 -2 -12 -10 -12 -17 -18 -19 -14 -15 -18 -17 -22 -26 -27 -36 -27 -11 -45 -5 -16 -8 -12 -9 5 13 7 14 18
0 71 7 -37 -32 -25 -37 -49 -49 -42 -40 -37 -36 -27 -2 -10 -16 -15 -17 -20 -19 -17 -18 -18 -22 -19 -18 -16 -20 -28 -16 3 -17 -14 4 36 -2 11 16 23 18 20 27
121 81 33 -6 -15 -30 -34 -42 -62 -75 -78 -57 -44 -34 0 -17 -16 -15 -17 -19 -16 -11 -11 -11 -16 -17 -16 -14 -18 -29 -35 -13 -20 -4 0 4 12 28 30 28 24 25 29
93 60 40 14 -1 -19 -23 -28 -43 -62 -73 -84 -93 -67 -7 -29 -26 -17 -15 -12 -8 -7 -6 -12 -18 -21 -19 -17 -14 -21 -27 -21 -5 2 44 29 40 42 45 46 39 38 37
22 49 76 37 15 -1 -9 -8 -17 -23 -28 -34 -78 -80 -24 -32 -24 -17 -16 -13 -11 -7 -6 -5 -12 -11 -6 2 7 -2 -9 -6 13 25 55 40 47 54 57 55 55 54 54
49 15 65 53 36 10 5 6 9 15 10 25 25 29 10 23 14 -1 -7 -8 -3 5 8 12 11 12 17 25 27 19 8 2 17 44 78 52 57 51 64 67 64 61 66
83 42 87 29 25 29 37 27 28 37 31 32 30 17 11 2 4 10 20 21 17 15 20 22 24 24 26 36 46 37 21 35 51 64 80 86 70 53 62 78 76 70 68
149 85 70 84 68 71 69 41 15 37 29 19 25 16 -11 15 43 78 63 55 44 41 43 39 39 37 29 41 50 41 45 41 63 73 90 98 85 67 58 65 84 78 74
161 90 117 100 84 113 96 57 55 44 51 51 37 30 24 87 72 64 61 61 55 47 44 47 40 27 29 43 56 45 51 62 56 67 102 106 90 70 59 95 92 84 81
146 107 96 100 112 116 107 83 77 69 58 49 64 41 100 84 73 57 74 52 49 63 38 54 63 32 50 52 47 50 56 65 61 64 94 107 93 75 65 81 87 90 86
137 110 90 106 114 122 124 84 84 59 47 37 94 80 82 82 78 51 62 78 61 64 54 63 58 61 65 50 57 66 61 55 55 67 100 107 93 83 73 59 76 88 88
177 196 158 119 106 103 119 120 97 66 25 83 109 83 80 83 69 55 61 73 72 77 72 69 65 63 64 70 60 57 64 76 78 80 90 105 95 83 85 75 62 84 93
104 137 129 132 117 142 165 137 111 82 105 86 119 91 84 70 61 57 59 72 68 75 75 72 77 80 80 69 65 65 70 77 90 96 107 115 117 101 98 97 81 75 69
104 112 108 126 99 107 144 127 102 123 148 152 126 99 86 69 55 57 68 65 78 85 94 89 85 81 78 78 78 72 87 101 110 89 102 122 144 153 119 103 97 89 78
118 122 116 109 107 99 100 109 115 141 152 118 100 88 75 68 62 72 71 75 84 99 108 102 88 96 97 99 96 105 106 112 130 129 128 125 130 162 199 156 104 106 91
86 127 135 142 125 114 127 157 141 125 98 73 62 72 75 78 72 94 89 92 103 102 106 106 107 108 112 112 109 118 116 96 129 142 115 101 129 134 167 143 125 108 81
98 119 129 145 120 125 121 129 109 89 82 68 49 64 86 97 95 112 114 105 116 125 117 112 119 116 124 123 132 130 126 122 125 120 126 139 110 120 134 137 115 105 100
107 119 132 141 133 123 127 120 114 100 75 72 61 92 110 111 125 142 133 119 134 147 124 121 135 140 152 158 173 163 161 152 116 107 136 185 182 170 150 137 119 130 123
124 129 141 138 133 130 128 130 116 146 136 125 126 134 127 124 158 171 176 161 156 151 141 147 163 167 160 175 189 225 199 185 189 164 181 211 189 154 166 189 165 168 176
129 182 198 213 171 142 129 135 150 151 157 126 132 173 201 179 170 184 174 166 150 150 146 143 150 167 182 191 191 198 195 214 193 202 192 208 205 177 158 158 128 125 126
162 167 194 194 191 206 184 176 191 169 140 170 202 207 171 148 141 149 152 158 153 148 153 164 167 168 175 184 181 172 166 168 178 196 193 163 177 178 139 131 143 210 159
202 231 205 208 214 188 166 164 164 135 167 189 180 180 165 154 137 139 146 144 152 153 162 174 170 154 152 160 154 147 156 172 177 180 184 166 171 172 196 153 228 211 145

GFSSE_con_3kmhel_069.txt.gz
Helicity
46 50 60 45 36 24 26 13 9 8 4 2 -6 20 7 4 10 22 19 21 43 62 48 43 48 49 38 33 29 20 18 21 20 19 14 13 12 28 15 19 8 5 7
75 49 54 32 20 16 14 10 9 4 -12 -4 16 13 6 2 5 17 14 26 30 41 44 36 27 23 19 18 4 -7 -1 3 -2 -8 -8 11 8 20 18 9 16 13 21
83 32 25 21 13 15 9 12 3 -0 -6 20 10 13 8 3 4 7 30 56 33 32 38 14 6 5 1 -7 -17 -19 -32 -24 -2 -16 -39 -39 4 17 16 26 26 40 49
60 15 7 3 4 4 7 4 -7 -7 -1 2 -0 10 5 3 1 2 3 25 32 25 6 -3 -9 -14 -12 -22 -22 -31 -40 -42 -0 23 -21 -16 -9 -0 -3 9 14 25 34
41 6 -22 -19 -24 -7 -6 -11 -12 -12 -10 -12 -11 1 -4 -3 -6 -6 -9 -12 -3 -13 -13 -12 -10 -14 -20 -30 -25 -14 -11 -23 -3 -5 -21 -19 -14 -4 6 7 9 19 28
35 13 -10 -23 -33 -32 -41 -38 -24 -19 -20 -22 -11 3 -5 -7 -8 -11 -14 -16 -18 -20 -17 -15 -8 -8 -12 -24 -22 -7 8 1 4 -10 -12 -1 -6 19 18 16 20 23 26
62 37 7 -12 -26 -48 -50 -69 -71 -49 -36 -29 -14 -6 -12 -11 -11 -13 -17 -19 -20 -19 -15 -10 -3 -6 -14 -27 -38 -27 -7 -0 -4 -4 3 21 22 42 41 39 36 37 38
93 69 19 2 -18 -30 -43 -62 -82 -86 -76 -74 -61 -20 -33 -28 -19 -15 -17 -17 -18 -18 -18 -16 -11 -9 -11 -12 -21 -21 -1 4 15 39 30 34 55 59 55 51 50 52 51
97 92 59 26 -0 -8 -28 -42 -53 -61 -72 -94 -95 -58 -66 -45 -36 -32 -26 -19 -17 -14 -12 -9 -2 6 11 9 2 -2 7 10 24 36 48 44 56 69 70 67 62 59 61
87 86 99 65 30 9 -12 -16 -17 -24 -34 -28 -59 -10 -24 -25 -17 -15 -24 -19 -11 -0 4 9 16 19 26 27 26 17 15 15 30 61 56 46 66 67 73 73 73 69 70
58 54 81 73 47 31 19 5 5 6 15 27 23 16 7 -19 -10 7 3 7 11 13 17 25 31 36 40 40 40 37 30 43 41 58 65 73 69 64 71 69 83 77 71
51 1 57 51 40 39 35 14 16 19 19 24 17 5 7 4 9 14 31 40 43 45 42 43 45 43 41 40 36 32 48 42 53 68 69 79 75 64 55 82 81 81 75
57 30 59 62 58 57 52 29 25 21 31 34 29 18 24 43 71 52 42 49 44 47 48 49 43 35 39 42 44 39 39 43 54 66 66 84 76 70 62 58 93 92 87
124 141 109 101 101 87 64 61 50 40 39 52 34 51 68 56 62 58 46 31 35 37 37 41 41 38 29 38 49 40 48 51 50 61 64 82 79 69 63 78 84 87 92
177 147 96 114 119 109 85 67 39 49 46 51 54 71 78 91 70 61 39 45 34 43 42 32 32 34 27 31 43 48 49 54 53 57 74 76 87 77 70 61 70 83 87
173 142 122 118 117 144 100 78 65 60 41 43 77 103 93 98 80 61 50 48 46 48 41 59 58 51 55 59 49 49 46 50 57 70 91 97 96 92 82 69 66 55 91
160 162 141 118 133 136 115 101 93 64 57 59 62 126 99 102 77 62 58 49 49 55 58 60 54 72 70 66 56 55 57 62 73 80 87 111 111 102 97 75 69 67 67
150 135 157 145 173 131 121 131 114 122 105 109 118 129 90 91 88 68 63 60 44 60 73 80 79 77 75 76 78 72 76 77 77 90 104 110 131 133 122 106 88 53 65
97 127 134 146 153 134 119 137 108 115 153 151 159 119 90 89 76 74 66 59 71 90 96 98 94 102 97 90 85 90 88 93 93 108 107 119 116 117 153 146 112 84 72
90 120 117 129 124 120 120 133 129 143 165 132 144 120 79 81 73 74 70 63 80 98 93 100 92 98 107 108 102 108 103 95 90 86 86 97 114 107 100 135 121 109 76
83 119 137 133 120 142 156 171 161 182 157 124 111 72 75 75 71 85 84 75 70 89 97 105 115 114 108 115 129 133 125 123 143 117 114 105 124 142 156 152 126 112 106
15 90 129 129 151 135 152 162 177 153 120 81 68 66 83 97 110 101 100 91 93 109 100 112 124 124 125 129 149 141 124 130 148 141 92 109 157 210 206 180 167 169 173
107 86 103 144 143 152 135 166 179 176 152 134 109 96 113 147 163 141 140 131 118 120 114 120 138 132 124 148 140 166 171 157 175 187 175 154 163 185 185 164 176 182 172
95 117 140 164 137 153 161 176 195 195 181 152 139 151 201 205 189 173 167 158 139 132 118 121 140 145 176 149 153 149 178 208 180 190 185 195 211 169 158 165 182 208 206
126 142 182 168 181 187 192 191 203 189 193 185 181 217 203 194 203 168 164 160 152 154 155 159 162 162 169 167 167 166 167 174 170 201 194 153 166 148 161 190 211 236 204
228 173 187 195 205 215 231 215 197 208 208 244 218 214 193 204 186 167 172 166 162 159 154 154 162 156 144 150 160 161 166 173 178 179 196 188 149 130 187 241 262 255 229

GFSSE_con_3kmhel_072.txt.gz
Helicity
41 36 61 63 60 53 47 31 21 18 2 8 25 12 10 13 9 28 44 58 59 54 52 56 61 58 46 39 40 37 24 13 17 13 -6 7 8 13 14 11 10 7 19
82 51 67 61 51 39 26 32 13 5 -7 27 20 7 -0 14 16 -0 39 53 48 42 44 43 43 29 21 12 13 2 -7 -13 -14 -4 -7 -15 -12 5 15 17 23 30 33
90 52 47 45 38 33 29 22 7 -3 -0 24 11 8 2 12 16 24 22 30 27 33 25 24 18 -0 -4 -2 -14 -29 -37 -31 -39 -37 -27 -37 -29 -5 5 14 20 26 30
84 47 39 38 32 30 19 10 2 14 20 8 7 5 -0 2 16 41 40 29 23 14 9 3 -13 -19 -14 -18 -31 -34 -23 -7 -16 -19 -39 -39 -31 -23 -13 -3 6 20 22
88 43 29 28 22 13 4 -1 -9 3 -2 9 -0 -3 -5 -7 -4 7 13 11 -2 -2 -5 -15 -27 -28 -20 -14 -7 5 10 10 -4 -24 -30 -19 -21 -6 1 8 9 15 21
94 54 21 9 5 -1 -8 -16 -23 -18 -11 -0 -2 -10 -12 -17 -19 -22 -20 -14 -18 -13 -13 -23 -28 -28 -23 -19 -6 8 -4 1 -10 -16 -10 -2 -3 22 23 25 25 28 31
88 55 15 -7 -18 -22 -28 -37 -40 -43 -17 -1 -4 -10 -12 -17 -22 -26 -25 -21 -18 -18 -17 -23 -30 -34 -32 -22 -6 12 11 15 4 2 11 14 18 39 38 36 35 35 37
78 54 21 -13 -31 -37 -53 -68 -71 -70 -50 -10 -15 -18 -17 -19 -21 -25 -26 -24 -27 -26 -25 -22 -22 -24 -22 -14 -4 8 33 24 27 32 26 30 49 53 52 48 44 45 45
86 80 50 21 -12 -32 -52 -73 -83 -93 -100 -62 -54 -58 -46 -42 -40 -37 -34 -33 -30 -23 -23 -16 -8 -4 2 3 9 17 24 28 40 39 39 34 49 59 61 57 51 50 48
65 75 80 61 24 -10 -40 -48 -53 -72 -92 -88 -64 -53 -57 -49 -44 -41 -42 -34 -18 -9 -3 5 13 18 24 25 20 26 29 47 40 49 44 30 47 61 61 58 59 57 53
104 83 93 69 52 18 -12 -35 -27 -36 -49 -45 -5 -18 -32 -41 -28 -17 -20 -10 -3 6 12 14 27 36 40 34 34 32 35 44 46 47 42 40 51 54 62 62 61 57 54
81 90 96 81 62 39 14 -10 -15 -7 4 15 10 -9 -12 -6 -7 -3 5 12 15 17 27 34 37 40 45 42 38 34 43 40 52 55 43 51 53 51 50 82 69 67 65
94 79 38 75 61 57 37 11 11 6 15 20 24 18 14 19 22 27 31 31 34 34 28 30 30 34 31 36 32 37 39 39 49 42 47 48 51 50 50 63 76 71 70
80 62 45 56 73 61 49 26 11 20 24 20 29 42 38 39 49 48 41 39 38 36 35 33 35 28 23 23 27 35 31 40 43 46 42 50 47 51 52 60 77 71 69
86 92 74 78 69 102 77 48 36 28 35 19 40 51 64 71 56 65 34 35 28 30 26 27 35 33 23 27 33 38 43 38 39 52 59 57 62 59 62 58 67 69 76
138 25 265 101 88 122 102 81 50 34 43 60 64 66 67 87 73 60 48 34 26 31 29 33 39 41 34 44 34 44 40 43 49 56 74 75 69 70 67 66 55 48 56
134 114 130 156 109 100 99 85 67 55 61 80 71 73 79 84 85 76 61 49 31 29 38 39 45 55 56 62 54 55 60 58 64 74 88 100 91 75 81 73 65 45 40
176 167 119 208 132 113 122 127 116 93 77 47 73 87 89 107 96 84 71 59 47 52 57 60 65 66 60 60 63 62 74 81 81 81 91 103 106 106 91 85 88 77 60
125 151 198 163 120 110 156 172 144 118 116 89 95 114 92 128 96 101 84 64 61 66 65 72 72 78 76 75 80 79 78 85 83 100 83 91 100 102 104 106 93 87 76
97 136 152 163 141 132 132 148 138 130 124 140 132 138 111 108 98 94 87 70 73 81 75 83 75 77 75 76 78 87 94 89 85 88 98 116 130 120 101 108 109 110 85
93 110 165 133 122 160 172 166 150 144 152 177 158 122 124 98 85 87 83 71 75 77 72 79 94 91 91 100 101 103 96 91 98 102 107 81 89 108 145 140 149 143 126
50 109 105 107 156 136 168 182 159 135 137 151 169 137 118 79 98 98 82 75 74 72 80 94 102 105 101 101 102 88 101 109 126 107 117 105 103 142 178 157 164 170 149
86 58 71 89 123 135 136 198 184 168 165 183 149 134 100 97 110 104 108 105 104 111 111 116 127 110 93 111 149 138 117 108 111 119 172 162 158 174 171 198 184 183 193
111 117 109 105 121 106 177 200 201 201 189 166 134 105 129 171 172 170 188 161 136 127 116 124 136 136 152 122 118 155 172 206 152 149 183 154 179 182 184 192 205 217 214
146 126 95 99 97 123 158 200 183 196 183 159 170 174 239 234 194 172 174 169 164 150 142 143 139 149 169 169 169 157 161 177 187 205 171 170 176 180 182 188 227 249 232
199 193 195 136 115 146 157 145 156 157 180 135 174 278 291 219 180 167 172 160 154 150 139 148 174 158 151 160 163 161 170 171 186 206 212 194 173 180 219 247 276 259 227

GFSSE_con_3kmhel_075.txt.gz
Helicity
57 52 54 74 73 60 45 36 29 22 16 28 29 27 28 15 27 39 51 53 47 56 54 67 62 41 36 29 15 12 16 18 7 4 -7 -15 -10 -4 -3 6 11 -5 10
94 64 48 66 64 52 40 36 25 9 13 11 12 6 13 2 32 57 59 43 46 42 51 46 29 18 16 4 -10 -7 -8 3 0 -16 -31 -29 -23 -10 1 14 21 11 16
107 62 47 54 59 49 38 27 20 14 24 6 -3 -1 4 -4 15 45 54 41 36 37 23 17 12 5 -1 -21 -36 -40 -40 -25 -27 -37 -41 -65 -55 -27 -14 -5 1 7 13
102 91 62 45 52 46 28 17 14 18 12 2 -8 -5 4 8 9 33 31 28 15 9 0 -3 -3 -11 -26 -39 -38 -31 -24 -29 -29 -34 -48 -50 -45 -25 -15 -5 2 8 2
100 88 58 45 37 27 19 4 9 16 8 -2 -11 -19 -12 10 39 29 20 7 -6 -15 -15 -13 -15 -23 -23 -20 -22 -15 -5 -8 -20 -32 -33 -33 -32 -14 -2 5 7 11 17
95 86 56 39 25 11 7 -8 11 1 -3 -8 -16 -27 -26 -17 -2 -3 -6 -15 -23 -24 -20 -20 -24 -30 -25 -15 -8 -2 0 -4 -16 -22 -20 -17 -18 13 17 19 19 19 20
90 90 60 39 22 8 -4 -26 -15 -14 -3 -13 -22 -30 -39 -41 -33 -30 -30 -36 -29 -23 -24 -27 -29 -26 -19 -10 -1 14 18 13 2 -1 1 3 9 31 30 30 26 26 26
75 91 57 30 17 4 -11 -29 -41 -27 -5 -11 -20 -23 -30 -40 -37 -34 -38 -38 -37 -37 -39 -39 -32 -26 -14 8 24 30 31 31 22 20 19 22 35 40 39 37 32 31 29
88 96 67 43 16 1 -17 -32 -55 -52 -16 -18 -30 -31 -30 -37 -41 -43 -44 -46 -45 -41 -40 -41 -36 -26 -11 5 31 41 34 44 39 29 29 24 27 44 46 46 40 34 33
70 86 97 74 38 14 -12 -39 -65 -78 -51 -58 -64 -61 -60 -59 -54 -47 -48 -43 -36 -31 -23 -22 -7 -3 9 17 22 40 37 45 40 37 30 25 25 45 48 46 42 41 40
60 81 96 72 49 24 0 -24 -48 -73 -78 -58 -64 -61 -60 -68 -53 -42 -39 -19 -8 -3 1 4 12 14 21 23 20 28 42 30 36 41 34 16 24 35 52 51 48 46 48
67 77 90 80 70 49 23 1 -12 -30 -43 -25 -40 -43 -43 -34 -26 -25 -16 -3 6 17 21 23 25 31 34 38 31 34 41 35 40 44 38 22 30 35 39 58 53 54 56
85 72 65 86 86 70 52 32 22 7 -1 -4 3 1 -2 4 5 12 9 12 16 16 29 31 25 32 31 37 32 34 38 45 43 40 33 32 37 36 41 48 61 57 60
49 52 56 71 75 70 78 49 36 26 19 16 12 16 24 29 29 32 35 32 35 32 27 26 29 24 22 27 33 37 41 49 51 45 38 35 47 44 45 49 57 62 60
-17 -87 50 80 71 67 78 72 62 37 29 19 35 28 46 46 43 51 42 44 39 39 35 31 27 24 22 25 32 39 36 38 42 52 57 42 51 50 43 43 56 51 53
12 -33 8 81 70 69 64 73 68 68 57 52 49 44 42 64 71 73 55 44 37 39 40 37 33 26 24 31 27 31 36 42 48 53 70 72 69 64 50 42 45 28 40
103 92 122 42 84 88 83 62 67 56 64 82 86 67 58 69 78 90 73 56 46 46 41 40 37 43 41 44 34 39 44 46 52 56 80 92 80 63 56 45 49 49 38
161 160 102 128 2 116 100 65 61 51 74 83 104 109 81 77 95 94 90 71 64 63 60 61 62 58 55 55 52 45 56 64 64 67 69 78 96 102 90 70 75 75 55
120 123 120 190 104 119 70 57 117 97 94 92 107 106 89 94 95 123 104 79 80 80 67 66 67 71 67 63 58 60 54 60 64 68 55 81 91 112 121 89 73 85 80
85 86 135 174 235 143 139 94 133 95 102 182 146 132 82 97 92 116 106 93 91 90 72 69 63 70 72 62 58 59 63 63 70 78 78 87 86 88 104 101 97 119 102
80 106 102 147 139 165 186 151 81 84 129 157 165 151 129 129 116 118 96 100 90 84 69 65 83 68 68 76 80 69 80 66 76 80 87 82 94 82 88 100 134 155 137
74 68 108 106 91 137 130 122 179 210 183 195 156 122 124 129 122 135 109 92 86 84 65 74 91 99 88 88 83 90 70 72 91 68 89 92 113 127 115 132 137 151 157
87 70 63 74 89 122 148 215 227 187 158 163 146 135 143 136 130 118 106 95 94 90 81 90 101 97 83 94 105 106 92 88 94 107 123 143 145 138 158 180 192 200 200
51 83 67 51 76 110 122 144 151 149 121 131 157 160 136 145 119 120 101 108 103 100 90 100 103 105 123 99 117 146 174 195 141 123 129 147 179 155 180 211 221 226 220
91 93 98 95 76 104 144 142 158 181 139 143 121 144 114 137 148 173 176 146 116 114 106 95 116 100 111 123 144 149 155 170 171 196 146 146 171 185 221 229 234 231 229
109 158 139 93 75 91 108 151 153 134 123 163 185 166 110 116 100 128 149 169 173 155 134 99 103 115 111 131 149 140 144 136 138 163 179 168 150 159 213 248 256 250 221

GFSSE_con_3kmhel_078.txt.gz
Helicity
76 65 47 68 68 60 46 44 38 51 42 43 36 28 31 39 37 54 53 54 54 57 51 54 40 25 14 16 12 13 6 5 1 -9 -18 -24 -11 4 8 2 -4 -15 -0
107 77 50 61 62 42 33 38 31 29 26 17 14 8 10 23 43 44 54 45 40 40 44 31 19 10 7 -3 -8 -7 -2 -7 -7 -8 -19 -29 -32 -17 -4 -14 -7 -5 6
101 79 46 54 53 45 31 35 28 22 11 2 -6 -8 3 30 52 48 53 39 35 32 17 8 2 -3 -21 -31 -32 -24 -19 -24 -26 -29 -37 -49 -37 -25 -15 -11 -16 -10 -3
100 80 54 41 54 46 33 29 22 23 3 -10 -15 -18 -2 19 37 44 43 27 18 9 -2 -5 -8 -23 -40 -43 -39 -26 -26 -27 -33 -31 -43 -41 -40 -11 -6 -5 -0 6 5
110 87 57 43 48 40 29 19 19 11 -2 -15 -14 -12 -8 11 30 23 8 4 -4 -12 -20 -16 -20 -35 -38 -24 -17 -12 -11 -15 -20 -25 -28 -29 -29 -4 7 10 8 8 9
107 96 45 43 41 38 23 2 14 4 -2 -11 -11 -4 3 17 17 4 -7 -17 -24 -29 -30 -26 -30 -34 -29 -22 -15 -6 -5 -4 -7 -16 -14 -13 -14 17 21 21 20 19 16
94 91 51 40 40 30 18 15 5 -3 -13 -15 -17 -21 -11 -4 -4 -25 -28 -30 -31 -32 -36 -37 -32 -29 -23 -19 -4 3 1 5 -5 -2 -3 -5 -0 26 29 27 27 27 27
98 91 63 44 39 30 18 6 -11 -11 -19 -23 -30 -38 -42 -38 -36 -40 -33 -34 -36 -40 -39 -39 -34 -28 -20 -6 6 14 15 14 7 5 3 4 20 34 37 34 32 32 32
110 108 82 65 45 31 21 9 -12 -16 -18 -20 -30 -43 -50 -50 -44 -44 -46 -46 -43 -39 -40 -37 -27 -15 3 13 22 22 20 28 18 11 15 8 1 33 36 35 35 33 34
88 86 95 73 55 45 26 6 -0 -18 -17 -20 -31 -39 -49 -55 -58 -66 -68 -61 -50 -41 -25 -12 -0 9 16 32 28 31 37 36 27 27 20 11 5 27 34 35 35 39 40
87 75 81 69 50 42 28 10 -3 -24 -35 -36 -41 -49 -60 -76 -71 -60 -57 -42 -28 -16 -7 5 13 24 30 29 31 27 31 23 24 27 25 7 9 16 39 38 38 44 49
86 69 75 72 59 49 36 19 9 -6 -29 -38 -39 -43 -47 -53 -50 -43 -37 -14 -7 2 10 20 28 31 36 31 25 30 27 27 29 34 30 12 15 18 30 48 50 53 57
64 88 77 76 93 76 61 53 39 27 6 7 -15 -22 -20 -15 -13 -8 -4 7 15 22 29 37 37 40 37 36 34 28 28 29 34 34 26 17 23 25 34 39 57 56 62
90 109 94 48 90 76 83 69 61 53 40 27 16 11 17 16 14 18 23 27 32 39 42 39 37 31 34 33 32 33 34 36 38 34 30 23 31 36 38 43 36 65 58
86 115 2 156 53 77 78 78 77 69 66 61 55 38 43 33 30 39 38 44 42 46 41 39 38 35 32 29 30 30 29 31 32 39 47 35 39 43 41 36 38 51 45
32 86 46 75 57 101 123 64 63 72 74 82 73 58 53 55 57 59 58 50 47 49 43 41 38 36 31 29 25 28 27 35 38 44 56 62 56 58 55 41 41 25 23
57 -52 -242 -186 47 94 92 92 57 57 75 88 83 76 73 76 71 76 78 63 55 62 52 48 41 40 35 36 30 33 34 35 41 42 49 63 69 69 59 59 56 51 41
80 35 -86 -216 5 149 115 84 89 41 52 62 76 91 78 72 90 98 95 79 78 73 71 63 54 48 48 46 44 38 37 38 39 49 57 57 56 74 76 59 72 56 48
115 155 -21 3 -18 137 149 80 60 78 83 55 83 84 87 99 108 123 111 101 102 95 85 78 67 66 63 51 44 34 45 47 46 53 44 57 69 76 88 81 67 58 58
81 117 132 148 84 70 134 121 123 66 79 80 80 55 71 112 112 134 119 107 119 117 96 90 70 64 58 57 51 44 41 40 45 45 50 60 62 67 78 77 84 74 58
83 124 97 167 12 -49 135 189 72 79 44 90 100 61 63 111 134 131 138 123 118 103 89 87 91 69 57 61 58 58 53 40 43 56 52 41 54 68 78 76 91 99 118
111 103 129 169 139 -20 108 146 39 -72 -10 97 103 96 110 123 155 142 116 106 119 108 92 89 85 87 73 67 68 62 69 61 48 39 76 82 79 75 106 131 140 153 172
121 71 89 104 176 77 117 163 192 133 115 126 137 107 135 112 103 130 158 141 108 97 103 87 78 77 79 76 75 75 86 64 67 59 56 95 96 99 120 145 174 178 196
42 54 68 69 59 125 154 207 70 66 46 47 114 190 189 183 154 113 104 149 129 103 91 89 89 92 106 114 97 96 100 117 86 84 80 95 120 143 144 154 177 206 212
64 57 60 61 66 67 101 129 192 157 160 131 95 133 149 126 140 86 91 108 120 110 112 79 115 118 115 106 101 103 100 122 126 122 113 98 129 137 164 176 199 211 220
98 76 79 76 71 78 74 73 88 95 105 146 125 120 145 143 110 126 78 62 106 56 75 65 113 109 118 162 141 112 115 121 124 132 125 121 99 109 137 165 185 198 201

GFSSE_con_3kmhel_081.txt.gz
Helicity
91 60 54 63 66 63 51 44 49 53 39 49 66 42 6 32 48 63 51 45 45 46 55 42 25 12 18 14 8 4 5 -2 -6 -8 -9 -2 10 4 1 -5 -11 -7 -2
106 63 38 55 54 53 46 38 44 44 29 23 24 9 17 39 48 54 45 52 47 49 40 27 15 6 2 4 -0 -10 -15 -12 -6 -5 -10 -13 -14 -4 -13 -16 -11 1 -1
104 66 39 51 52 38 40 34 34 28 23 14 -7 7 24 33 46 42 39 35 39 29 22 10 -0 -16 -21 -21 -22 -23 -26 -24 -21 -17 -21 -26 -19 -13 -10 -16 -20 -12 -6
87 65 44 42 46 45 34 27 25 18 10 -3 -21 -12 19 39 37 37 29 30 16 6 2 -0 -18 -37 -43 -37 -29 -28 -28 -29 -23 -25 -30 -25 -17 -7 -5 -6 -0 -1 -3
80 62 46 39 45 44 30 30 29 14 -8 -16 -23 -10 21 48 58 40 19 12 -3 -4 -5 -8 -30 -40 -31 -25 -22 -19 -20 -17 -15 -16 -12 -12 -10 3 11 9 8 9 5
69 51 31 44 50 38 31 31 26 10 -10 -23 -4 -1 16 38 39 11 1 -7 -13 -16 -10 -15 -24 -26 -21 -17 -13 -10 -9 -5 -9 -6 -5 -0 4 16 21 21 21 20 19
66 47 35 53 54 34 36 33 26 10 -3 -18 2 12 25 31 12 3 -12 -18 -22 -18 -14 -22 -21 -16 -21 -13 -5 -3 3 -1 -3 -1 3 6 17 26 30 29 28 28 29
73 60 46 41 54 38 37 34 28 7 1 -6 -14 13 20 16 4 -21 -23 -22 -24 -26 -24 -22 -21 -15 -10 -6 3 7 7 3 -1 2 5 6 15 25 29 34 32 32 33
80 70 60 46 57 55 46 40 17 3 -2 -5 -18 -24 -17 -21 -28 -29 -25 -28 -31 -31 -31 -30 -26 -15 -1 10 13 12 14 9 8 5 4 2 -9 21 26 30 31 36 40
129 87 67 61 55 46 41 30 18 8 -2 -5 -10 -19 -21 -47 -35 -33 -35 -33 -34 -32 -28 -22 -9 4 15 21 23 26 24 19 13 9 6 2 -13 14 24 28 34 40 45
172 117 72 63 51 46 46 42 20 24 8 3 -0 -5 -8 -26 -41 -41 -35 -31 -24 -8 1 10 18 23 32 36 35 32 24 18 16 13 10 1 -4 7 32 32 35 42 48
216 117 63 58 52 42 52 45 45 26 5 -0 -12 -21 -28 -32 -32 -35 -25 -14 -5 7 23 27 37 47 40 34 28 27 24 24 22 18 13 -0 4 8 27 43 43 45 54
171 107 51 55 76 52 50 56 58 47 29 -3 -11 -18 -15 -18 -24 -23 -9 6 14 19 31 37 40 39 41 37 35 28 24 24 25 25 17 8 10 15 24 36 53 46 54
207 107 97 80 82 67 59 52 58 50 34 25 6 -2 3 5 5 13 17 21 27 31 34 39 39 40 39 35 29 29 28 24 25 24 22 16 15 17 20 32 36 44 44
292 118 69 74 46 64 62 60 60 59 56 40 30 22 30 27 22 28 28 33 36 40 40 41 36 38 35 29 26 21 20 21 20 25 31 29 21 26 28 29 30 44 50
79 185 81 68 41 36 63 64 65 71 70 72 62 53 36 42 40 40 41 40 41 45 51 50 43 38 30 24 21 19 17 18 18 22 30 37 41 37 38 46 51 39 24
-34 -31 166 80 39 46 88 74 71 69 75 71 77 57 49 49 45 49 52 50 50 58 58 63 56 44 34 26 22 25 28 25 23 21 28 39 40 36 24 21 41 51 41
-50 -35 65 217 137 51 68 89 87 82 72 65 71 68 54 53 51 60 62 53 68 77 71 73 69 55 46 42 38 37 30 25 20 24 23 32 39 37 45 51 41 38 50
-26 -43 -28 105 55 84 51 62 91 46 84 84 74 56 56 50 53 62 68 76 84 89 86 84 83 70 62 55 46 37 29 24 20 29 23 33 37 43 52 57 65 55 54
38 -7 -47 -28 -61 137 131 138 26 64 74 92 96 83 35 41 53 68 71 80 94 103 108 104 87 70 73 61 56 45 33 34 33 36 36 34 32 30 39 49 69 79 75
40 60 22 29 -4 38 163 173 85 54 89 51 75 83 79 45 30 56 62 112 116 106 99 98 118 92 77 70 74 63 57 53 46 38 26 30 37 38 42 50 63 75 97
44 60 -18 49 93 50 118 92 41 142 72 -26 29 50 65 69 95 51 87 110 141 116 103 116 113 126 96 86 92 90 92 78 61 53 58 41 52 60 70 84 94 98 128
50 43 28 54 32 92 173 139 60 -5 25 133 50 78 68 103 69 99 76 98 128 146 107 105 111 113 116 117 85 101 99 87 71 43 59 61 60 64 83 97 117 139 147
71 83 -8 -22 179 71 151 188 132 32 43 -19 63 40 8 49 150 122 97 111 123 143 119 111 101 92 100 109 106 107 125 114 87 70 52 77 93 96 97 110 122 147 171
89 43 38 35 88 114 125 49 151 164 121 9 62 40 59 84 91 107 134 143 135 123 146 160 161 148 135 89 98 120 124 83 91 71 63 85 101 99 97 115 126 141 165
60 65 58 46 63 62 70 95 87 116 157 118 29 98 114 106 112 120 154 193 212 161 186 128 137 137 138 116 119 131 114 88 78 103 108 123 102 68 88 107 125 136 157

GFSSE_con_3kmhel_084.txt.gz
Helicity
84 94 87 76 68 50 40 38 37 34 51 73 69 60 23 25 47 52 40 43 39 39 43 30 22 22 17 21 12 16 15 7 16 23 30 12 9 5 -1 -16 -12 0 -3
81 86 68 66 68 56 39 32 39 28 18 47 44 30 17 44 53 49 30 40 42 43 33 25 26 26 12 5 4 4 3 3 1 -5 -22 -7 -3 -10 -10 -15 -19 -4 0
74 84 58 48 65 61 45 36 34 33 7 5 8 -1 28 51 53 35 36 37 34 32 24 15 24 15 10 6 -8 -14 -15 -16 -16 -24 -49 -17 -10 -10 -10 -2 3 2 4
77 81 55 45 56 56 46 35 29 29 21 -21 -20 2 36 57 50 39 39 35 28 22 16 8 -1 -10 -4 -6 -16 -20 -26 -24 -29 -48 -22 -10 -2 -2 -4 -5 -3 -3 -4
68 62 70 48 51 56 39 39 33 25 18 -22 -21 11 35 54 47 39 34 22 20 28 3 -2 -16 -22 -16 -14 -16 -19 -20 -16 -30 -18 -2 -2 3 9 8 3 13 10 5
71 46 80 49 50 56 40 39 38 23 7 -5 -23 6 36 51 46 44 41 24 24 17 6 -4 -12 -9 -7 -5 -8 -4 -2 -15 -32 2 9 8 21 17 16 19 18 19 20
75 39 44 44 51 54 39 49 45 24 5 9 13 9 48 64 45 34 31 25 8 16 8 2 -1 -2 -2 -1 1 2 1 -19 0 6 11 16 21 18 19 20 21 23 26
56 44 46 47 46 47 61 58 45 31 11 18 43 24 37 43 33 20 14 7 2 7 2 1 2 0 -2 4 9 10 5 -19 -1 11 9 17 14 18 20 23 24 27 31
67 54 51 54 43 56 67 61 45 34 26 39 59 61 64 57 28 11 7 2 -3 -5 0 1 4 6 11 11 14 14 9 -12 6 10 7 10 4 17 19 25 31 35 38
142 56 55 62 51 46 41 64 44 43 46 63 67 67 55 35 15 11 9 -3 -7 -4 -4 -6 2 13 24 27 25 23 17 -2 17 14 13 22 -3 14 20 26 33 40 40
122 256 71 62 48 48 36 58 48 46 51 59 60 78 25 -8 -9 0 14 -5 1 -8 -10 -3 16 27 34 36 31 24 5 15 16 15 15 29 1 7 25 27 30 37 41
286 -4 214 62 54 53 60 46 37 39 36 27 9 -1 -7 -1 -1 -9 0 -2 1 5 14 17 26 33 10 22 26 18 14 21 22 19 18 20 2 4 17 30 32 38 40
195 192 227 67 61 54 60 60 80 52 52 51 30 16 10 9 5 -3 -7 -6 -8 2 11 17 24 14 21 23 26 21 24 20 22 24 29 19 7 10 15 29 41 37 43
-114 115 158 59 59 67 81 67 58 63 53 49 35 16 10 4 -3 -7 -6 1 14 22 24 27 30 32 31 26 24 21 20 18 20 25 34 28 16 13 18 28 36 43 45
-32 102 22 26 87 87 83 74 58 52 39 42 29 16 12 6 4 13 24 31 35 41 38 39 36 36 32 28 24 19 18 18 19 26 25 48 28 22 19 22 29 37 56
68 91 186 183 17 110 85 72 66 54 45 27 31 31 32 42 43 45 46 46 46 48 52 53 48 41 38 33 24 23 18 19 19 24 31 40 39 26 16 15 11 27 37
72 88 189 254 37 51 61 61 69 64 54 44 52 47 49 53 53 48 51 53 55 59 56 61 58 57 51 44 31 31 28 21 21 26 30 28 38 26 13 17 26 20 28
131 227 90 236 107 67 49 56 64 68 68 69 69 61 53 54 59 54 60 58 61 62 72 73 69 64 59 56 50 45 36 32 23 19 24 21 22 24 31 26 31 36 30
152 126 99 230 66 81 60 56 59 62 80 78 75 67 59 59 53 53 57 58 66 74 76 83 84 83 81 74 68 57 52 38 22 24 16 21 20 22 22 40 39 39 38
114 96 81 165 135 145 118 81 96 76 61 79 90 79 59 59 43 53 63 68 76 86 85 87 89 94 96 99 96 82 51 44 40 32 30 32 19 18 18 23 32 51 65
108 30 -27 -54 70 52 102 86 111 90 62 67 59 64 60 71 61 48 61 73 84 76 75 75 94 122 131 132 135 87 67 58 54 40 34 33 37 34 42 38 45 61 83
147 22 -23 -38 68 92 224 184 131 134 121 96 46 52 50 54 55 70 62 83 82 87 77 95 118 139 141 154 141 148 128 113 99 65 44 36 39 42 56 67 69 76 88
111 106 88 43 110 85 163 144 108 78 97 119 27 40 17 37 50 34 57 101 91 92 91 97 89 87 118 156 114 157 147 161 154 97 75 51 35 40 65 68 82 89 100
216 67 28 77 39 47 70 33 209 189 5 -11 59 116 48 84 39 50 77 99 79 97 122 131 128 152 132 108 132 130 124 123 119 118 70 36 46 43 60 79 89 99 111
-83 -39 -52 -17 -15 20 16 37 96 61 57 70 191 49 44 133 105 93 90 108 107 108 159 167 207 252 235 168 177 134 131 82 90 67 50 2 12 52 77 83 92 108 121
21 -5 -6 -6 18 17 -8 15 82 172 71 107 128 -5 52 175 64 75 88 81 140 176 191 203 265 200 208 189 150 105 103 91 79 109 54 10 15 76 89 73 89 107 111

GFSSE_con_3kmhel_087.txt.gz
Helicity
107 118 109 85 55 48 41 38 33 38 49 55 48 42 8 34 49 40 43 32 28 26 41 25 33 40 43 49 35 37 32 34 41 40 36 23 18 13 1 -5 -6 8 6
91 101 105 84 55 39 36 31 31 36 52 58 63 55 23 33 45 51 36 34 32 27 38 45 41 45 42 26 27 21 17 11 6 -10 4 2 5 9 16 19 16 4 15
84 93 79 86 64 46 37 35 31 27 30 50 56 49 31 43 51 49 30 33 35 33 48 42 44 30 22 12 11 8 3 -8 -22 -43 -34 -6 -5 -3 -1 9 14 15 11
163 118 74 85 74 55 42 38 37 27 15 21 20 24 39 63 60 38 40 38 37 45 46 50 36 20 15 6 1 0 -6 -21 -36 -11 -14 1 4 1 1 5 4 5 10
144 72 117 85 75 54 42 35 35 32 9 6 -18 7 36 62 57 43 42 29 46 50 41 35 14 9 6 6 -1 -2 -7 -26 -41 -2 7 5 5 10 12 12 12 13 14
89 87 124 84 62 58 40 38 33 34 32 -1 -13 17 56 80 54 53 49 50 49 34 33 15 6 4 10 7 5 6 -10 -26 -26 8 11 22 21 18 20 19 16 18 21
52 116 60 83 74 60 43 45 43 34 33 19 -3 32 53 70 63 65 58 67 60 50 28 21 18 15 8 11 16 9 -11 -17 0 7 17 24 20 20 21 20 19 23 30
102 94 50 75 60 54 46 50 53 44 36 41 9 29 67 75 63 72 67 57 55 37 33 32 18 12 8 12 17 10 -12 -33 7 14 21 25 16 19 23 24 24 24 29
292 149 89 59 65 65 48 57 61 48 47 51 51 46 97 89 63 46 49 43 37 32 31 21 14 8 8 13 14 10 -9 -26 -16 13 12 24 13 21 24 26 28 29 29
565 163 258 88 42 36 43 66 68 55 68 79 91 114 143 84 60 47 37 35 30 24 24 20 15 14 17 21 14 8 -3 -20 10 15 15 34 21 25 27 29 29 30 33
286 213 84 246 70 29 56 69 82 71 78 114 97 81 88 84 40 39 42 51 34 24 14 12 15 23 25 29 23 12 -5 -3 18 17 30 43 20 16 24 26 29 34 37
169 214 295 110 235 71 106 69 71 61 60 87 83 62 62 18 15 29 47 40 42 24 14 10 20 24 7 21 22 14 3 20 22 24 47 45 20 16 23 28 28 33 34
159 280 160 -1 109 73 132 111 93 79 82 91 84 59 70 52 61 50 33 35 21 6 6 17 23 15 13 20 29 15 19 23 20 28 60 41 22 13 16 25 27 31 33
74 131 124 -31 73 96 192 117 97 75 81 95 98 48 45 76 58 40 31 17 2 11 1 10 22 15 26 22 19 16 25 23 22 30 60 44 25 14 10 12 21 27 38
29 -2 105 94 142 40 137 92 83 80 76 77 96 96 77 68 65 53 30 16 20 23 29 31 34 37 27 22 24 21 22 21 18 36 39 46 33 21 17 10 9 15 20
43 -13 64 95 205 267 151 129 77 78 72 59 75 81 62 70 69 60 45 39 44 51 51 44 35 38 40 36 28 22 23 28 24 28 27 50 43 33 21 16 15 18 16
42 19 43 69 205 314 134 177 112 71 74 95 61 55 57 54 50 53 59 62 56 53 49 56 57 59 50 45 40 36 32 24 30 23 30 33 51 35 31 20 16 20 20
0 0 11 70 98 181 282 130 68 88 88 82 87 77 58 56 55 61 65 62 63 63 67 66 64 67 64 59 48 47 52 43 33 29 40 34 35 32 41 39 29 25 18
72 36 61 102 95 129 122 100 50 57 90 99 79 81 74 71 71 82 82 75 55 74 57 65 71 68 72 79 74 75 72 52 48 37 38 30 33 40 32 34 31 33 36
59 13 12 48 112 114 95 91 66 82 75 94 127 107 62 85 83 81 84 78 62 73 60 67 63 76 83 83 84 95 97 75 56 61 47 55 50 48 40 46 37 33 47
68 74 22 72 175 264 151 151 99 103 110 105 109 102 107 95 78 75 81 67 71 80 53 55 68 83 101 118 126 109 138 79 74 70 69 65 62 50 56 59 60 62 78
211 225 84 71 167 263 188 110 75 95 129 116 113 93 87 105 98 112 97 90 94 78 102 81 86 110 120 119 168 143 123 104 127 105 93 85 76 64 39 54 69 81 85
270 241 102 90 103 102 97 122 113 148 122 171 143 132 88 81 76 74 72 80 103 164 165 123 106 107 142 148 141 175 178 178 178 115 133 113 76 51 46 75 77 93 107
49 214 92 124 114 83 82 160 97 171 154 121 103 180 97 51 40 58 78 61 70 85 75 92 111 111 141 154 179 134 191 223 246 176 131 84 51 29 35 62 68 99 103
54 187 216 113 65 65 57 58 164 139 134 137 114 156 114 58 19 43 63 84 100 57 20 4 106 104 137 262 265 283 305 245 248 199 176 78 30 1 45 46 47 120 108
42 -39 124 42 129 40 64 19 84 160 84 58 70 140 110 60 32 -41 117 156 146 122 69 201 207 182 119 181 236 306 325 197 175 83 64 74 56 97 129 106 91 111 138

GFSSE_con_3kmhel_090.txt.gz
Helicity
127 101 118 88 90 82 67 53 60 59 53 43 42 24 17 29 39 51 40 28 15 13 38 47 39 47 58 49 54 56 56 46 35 35 38 33 29 27 40 2 23 2 9
134 91 141 89 72 78 66 55 62 67 56 50 49 40 29 36 42 47 38 28 20 40 59 73 70 56 43 42 45 43 32 20 13 2 9 19 18 30 37 36 20 18 24
132 82 134 105 82 72 62 55 53 63 61 56 52 45 34 42 45 50 33 23 29 71 74 72 57 39 48 36 33 22 5 -7 -12 -24 -9 -20 -2 13 16 20 14 16 19
143 91 133 90 85 66 59 50 43 46 54 56 49 40 37 45 55 56 36 23 42 70 72 58 44 44 35 23 15 5 -14 -10 6 -6 -24 -3 3 12 14 16 18 21 12
194 61 127 73 77 66 54 48 50 44 41 38 35 29 34 43 59 48 37 38 72 100 87 63 46 37 21 11 7 -3 -17 14 49 48 23 1 1 14 25 26 20 20 17
85 116 158 90 65 61 58 48 46 46 26 25 -6 9 40 55 79 56 39 43 96 92 70 53 40 34 22 10 3 -7 -7 -5 -14 6 17 30 9 23 27 27 24 25 26
84 76 120 86 67 53 49 48 46 52 25 21 -9 11 47 73 71 76 65 72 66 63 44 30 26 29 23 17 7 -6 -4 4 -10 17 28 17 8 26 28 26 27 28 29
88 87 110 129 75 51 50 59 54 57 37 17 11 27 74 94 82 60 70 68 59 54 35 34 32 24 23 18 10 -8 -6 21 16 36 44 18 15 22 26 26 28 29 31
387 356 468 191 90 75 67 61 59 59 38 46 30 48 90 109 85 49 60 84 75 62 53 40 22 17 17 17 12 1 -9 8 10 10 43 9 17 23 23 25 26 25 26
320 319 422 261 132 70 76 61 65 66 60 76 43 88 132 137 81 61 71 75 65 63 55 43 21 14 14 14 10 3 -9 -2 10 18 40 21 24 23 23 22 22 25 24
217 191 229 347 243 276 114 86 80 74 77 98 146 186 175 135 96 79 81 72 73 65 48 36 24 20 19 19 13 3 -11 -6 -8 19 50 42 24 19 20 19 19 21 26
141 113 172 277 309 142 194 95 94 91 110 110 121 150 228 135 108 99 80 78 76 62 44 30 23 17 14 16 12 4 -3 -1 32 49 48 44 27 16 19 20 18 20 22
144 66 92 243 201 65 108 237 78 116 103 116 112 58 77 39 54 145 116 104 109 68 46 35 27 15 -0 2 38 19 21 19 37 50 46 48 33 20 16 17 19 18 19
130 52 81 149 183 -60 4 -3 125 137 115 121 119 100 85 133 133 120 118 88 79 51 26 21 29 11 5 27 38 26 32 38 29 51 56 51 36 23 15 13 15 16 23
139 88 44 68 205 173 134 -15 98 108 107 125 124 130 138 153 141 110 92 79 51 39 7 26 34 26 28 39 26 34 42 36 19 51 51 42 38 28 17 12 12 10 11
153 87 77 67 161 166 112 87 65 67 91 146 166 151 187 225 146 94 105 70 43 59 37 56 53 56 48 39 35 45 34 32 38 52 67 56 42 34 28 18 14 12 10
102 95 62 104 90 98 155 129 91 57 57 112 124 154 174 173 118 135 143 124 89 91 84 70 54 54 64 63 55 41 49 43 48 38 38 68 48 15 34 17 14 15 14
89 128 104 64 85 89 113 213 185 192 64 47 89 86 107 126 113 134 133 112 95 84 73 79 79 79 74 67 81 54 56 56 48 41 49 55 64 58 29 13 23 16 13
70 44 149 83 113 65 84 165 164 172 220 74 61 80 80 122 115 129 106 84 73 79 93 87 87 85 72 72 71 54 64 74 61 56 64 58 43 78 59 16 22 18 14
112 58 93 135 86 58 78 108 78 153 142 144 76 84 96 123 119 127 121 104 95 96 94 90 80 73 75 68 65 72 101 104 93 76 64 61 108 108 88 76 38 27 14
128 61 79 84 36 132 118 94 100 172 117 132 159 108 90 100 125 119 126 114 105 101 93 71 80 69 75 77 95 101 107 112 91 75 81 130 112 93 85 80 60 58 48
187 179 106 63 5 125 116 92 51 65 65 93 158 177 151 102 106 107 104 99 96 98 89 95 87 93 82 103 106 138 143 138 88 143 157 157 150 92 71 73 77 85 96
136 113 135 94 68 73 83 185 50 36 117 122 111 136 122 142 114 126 126 118 115 134 135 143 146 144 114 112 124 184 194 168 206 204 207 203 144 117 79 92 82 98 113
69 47 9 133 163 100 137 154 103 81 83 109 131 178 149 166 137 126 97 140 122 119 130 149 136 123 133 131 135 109 165 246 296 312 284 184 166 142 107 89 79 97 114
87 55 112 191 115 85 143 96 123 222 88 152 124 214 230 207 201 163 85 73 83 104 109 73 81 87 99 82 158 111 315 330 379 422 379 273 201 87 65 83 118 148 136
125 174 144 111 92 164 93 48 68 154 83 201 32 140 118 207 177 95 26 60 111 93 146 116 53 24 26 79 97 270 226 329 242 311 271 214 100 44 56 115 149 150 145

GFSSE_con_3kmhel_093.txt.gz
Helicity
47 64 73 103 117 108 99 82 83 65 70 73 64 56 37 39 48 63 53 32 25 25 30 50 54 44 49 67 67 64 52 47 43 44 46 44 39 41 25 47 16 5 7
61 60 85 102 111 103 91 84 87 76 63 63 60 47 38 33 49 50 36 33 27 39 60 80 95 79 72 57 59 48 40 34 29 25 30 30 29 31 34 39 35 22 29
113 80 118 124 129 110 91 82 82 82 59 60 62 48 45 38 49 47 41 24 32 75 101 114 105 77 56 47 37 27 23 13 4 14 11 2 6 17 20 23 22 20 26
122 93 132 130 128 116 89 70 72 70 70 57 52 48 40 44 48 54 41 26 62 101 120 106 87 56 42 38 16 14 17 2 -23 -11 -9 2 2 17 18 19 24 22 24
88 92 123 134 116 101 81 70 60 59 70 63 50 38 48 52 52 66 35 33 80 105 120 103 58 41 27 20 7 13 24 44 44 36 11 6 2 15 24 24 21 22 25
76 54 107 140 111 92 76 61 56 49 51 50 50 38 42 37 58 71 39 80 112 94 103 83 61 34 17 7 9 22 25 32 12 24 14 17 5 24 28 27 26 25 26
63 83 87 124 107 92 63 55 52 53 44 39 33 13 22 35 72 80 67 77 111 109 99 69 57 31 17 7 8 17 22 22 16 22 14 12 6 24 26 28 29 28 28
164 101 92 96 106 93 68 54 57 62 46 28 2 -6 28 60 94 78 55 94 78 73 76 58 49 30 22 14 9 17 36 60 25 18 12 8 12 23 26 27 28 29 28
218 212 154 137 134 114 87 69 69 76 44 53 19 25 44 87 105 96 73 69 78 79 50 54 39 29 25 17 9 8 27 39 19 14 11 1 12 20 21 22 24 28 29
275 262 232 230 246 280 187 91 78 90 71 61 49 51 81 111 117 65 85 73 76 83 76 58 32 26 23 18 11 6 20 28 27 26 16 1 21 20 18 16 19 25 26
260 257 248 247 218 212 178 117 106 77 98 100 87 126 144 156 106 88 97 98 84 87 87 62 35 27 24 18 10 6 11 16 27 31 13 25 26 19 17 15 19 22 24
139 219 226 192 194 209 277 230 197 96 85 96 141 185 203 175 137 112 124 110 79 82 67 47 38 31 26 21 13 6 4 15 21 30 27 38 25 18 16 13 15 18 20
123 175 128 165 179 234 291 371 203 122 92 89 116 219 252 219 180 150 144 114 102 85 76 63 52 35 21 22 19 16 18 13 27 35 38 35 31 18 14 14 13 12 15
97 158 168 148 158 179 133 135 192 142 141 74 103 129 196 201 164 158 146 142 135 109 74 59 42 26 17 16 27 20 20 18 42 47 37 36 30 20 11 9 10 14 13
79 116 178 207 140 198 164 126 79 147 20 76 117 125 106 173 238 120 139 131 131 102 69 53 39 31 19 24 26 22 23 15 40 51 43 34 25 20 10 7 7 10 12
89 111 96 124 166 142 144 105 130 56 -0 105 124 106 122 156 103 134 122 119 118 82 59 52 42 46 33 32 31 31 31 28 31 51 48 32 35 20 11 12 8 3 5
105 94 77 60 92 128 120 102 173 135 53 82 121 102 123 162 166 131 119 113 94 76 61 70 60 69 58 49 34 31 38 31 33 61 57 46 45 19 23 8 -3 -0 -1
133 117 120 67 52 52 75 117 112 102 121 24 113 102 125 151 166 139 138 117 114 125 99 90 102 82 63 64 63 43 41 40 49 35 56 60 65 42 39 15 15 16 11
170 147 114 116 88 45 99 140 121 117 130 198 205 164 97 145 128 152 157 151 151 146 128 117 104 99 86 83 69 55 50 48 61 66 48 72 67 70 61 33 26 24 14
192 208 150 118 91 56 116 101 86 100 92 155 156 129 114 115 111 136 167 150 150 142 117 118 112 103 91 75 65 58 53 53 70 71 67 77 95 131 93 96 62 44 24
151 164 145 129 92 147 121 140 88 96 85 123 155 85 23 83 103 125 153 148 144 124 108 105 110 95 81 85 91 70 56 82 89 99 107 133 159 166 115 93 92 88 78
129 133 130 122 93 99 149 126 77 93 73 69 100 113 64 50 82 139 134 146 144 144 117 120 123 130 101 100 96 106 107 126 112 87 120 160 198 142 117 110 118 111 91
137 116 103 114 52 44 117 177 85 54 30 60 69 88 88 41 93 93 112 154 146 137 134 139 137 126 128 112 149 154 115 113 129 169 179 237 252 200 138 128 126 101 84
150 165 108 85 53 58 33 107 98 97 104 59 73 66 94 159 131 138 107 128 142 158 153 160 170 175 180 188 205 174 181 175 163 210 304 293 268 220 207 178 150 111 106
114 138 125 94 89 120 79 118 67 73 116 119 28 101 140 164 222 241 144 79 111 125 111 119 139 151 144 175 184 199 198 185 182 179 332 522 415 347 238 159 147 125 120
121 122 105 113 109 137 145 137 149 111 117 153 122 91 249 265 188 179 138 171 127 100 127 145 135 105 134 181 157 208 175 181 191 363 276 520 356 279 208 175 151 84 115

GFSSE_con_3kmhel_096.txt.gz
Helicity
52 38 45 79 104 120 130 114 108 107 112 105 95 96 85 71 71 71 64 56 41 42 51 45 65 85 86 70 73 58 53 46 44 47 58 61 36 36 41 31 23 -12 12
110 61 59 65 93 121 117 120 99 93 97 92 81 75 68 60 69 72 56 42 28 26 43 52 88 81 90 88 65 54 48 39 35 44 48 38 34 31 38 49 45 30 35
110 80 90 97 99 115 136 102 109 86 78 67 65 55 50 55 69 64 49 36 37 48 69 85 94 89 81 62 49 46 35 33 23 25 25 7 5 24 26 27 23 27 32
96 62 100 127 117 123 126 109 87 83 82 76 63 54 42 52 60 62 55 52 61 78 92 112 99 67 69 50 38 25 9 -6 0 8 11 10 2 21 20 19 21 22 23
90 77 128 155 136 134 116 99 78 69 67 74 65 48 50 54 53 62 60 70 87 126 116 117 70 71 57 40 27 27 30 37 33 16 12 11 9 13 21 22 19 22 26
110 107 74 124 122 114 109 81 63 56 60 57 63 45 54 42 48 80 69 92 120 129 107 84 64 69 45 22 23 33 37 38 29 11 9 11 4 21 24 25 27 27 25
95 62 45 97 129 113 102 88 66 48 49 45 54 62 44 38 43 103 92 117 111 123 105 77 71 56 33 19 26 37 33 24 9 14 15 8 3 22 24 28 31 30 27
85 66 69 88 118 132 109 93 72 48 40 46 40 47 31 29 51 104 101 96 91 88 95 78 62 54 31 24 31 49 44 32 16 13 11 8 15 24 27 29 30 30 28
137 132 114 117 111 119 110 104 92 91 51 48 34 11 26 40 72 102 81 50 74 73 91 80 62 53 39 29 29 43 46 33 15 3 4 -3 10 24 26 25 26 25 28
170 145 139 140 133 130 121 116 120 122 110 79 58 36 45 64 95 104 94 105 68 85 75 79 65 53 42 30 31 33 50 33 18 13 7 -5 16 22 22 19 19 21 27
152 197 216 190 147 142 136 117 136 150 167 130 105 75 93 134 131 127 135 110 61 82 99 78 65 55 42 32 28 32 45 37 19 9 10 8 22 23 16 15 18 21 26
101 139 204 220 204 200 140 138 169 163 185 192 133 119 141 145 157 165 133 96 84 117 102 67 63 58 49 37 30 28 27 32 18 17 14 16 25 24 18 14 15 19 22
71 92 140 219 191 169 155 175 191 214 230 219 170 172 168 168 213 184 155 129 126 136 142 99 84 69 50 42 33 26 23 24 23 22 11 19 22 19 18 13 13 14 15
91 91 134 160 154 158 169 146 162 179 167 202 161 120 163 216 234 218 188 166 154 147 128 107 75 56 47 40 36 31 16 23 28 30 10 22 18 20 16 14 12 12 10
127 100 109 155 159 140 156 196 169 151 135 132 125 66 120 159 232 259 240 179 154 142 122 110 82 63 45 32 27 24 15 10 31 38 34 12 15 14 11 9 11 10 12
143 106 153 134 139 149 162 158 144 132 98 69 100 85 114 140 133 142 162 144 163 136 106 114 88 68 45 45 29 29 22 19 47 32 45 28 6 14 4 4 1 1 2
162 164 125 85 112 119 147 153 180 154 158 76 96 150 124 133 86 94 219 101 119 146 104 106 97 85 61 51 38 46 44 31 42 40 51 51 25 16 13 6 -3 -5 -5
151 136 116 106 95 138 153 132 184 188 211 99 66 192 173 143 125 139 82 111 133 148 137 105 106 88 70 71 55 41 44 48 46 53 53 59 51 47 26 6 16 13 10
142 117 93 83 70 192 93 105 121 147 156 126 63 55 314 117 138 177 157 108 116 151 128 97 109 115 98 87 74 64 59 57 49 55 71 67 63 67 70 43 32 34 30
83 126 146 154 126 111 175 133 131 144 134 89 146 115 122 178 174 206 188 136 123 137 120 131 134 125 123 108 97 85 75 66 60 65 66 80 83 90 77 70 89 85 49
144 142 150 145 106 121 128 122 129 135 128 101 109 78 82 143 203 191 187 174 159 147 129 135 166 147 120 126 139 103 86 69 61 60 65 102 105 154 146 138 128 117 105
136 90 147 132 114 112 142 126 143 127 117 110 58 43 60 119 177 160 170 183 182 187 169 165 166 181 148 151 161 159 129 116 86 86 86 136 151 218 176 164 127 116 108
188 140 117 111 95 114 106 120 137 158 165 148 128 68 56 86 146 98 106 134 165 182 169 162 159 162 155 163 163 178 176 160 137 164 133 121 181 227 220 197 149 141 131
166 167 159 133 104 73 101 112 89 127 142 103 72 58 54 81 88 86 101 122 107 142 159 162 155 165 198 185 206 179 169 128 156 182 163 190 236 242 264 225 194 198 142
99 128 158 141 127 118 53 66 63 79 124 145 142 68 68 57 51 111 190 87 125 178 144 151 182 183 199 219 255 261 223 198 205 201 168 202 309 318 272 354 253 307 193
108 89 59 56 84 77 76 87 22 21 104 151 125 152 161 51 146 105 117 82 141 125 140 85 156 184 165 192 170 218 249 299 226 266 247 228 229 275 397 338 332 234 198

GFSSE_con_3kmhel_099.txt.gz
Helicity
104 118 84 35 62 89 109 121 134 146 145 144 142 119 119 98 79 73 63 59 47 44 51 58 77 77 76 69 67 57 53 50 43 56 57 45 37 33 34 12 1 -7 16
126 115 100 77 59 76 104 119 131 134 140 123 107 102 92 87 69 61 62 57 47 39 43 58 76 86 103 69 55 49 41 36 39 48 49 45 28 25 28 30 24 20 39
116 105 86 82 93 86 101 105 114 124 111 109 93 82 75 63 67 58 56 48 36 43 47 73 85 100 95 71 54 43 39 28 30 34 33 13 7 24 32 21 26 27 35
97 86 83 89 100 105 104 99 94 95 91 77 72 65 66 54 67 53 48 39 41 55 77 104 102 103 85 68 46 27 26 25 20 28 18 12 6 20 17 14 19 23 25
96 94 89 99 105 128 112 88 77 82 79 80 57 52 65 61 62 57 50 55 82 100 110 134 96 89 75 61 39 11 0 13 20 18 18 14 3 13 21 19 19 21 23
89 105 98 82 87 104 106 94 71 66 59 67 65 48 56 65 64 62 67 89 116 135 128 100 95 81 66 56 55 42 38 30 24 13 11 10 5 22 25 27 26 24 26
91 90 72 72 74 86 90 87 78 66 57 56 63 61 38 51 51 73 100 125 121 117 104 89 84 72 61 54 54 33 30 26 12 14 13 9 4 24 26 27 27 28 29
126 96 62 52 70 89 92 83 78 69 61 52 61 68 45 28 50 78 108 134 105 89 91 90 81 68 64 54 51 35 34 23 13 14 8 6 17 27 26 26 28 29 28
112 128 98 85 83 88 94 86 81 66 54 57 63 65 46 43 53 75 113 117 94 77 70 84 80 68 66 60 52 50 37 33 17 4 5 2 10 28 26 26 26 27 27
129 104 94 94 92 98 100 85 83 78 64 80 68 63 63 70 72 75 111 93 75 90 82 85 75 67 68 67 54 47 31 38 20 7 6 -1 11 23 27 26 22 22 24
83 78 90 114 121 122 96 89 89 84 86 93 94 72 73 116 108 99 98 85 138 84 116 94 75 74 73 63 54 49 43 22 19 10 8 -3 17 23 22 22 19 19 19
63 79 113 165 154 162 147 119 103 99 106 91 108 134 134 131 133 137 133 145 115 79 125 108 89 84 82 77 58 57 45 30 18 14 11 -3 13 23 21 15 14 11 16
93 77 89 160 179 173 154 147 122 116 127 122 129 163 191 173 173 172 189 162 114 105 152 151 131 115 88 71 50 41 42 32 24 20 16 1 3 16 15 14 10 7 9
122 121 87 111 137 159 174 143 153 151 126 113 102 128 198 209 186 191 193 167 146 185 174 189 151 111 88 67 53 39 34 29 25 26 22 6 -6 2 12 13 9 7 2
163 106 86 102 113 118 157 173 146 127 119 126 145 102 130 175 206 211 186 182 166 182 158 171 137 114 93 69 49 39 33 28 23 31 33 9 0 -2 5 9 9 7 2
232 160 119 101 92 111 141 169 154 112 103 94 80 88 98 138 185 241 214 220 232 179 152 145 129 103 87 80 48 36 24 29 29 33 39 28 7 -1 -1 3 5 5 0
226 196 145 102 109 105 116 144 164 146 116 106 109 128 164 173 175 178 160 165 201 151 147 146 122 112 97 85 51 44 38 30 42 43 39 38 35 8 4 9 1 3 -1
163 171 161 145 133 117 88 134 142 127 165 118 115 142 136 191 186 180 151 141 170 170 94 132 121 109 91 82 68 51 53 47 51 55 56 57 57 47 17 2 12 18 12
131 163 149 132 128 120 86 66 102 129 134 135 108 144 137 176 146 114 169 177 127 220 228 117 108 137 99 76 72 72 70 68 67 68 59 63 65 57 56 28 32 46 36
110 115 158 152 120 94 116 108 140 119 137 122 92 118 159 140 150 170 147 141 159 134 109 175 78 131 108 83 93 90 87 83 82 81 76 72 81 78 80 70 68 76 77
154 130 129 135 124 162 168 105 96 103 134 110 86 52 111 134 138 119 164 172 187 141 164 136 108 100 105 99 146 127 109 98 88 77 77 82 80 81 111 119 121 108 142
169 153 128 95 124 141 137 123 130 104 91 128 102 77 70 113 83 89 98 122 194 254 156 180 199 158 127 171 175 163 132 142 99 90 96 91 79 96 128 166 174 146 138
216 192 147 123 120 138 109 123 124 123 111 113 124 107 81 120 91 118 83 150 208 231 229 197 182 204 167 193 217 205 189 163 152 178 132 114 102 145 171 180 200 180 165
259 201 212 151 135 101 93 97 101 122 111 127 122 118 112 137 77 86 64 106 165 213 195 217 209 193 200 176 254 220 225 197 178 186 209 170 154 186 225 242 237 203 171
170 145 152 161 151 130 84 78 61 66 73 78 99 127 138 111 141 106 88 198 167 222 185 179 176 159 176 193 247 287 280 278 263 249 190 248 200 200 213 276 292 256 274
122 116 119 129 123 108 108 101 83 40 69 76 40 54 87 80 113 113 49 136 108 123 143 145 146 132 123 154 200 250 256 266 231 242 256 209 202 167 268 341 421 408 345

GFSSE_con_3kmhel_102.txt.gz
Helicity
78 106 143 106 57 60 94 101 118 140 150 144 131 128 118 111 87 69 59 53 48 50 70 84 79 76 56 76 74 62 45 41 45 47 52 36 41 29 3 4 15 -11 23
99 87 116 101 82 62 70 94 109 119 131 127 117 102 98 94 77 63 50 39 35 42 55 75 79 82 66 70 63 52 39 35 43 44 45 36 34 34 36 22 28 27 47
92 92 102 94 62 69 87 96 98 102 106 110 93 81 73 80 66 56 52 41 36 31 45 76 87 102 74 60 56 46 37 27 28 32 31 20 10 26 26 34 34 29 28
96 96 101 83 72 82 91 98 91 83 91 88 81 67 68 62 55 47 53 47 29 45 52 103 105 95 76 58 50 46 38 24 20 21 15 14 9 18 16 16 18 19 24
99 119 111 93 83 99 93 83 84 74 62 60 65 46 58 49 52 43 35 32 35 55 91 123 116 92 69 56 37 32 33 25 20 16 12 11 10 13 21 20 15 16 19
93 96 86 83 67 66 81 71 71 75 68 54 45 42 33 48 47 46 46 78 82 85 113 139 108 89 69 53 36 19 29 29 24 15 12 9 1 22 26 25 19 16 19
83 82 75 57 60 62 57 68 70 65 62 55 58 59 42 38 49 60 78 105 120 127 125 102 98 87 67 63 57 53 39 32 16 12 12 4 -4 25 29 29 25 23 20
105 100 89 47 44 54 56 60 69 63 64 56 52 56 47 37 46 55 94 116 120 119 106 91 89 81 63 60 52 44 36 31 18 14 9 4 9 25 27 27 24 21 23
87 104 105 88 68 64 64 55 55 55 56 60 57 45 47 36 51 66 83 119 109 93 96 104 103 72 60 58 45 44 38 31 20 10 9 2 6 25 28 28 25 20 17
85 78 95 110 91 81 73 70 61 48 38 46 59 66 68 64 56 66 89 102 96 82 83 113 111 89 61 57 57 47 44 38 22 10 4 -1 2 22 25 26 19 20 23
85 71 89 100 107 93 88 86 74 56 44 43 56 60 70 93 87 98 105 100 83 73 81 98 108 99 91 72 61 55 42 31 26 18 11 -5 5 20 21 21 22 19 23
194 90 60 87 104 111 115 102 90 89 93 77 64 67 83 95 108 118 111 105 76 80 97 108 100 110 111 106 78 61 48 33 22 17 15 1 5 18 18 16 17 16 17
217 164 89 72 114 138 156 125 114 118 114 95 86 87 83 114 133 153 152 119 129 123 134 142 147 129 107 101 95 67 45 36 25 19 16 5 2 13 17 13 11 14 13
265 174 102 77 100 112 154 146 129 118 84 79 78 95 114 128 164 189 174 179 174 168 153 154 175 135 112 86 81 69 50 38 27 20 14 7 5 -3 12 12 9 9 11
248 221 109 88 75 112 125 163 121 111 94 91 60 81 115 126 152 173 204 210 186 194 183 168 176 142 125 100 72 63 53 38 26 24 24 9 6 -7 -12 4 6 3 7
239 222 163 98 88 98 94 131 101 90 84 74 68 60 55 95 122 149 189 200 221 187 197 195 167 150 115 113 81 58 49 49 34 28 34 35 9 5 -3 -7 -4 -1 2
231 221 203 140 107 115 98 100 120 74 102 103 97 69 70 82 108 155 207 224 232 250 199 219 170 170 140 110 82 62 53 43 41 32 39 44 38 17 10 -2 -8 -6 -3
149 216 189 150 128 106 104 101 114 109 127 127 86 112 104 126 127 157 223 244 222 245 230 226 210 190 146 115 67 62 51 52 48 48 50 58 58 53 35 14 5 1 2
72 159 153 139 163 123 141 125 101 94 83 92 105 127 117 109 140 166 194 235 216 193 220 246 215 135 155 112 66 65 65 61 56 60 60 66 64 69 71 47 28 21 24
81 90 116 122 156 144 150 147 123 88 57 61 92 113 106 116 126 149 176 209 198 208 170 190 225 242 214 99 66 74 77 74 86 72 68 76 80 85 88 78 78 70 56
126 103 107 114 134 152 143 118 97 67 85 99 75 71 93 118 129 126 137 182 201 184 103 85 160 252 182 106 80 78 81 86 91 84 88 87 80 83 89 90 106 104 101
158 128 116 107 126 132 150 137 119 107 96 103 82 81 98 104 120 133 136 153 173 199 162 159 173 199 177 129 152 129 69 92 122 88 120 108 90 105 100 96 115 133 155
132 146 151 133 113 118 134 135 111 109 93 76 67 77 79 106 120 133 139 153 149 164 175 200 222 213 264 283 171 235 136 110 111 132 150 138 132 133 118 127 145 173 183
83 155 194 187 138 125 128 109 87 83 59 60 69 75 69 98 139 149 141 161 158 161 143 169 216 199 189 225 209 253 286 205 122 135 163 202 171 158 165 169 177 193 196
110 177 214 218 194 180 127 94 91 79 61 44 37 49 59 72 114 145 148 91 129 168 121 142 205 221 188 178 224 240 262 243 205 151 130 180 220 176 173 200 226 236 232
220 224 209 213 239 231 195 181 140 114 67 35 27 36 45 69 82 112 131 151 142 123 137 260 240 198 233 196 243 211 241 242 231 263 227 212 184 194 187 231 261 236 282

GFSSE_con_3kmhel_105.txt.gz
Helicity
31 67 113 120 107 90 71 70 78 74 79 92 82 80 89 91 84 59 57 56 40 31 40 51 59 69 66 84 69 52 42 34 38 44 49 37 17 13 11 13 3 4 27
36 59 100 103 91 101 79 79 81 87 89 84 94 82 78 79 75 62 56 47 43 48 65 69 64 65 68 75 54 40 38 43 38 37 32 36 34 36 29 28 25 32 39
21 47 75 72 83 90 83 102 91 81 80 74 71 84 78 66 53 43 38 36 37 39 62 79 72 80 64 58 52 40 31 32 31 22 19 9 17 27 34 31 30 28 26
10 41 48 53 76 98 88 94 96 87 78 56 50 49 63 50 40 27 27 28 25 22 74 69 99 78 63 57 52 43 28 20 19 17 9 11 9 14 17 16 21 21 19
30 36 50 62 84 84 81 94 93 88 78 67 45 16 46 34 29 29 25 13 19 44 74 113 98 77 63 53 47 41 29 25 20 10 11 10 8 13 16 16 15 16 17
26 31 44 67 82 83 69 78 81 76 69 62 59 17 25 31 28 22 27 25 22 68 98 118 112 91 58 36 33 34 35 29 18 15 12 13 11 18 17 17 15 15 17
38 34 44 58 60 69 62 59 57 50 56 61 52 35 25 19 24 34 34 50 65 88 107 93 92 94 76 43 27 33 36 34 20 17 15 11 12 19 20 21 20 22 22
55 51 47 43 53 54 56 48 43 34 30 49 56 52 34 26 28 37 62 78 92 117 109 76 77 74 80 71 62 46 41 32 23 22 17 12 14 20 22 22 23 22 24
95 62 56 56 49 64 57 50 52 51 33 20 37 42 48 39 37 42 47 74 104 114 111 80 71 60 62 63 59 53 38 32 22 18 17 15 10 23 24 22 20 24 27
124 103 77 66 60 56 58 58 46 43 43 40 25 31 43 51 55 57 57 62 93 101 95 87 83 63 47 57 52 63 53 39 24 19 13 13 3 22 25 24 22 21 24
197 142 113 87 71 71 70 66 58 48 35 35 48 46 41 55 65 72 70 68 84 84 87 86 86 76 66 58 55 56 61 38 28 19 13 5 -1 16 22 21 20 21 21
304 261 141 89 73 85 86 79 79 74 68 58 52 59 65 52 65 71 81 102 102 87 84 88 94 101 88 65 61 56 35 39 33 24 16 1 -4 8 17 18 19 16 17
278 271 202 118 88 83 107 103 100 94 95 78 61 55 61 65 69 77 97 106 94 93 94 83 109 112 91 96 68 56 39 33 35 31 19 3 -6 -1 11 15 13 13 13
226 259 235 127 102 82 109 159 111 110 89 98 82 64 72 79 82 87 93 109 113 128 123 107 114 112 115 96 78 55 46 38 38 39 29 14 -0 -9 3 12 11 10 11
193 227 232 165 111 104 96 109 148 117 110 101 78 54 66 70 80 98 126 137 134 141 133 133 127 134 127 94 99 67 48 36 28 37 36 21 7 1 -7 1 9 10 9
150 197 207 174 104 95 96 91 112 158 154 148 114 54 38 43 74 74 93 123 158 192 139 145 129 139 125 129 108 76 57 46 36 29 32 29 16 13 5 -4 -2 4 6
173 171 185 176 114 94 90 92 111 142 51 75 42 46 50 37 39 48 80 106 140 166 147 145 128 185 158 159 112 90 82 55 42 31 33 34 36 24 19 4 -1 1 3
153 193 198 180 116 90 113 112 109 128 73 34 85 69 57 58 56 57 67 81 122 164 161 144 193 202 200 181 98 104 93 79 51 36 30 37 43 46 40 22 13 10 6
144 178 191 233 160 110 112 127 97 79 81 89 49 -2 75 47 46 69 81 87 108 152 181 164 202 196 184 201 218 95 96 76 55 49 27 31 37 55 61 45 40 31 22
140 143 168 201 202 124 120 146 153 109 75 102 78 68 86 68 72 83 81 84 110 135 164 184 194 232 248 194 208 107 86 77 63 57 31 44 42 48 61 58 61 52 37
149 112 145 168 154 153 166 182 155 120 72 60 44 50 71 79 60 57 78 72 110 107 112 131 143 175 199 213 245 175 153 101 64 45 41 56 46 55 62 75 92 79 81
109 77 102 135 205 150 140 157 158 110 103 108 96 82 72 65 53 56 70 104 104 112 124 134 139 144 184 175 183 256 265 134 46 50 69 76 51 80 68 78 85 82 79
61 32 103 169 111 215 126 177 172 160 132 117 98 86 79 73 65 58 61 81 94 134 130 163 175 162 143 156 217 194 298 227 44 53 80 126 104 134 122 103 108 96 89
20 -9 75 83 88 82 89 117 115 117 76 73 79 83 81 70 56 49 65 81 85 137 122 155 213 228 216 189 210 214 213 276 247 178 69 121 129 119 145 156 118 132 129
64 55 5 93 104 100 100 100 90 81 88 71 58 61 69 70 60 61 69 72 112 140 148 147 158 211 237 222 217 232 190 169 167 182 73 81 107 117 160 162 180 152 157
150 137 141 170 248 240 222 220 191 147 129 96 60 52 50 47 48 47 56 68 85 117 111 144 136 158 198 230 248 272 241 264 197 189 163 103 87 53 131 152 148 212 191

GFSSE_con_3kmhel_108.txt.gz
Helicity
-1 38 69 87 81 66 53 47 31 32 43 55 63 61 61 54 49 48 47 47 25 31 39 33 46 54 49 54 57 43 39 26 47 42 28 10 8 2 -2 -14 -17 18 29
33 21 61 76 63 69 70 62 57 56 50 58 45 60 71 65 56 43 35 31 27 22 35 42 44 68 76 52 51 49 41 34 33 32 21 27 19 26 21 23 37 43 40
25 1 47 53 49 66 57 76 85 80 58 54 47 37 66 52 49 37 30 16 15 46 52 48 49 68 65 42 41 39 39 28 19 9 -32 4 19 23 32 42 41 33 25
-5 -13 1 30 29 63 60 70 71 79 79 62 48 42 52 37 27 28 24 14 9 19 49 44 64 84 64 44 40 34 30 22 8 -10 -10 3 10 19 23 24 24 23 21
3 -13 1 26 14 57 63 65 64 64 64 53 44 47 41 25 8 8 14 18 3 14 37 76 75 71 60 50 41 33 24 20 3 -18 7 7 9 15 16 18 18 18 24
48 12 41 27 23 38 46 55 58 50 55 49 39 16 47 23 3 2 17 14 20 30 57 85 59 49 47 46 46 34 26 20 -8 10 13 19 18 22 19 23 26 21 19
90 36 28 27 36 39 47 42 41 44 46 43 34 27 33 19 7 12 17 23 28 57 94 89 59 47 32 27 32 30 33 18 4 17 18 18 33 24 26 24 24 23 24
101 89 58 49 41 46 59 52 47 47 31 24 29 32 31 22 21 22 25 36 40 67 87 81 62 59 41 15 11 29 26 8 8 22 23 18 42 25 25 25 26 25 24
115 107 66 48 35 41 50 53 58 45 36 31 21 19 23 26 27 35 43 49 63 70 84 78 56 63 64 51 47 34 26 -3 14 31 23 21 25 27 28 23 21 22 23
166 117 120 74 56 43 43 48 51 52 52 46 32 22 18 24 29 34 45 50 67 84 85 83 66 65 75 65 54 44 27 9 9 24 24 41 25 23 25 24 22 22 20
169 182 164 101 89 59 53 59 55 51 50 55 47 36 35 23 24 27 42 63 48 84 87 81 70 75 88 83 60 54 41 15 20 20 23 69 24 21 23 23 23 20 19
184 207 164 172 125 98 80 67 66 76 63 49 42 37 40 31 33 42 48 71 55 87 82 73 78 90 81 77 69 63 27 30 32 24 24 45 18 20 25 24 23 22 18
117 149 170 170 151 119 100 95 101 127 109 88 62 51 46 53 50 51 53 67 67 90 78 76 74 73 68 77 82 53 38 36 42 43 39 34 11 7 21 22 20 21 18
123 127 149 142 154 145 131 121 104 116 103 108 105 80 64 63 64 55 59 59 66 76 74 74 80 61 71 76 75 66 54 53 46 49 51 55 18 4 5 16 16 16 15
116 120 134 134 134 128 122 117 106 110 131 121 121 106 83 74 69 74 68 71 64 80 77 78 74 75 87 93 81 73 72 60 50 57 49 61 38 17 1 2 14 14 12
101 118 158 153 125 113 110 103 106 92 118 152 161 148 93 75 74 59 59 71 69 68 102 106 105 111 115 81 67 90 76 78 68 58 54 47 44 30 17 4 -4 12 12
85 95 95 180 183 133 112 109 129 99 106 132 146 216 136 67 35 34 51 46 48 62 86 156 111 122 91 108 86 78 79 78 79 63 65 55 41 38 40 20 7 4 3
69 87 108 160 199 190 135 113 138 126 128 129 95 106 128 83 19 29 34 37 40 46 57 83 98 115 104 154 127 106 107 86 92 61 72 69 63 47 43 46 31 20 16
69 62 105 134 178 195 156 126 125 146 143 151 120 97 66 41 32 28 42 59 57 66 70 88 99 114 135 161 203 245 151 93 89 80 67 60 58 56 54 51 61 55 40
89 119 117 154 202 237 196 160 158 208 184 140 122 85 75 128 67 40 65 60 77 87 71 77 91 139 141 134 180 179 151 189 136 113 87 89 59 47 56 47 67 63 61
63 91 126 132 133 236 215 176 201 192 188 163 134 85 101 133 59 -8 27 58 76 93 74 95 114 123 164 166 228 234 201 153 127 146 130 110 70 53 41 55 76 82 75
50 82 111 109 85 150 163 161 175 200 194 122 88 67 60 67 35 96 76 71 63 96 82 80 89 126 129 143 190 141 151 134 125 180 173 181 173 109 36 71 74 92 99
62 47 37 55 68 118 107 125 139 132 190 165 130 105 82 82 89 95 86 68 49 64 100 77 65 81 124 131 123 180 204 195 119 170 179 213 168 93 85 126 147 121 127
66 87 35 18 36 120 46 90 96 156 166 163 165 144 119 91 79 83 81 64 56 61 60 69 77 83 125 154 208 184 175 259 185 136 146 120 253 49 13 114 161 132 119
-8 45 62 35 23 87 12 74 173 195 161 120 120 106 105 91 88 85 70 60 64 67 54 60 90 86 148 196 234 257 217 205 186 189 163 163 183 45 90 100 115 146 186
45 113 145 124 108 133 197 238 169 170 83 121 125 103 88 92 81 120 119 93 85 80 73 70 88 101 130 186 191 245 251 304 288 275 231 184 173 189 13 64 28 81 178

GFSSE_con_3kmhel_111.txt.gz
Helicity
60 32 29 42 27 9 3 12 12 18 29 43 46 48 49 42 37 35 33 30 21 20 26 26 30 36 40 49 29 23 21 49 40 28 25 16 0 1 -11 -20 0 23 24
101 44 39 30 30 12 8 19 28 31 35 30 45 39 47 42 44 39 30 23 15 17 15 10 22 33 63 57 39 37 28 32 31 26 21 15 26 32 39 38 42 33 32
83 33 29 28 33 22 17 25 43 46 37 40 36 34 40 47 35 27 19 14 5 1 20 18 21 47 57 45 31 36 33 22 11 -15 -31 -9 22 30 36 51 40 31 28
44 37 -8 55 13 14 22 28 40 40 32 42 44 38 32 40 30 13 9 0 -5 24 19 15 30 35 55 33 20 21 19 20 -2 -23 -7 14 22 31 32 31 28 25 25
41 20 19 43 22 13 13 17 21 38 40 35 35 34 22 34 25 4 -2 -3 -7 14 16 33 66 59 29 22 14 4 8 12 -8 -10 18 19 21 25 27 21 18 29 42
122 40 59 44 37 24 23 29 32 30 30 27 24 25 29 28 23 5 1 6 -2 16 35 68 65 52 32 17 13 4 -3 -5 -20 3 24 22 47 28 24 31 34 28 27
127 159 37 57 58 44 37 32 27 27 28 29 27 17 19 17 12 10 9 17 15 16 34 72 54 47 41 29 16 9 2 -19 -19 14 27 21 51 29 28 28 29 28 28
149 160 120 69 81 70 55 41 37 40 39 43 36 26 20 11 12 15 15 21 27 14 36 77 61 45 37 35 28 20 14 -15 -4 11 21 32 55 39 35 29 26 26 26
128 142 150 161 59 63 64 62 59 50 52 50 39 35 33 22 20 17 16 27 27 36 48 63 67 53 36 24 19 51 27 -7 -6 13 10 31 37 35 38 34 29 25 24
97 119 136 115 132 84 54 60 70 67 60 53 51 42 39 39 27 27 27 29 36 46 56 61 77 56 52 52 68 63 33 1 -7 35 12 54 47 29 32 31 29 26 25
77 84 101 119 113 107 102 75 59 72 71 74 65 55 52 37 20 11 23 34 49 41 58 69 72 66 70 80 65 64 47 19 6 28 29 85 50 25 28 29 25 22 24
85 93 81 88 101 94 105 105 69 77 68 62 51 46 53 42 35 54 52 68 60 55 58 72 64 82 79 65 65 67 45 20 32 34 52 86 66 29 29 26 25 24 21
96 98 103 102 110 97 100 132 130 120 137 118 87 70 63 67 84 64 72 58 54 63 75 75 80 73 54 63 63 57 45 42 54 51 83 76 58 32 34 31 24 21 19
95 81 101 104 90 103 92 124 138 117 102 125 132 134 107 111 98 91 77 82 77 77 80 91 103 62 51 49 56 56 58 64 74 79 83 85 59 29 18 33 35 25 19
83 92 96 128 131 108 100 96 128 151 124 111 108 126 158 120 128 99 76 103 90 88 81 93 93 66 70 69 77 74 75 72 65 82 87 85 79 49 23 12 21 28 24
71 81 84 100 128 143 128 100 103 138 135 134 112 126 180 207 171 143 122 113 101 96 80 80 85 101 117 96 88 90 77 96 81 83 80 80 70 73 49 26 9 10 20
93 99 120 105 92 150 160 148 117 109 160 137 134 140 155 189 206 170 157 103 84 81 70 76 89 116 149 172 131 122 109 61 70 83 103 98 80 60 67 43 28 11 8
75 84 92 114 136 104 151 139 135 120 129 156 128 141 146 141 146 247 217 85 76 70 70 74 81 130 118 134 106 111 163 136 101 106 101 94 100 92 76 61 62 39 21
101 98 90 97 104 136 147 203 167 121 115 150 174 182 148 144 185 188 212 106 53 56 51 67 71 83 99 104 142 116 133 167 156 140 117 106 102 122 113 80 70 68 64
85 78 74 74 80 130 162 199 264 146 145 153 147 161 118 125 126 124 126 97 58 39 45 67 56 79 93 106 132 142 153 167 161 197 144 94 90 120 117 99 113 99 74
75 58 70 76 72 102 138 136 239 172 143 151 165 169 149 129 96 105 119 108 159 89 69 54 64 69 101 112 129 123 117 129 123 157 119 149 174 152 126 94 116 113 97
125 119 58 61 77 103 123 117 165 166 124 137 174 195 147 122 96 94 87 63 84 82 45 59 88 82 81 122 149 145 149 137 160 161 187 178 131 164 170 138 141 126 127
59 69 105 78 48 62 68 88 80 160 127 125 131 151 144 109 100 122 76 65 60 59 73 52 86 73 72 85 131 159 159 157 141 123 144 175 193 199 160 148 166 169 163
32 40 46 37 32 43 53 56 55 124 98 102 181 189 204 138 129 140 113 101 83 92 92 71 73 74 74 87 121 136 119 185 177 141 143 128 106 154 157 161 170 174 159
37 63 51 86 86 55 60 39 89 86 82 92 161 254 293 227 178 149 127 91 92 95 83 79 75 86 104 114 115 165 159 142 178 246 193 156 171 154 178 157 209 162 16
59 40 55 81 98 111 111 131 94 35 121 130 86 293 263 245 231 228 209 214 175 140 110 89 82 73 88 107 122 140 183 202 191 221 277 180 164 139 152 144 188 239 53

GFSSE_con_3kmhel_114.txt.gz
Helicity
61 7 24 30 18 6 2 -0 -6 14 22 29 29 32 33 34 34 32 29 24 17 13 14 11 9 2 21 24 27 28 45 43 32 33 29 19 8 5 4 21 42 9 25
80 25 22 41 21 11 4 -1 7 21 22 6 27 37 36 34 33 29 28 21 10 10 7 -2 -7 -2 32 23 26 21 24 34 26 27 14 25 34 57 61 46 50 27 34
119 48 28 43 27 18 18 10 11 21 27 21 13 27 19 37 36 27 18 10 4 6 5 -0 -0 40 30 21 22 16 12 13 5 1 -14 2 24 40 41 47 39 36 32
118 56 12 45 31 26 23 18 18 18 20 32 28 23 23 21 35 16 9 2 -7 -13 -4 10 22 33 65 18 17 13 -0 -17 -13 5 -6 -13 22 31 37 37 31 28 32
89 101 21 71 38 37 32 23 23 23 26 24 25 25 19 17 26 21 4 2 -4 11 1 20 44 65 52 24 18 9 4 -13 -12 44 40 47 45 32 31 29 33 39 30
110 81 34 30 38 34 37 33 33 34 32 33 29 27 15 13 16 20 11 12 3 8 15 41 58 53 38 23 14 11 5 -7 -10 45 35 53 67 34 35 41 35 31 27
108 124 83 36 33 39 37 41 44 44 39 33 35 32 30 17 9 12 14 16 13 9 13 37 52 44 40 25 7 4 11 -4 2 24 27 36 33 35 35 36 34 32 33
111 130 135 101 71 58 47 48 51 50 46 43 46 45 46 40 24 14 15 13 17 12 12 33 59 47 36 31 14 9 2 -4 9 9 39 58 35 26 31 33 34 34 33
75 123 137 114 96 71 73 58 49 48 50 54 55 51 48 50 47 32 24 24 17 15 20 42 67 60 43 32 26 26 12 -6 -5 17 55 58 53 32 30 29 29 32 32
45 61 108 128 117 96 100 86 70 61 58 57 63 56 52 51 50 47 40 32 35 32 36 48 54 67 53 36 25 53 23 3 -2 27 33 80 68 47 40 34 31 30 32
43 45 70 98 119 107 80 73 66 69 67 72 73 65 68 78 65 56 62 52 48 48 48 55 60 75 71 64 64 50 36 28 12 28 64 75 55 52 48 42 36 33 34
45 46 34 63 84 115 108 102 83 69 102 97 92 97 111 88 78 63 88 89 70 66 50 51 72 88 90 93 84 63 63 31 21 36 92 86 64 50 42 38 37 37 37
62 66 64 56 68 84 95 110 113 111 115 109 101 88 87 98 95 85 118 107 108 87 107 85 101 125 107 78 102 108 81 47 41 67 108 93 74 57 43 38 33 30 32
60 58 54 60 61 67 94 91 115 132 122 124 134 124 148 107 126 131 130 128 141 149 134 134 142 117 92 73 63 124 102 76 80 98 130 105 84 61 45 46 39 30 27
60 63 68 61 61 88 98 114 101 122 137 125 125 129 147 211 185 155 138 138 159 169 150 155 140 109 95 90 77 70 114 107 91 109 143 106 90 84 57 37 42 39 30
86 82 80 86 81 74 90 118 139 114 130 131 138 139 138 214 244 184 137 122 149 151 141 146 145 121 91 86 104 79 133 129 123 114 144 125 89 81 82 60 42 39 40
100 105 108 110 115 118 108 109 138 152 132 147 143 156 174 163 179 189 159 162 126 141 143 164 141 124 132 156 187 191 133 106 137 167 140 154 140 95 89 65 56 45 34
103 97 101 94 105 107 118 129 144 156 189 139 130 142 173 161 185 225 205 190 177 159 187 195 122 125 125 150 178 126 177 127 144 156 185 131 181 158 110 93 83 63 45
116 95 96 121 121 116 117 151 130 145 191 193 132 130 157 196 198 224 228 208 213 256 231 180 100 107 116 142 125 140 123 98 70 131 135 124 140 162 157 91 88 90 83
86 78 112 100 115 122 107 113 135 151 157 222 179 163 190 163 188 206 228 210 238 265 143 205 99 81 75 88 85 106 125 116 125 135 122 111 163 168 168 186 148 122 95
49 50 115 114 119 121 144 151 165 155 164 218 174 160 134 172 174 178 177 188 224 170 143 108 115 80 62 68 99 92 91 108 95 142 140 144 165 149 141 137 180 227 159
53 72 82 81 78 113 138 120 123 109 136 141 145 123 161 129 150 186 191 176 156 161 125 117 198 299 123 77 80 101 85 68 123 126 130 139 123 159 157 193 231 227 166
76 79 83 84 91 76 92 104 134 125 134 103 133 122 82 101 166 230 190 155 138 125 119 94 108 106 113 101 99 108 98 91 89 106 97 121 143 183 189 178 209 257 183
66 55 43 33 42 58 56 99 105 114 106 90 82 88 106 86 122 207 122 185 94 110 85 93 81 83 97 75 107 126 111 159 109 115 85 77 121 154 128 145 147 149 151
41 40 34 43 26 25 48 54 89 110 111 77 9 42 27 106 218 575 396 332 186 155 127 119 99 90 90 95 123 126 113 148 154 145 74 108 149 153 133 123 144 146 131
43 68 48 39 14 35 71 122 139 110 70 41 6 49 72 150 392 421 354 272 223 188 140 122 116 89 76 70 99 122 120 153 155 168 143 109 120 115 157 169 144 129 142

GFSSE_con_3kmhel_117.txt.gz
Helicity
27 6 18 37 26 26 19 17 1 7 9 18 17 27 32 34 32 32 33 30 22 20 20 12 -0 18 25 30 34 41 34 33 33 37 30 15 12 18 42 48 37 7 32
55 22 25 38 30 26 21 17 9 20 17 4 18 22 31 31 30 26 27 24 16 13 13 8 1 16 28 32 33 29 25 19 24 32 36 22 29 50 53 44 33 23 34
92 35 30 49 50 37 35 25 25 26 22 17 26 14 16 24 31 23 19 12 6 5 2 7 -1 35 50 31 34 27 24 22 14 12 33 23 27 49 44 37 33 35 33
79 58 43 36 38 41 39 35 32 31 29 31 28 20 24 17 39 20 12 9 5 -4 2 3 18 54 54 42 22 18 10 17 13 -2 3 11 26 36 33 40 39 33 30
84 99 24 34 27 34 40 41 36 33 36 37 32 30 27 19 17 26 18 5 4 6 8 20 32 52 41 37 16 11 -4 1 19 34 20 41 9 28 38 37 35 36 31
75 94 56 43 43 40 44 46 47 41 39 38 30 35 27 23 25 21 23 14 7 6 9 37 45 50 41 26 17 4 -9 -6 28 58 18 39 19 26 31 35 31 31 31
104 95 84 49 45 45 39 42 41 44 45 42 37 39 36 31 31 31 33 21 14 11 5 30 52 46 40 35 16 8 -4 -8 13 31 27 50 28 39 32 28 28 29 33
93 100 107 84 49 44 53 52 45 43 50 54 46 41 43 47 41 43 39 38 32 20 9 15 45 52 43 34 25 18 12 1 15 35 20 59 46 44 40 39 33 31 34
82 91 98 114 81 41 47 56 59 63 57 48 47 51 45 46 47 44 45 41 38 39 30 35 45 63 51 38 30 34 25 15 21 36 21 52 42 46 47 40 36 37 39
39 67 86 91 96 103 66 36 39 49 66 65 60 56 48 48 46 45 46 44 46 43 43 52 61 66 65 53 41 36 28 22 22 26 36 52 46 42 39 38 38 37 38
47 27 49 71 89 90 82 82 55 40 38 55 73 64 67 81 67 57 56 56 54 61 59 58 67 74 83 63 46 46 42 45 33 39 49 67 57 50 46 39 35 33 35
59 64 34 34 64 85 92 93 80 74 67 82 88 97 109 108 97 70 63 61 75 71 73 75 77 89 101 105 90 70 75 55 48 47 46 84 73 59 58 49 41 37 36
48 47 42 37 27 46 80 97 100 96 89 86 79 94 107 111 113 104 104 104 132 89 118 102 102 134 132 118 105 100 81 72 56 60 61 85 76 62 60 52 44 41 42
56 54 57 57 48 49 58 84 87 118 125 101 106 99 107 115 106 116 131 135 152 156 139 146 164 166 145 117 113 100 91 92 75 75 93 97 92 65 57 65 55 49 42
111 95 99 102 84 71 81 75 80 81 121 131 109 111 134 137 126 119 131 168 167 186 174 174 176 176 152 129 113 113 98 93 88 107 143 93 111 90 70 55 50 45 43
58 72 64 80 103 120 107 99 108 110 95 112 123 106 108 131 150 164 214 203 181 184 195 173 171 160 153 156 122 106 112 101 90 106 165 145 116 92 85 71 53 45 40
49 70 103 104 109 107 119 119 121 122 144 121 135 124 107 135 159 182 183 183 168 164 167 188 171 181 176 163 149 123 118 134 121 100 154 191 150 107 99 78 70 55 51
109 79 75 102 127 138 120 115 131 128 136 132 130 151 130 111 140 146 181 171 173 187 207 188 183 187 186 196 218 183 171 153 134 136 197 156 161 165 116 79 73 73 66
82 84 86 81 85 109 132 139 115 116 125 97 97 153 155 143 125 165 184 197 202 235 239 213 226 219 188 177 151 106 145 258 96 78 150 124 105 175 187 114 95 87 85
128 106 83 67 65 69 72 108 132 127 113 112 106 118 134 126 131 152 195 188 213 243 256 260 232 200 200 151 118 124 107 97 90 75 37 31 90 125 141 160 158 122 98
121 89 78 59 70 89 90 87 117 124 135 120 141 155 110 108 126 164 174 220 242 250 235 213 230 208 141 131 167 100 121 115 103 109 121 83 57 62 105 160 177 199 156
92 77 66 89 86 84 110 115 147 151 127 119 131 141 104 85 87 127 168 185 205 217 223 219 218 200 133 145 142 129 57 89 117 97 105 124 125 119 129 130 161 198 200
85 80 83 100 52 68 75 87 96 108 87 86 67 60 76 112 117 61 113 192 219 211 197 190 182 161 148 132 106 140 152 123 139 157 78 94 110 140 130 132 125 148 153
60 65 88 98 66 43 12 36 55 69 64 53 19 -11 6 70 116 51 49 84 207 239 250 189 161 160 138 132 125 133 151 152 106 103 126 89 73 81 99 126 125 130 158
32 59 66 53 44 16 6 -6 33 70 92 103 98 51 18 5 42 38 88 -23 117 211 136 171 159 156 129 119 88 93 90 101 97 127 134 132 108 92 90 100 107 128 119
40 55 51 44 42 30 27 36 49 30 38 82 72 53 55 70 124 131 94 107 435 616 413 232 199 184 162 135 113 92 83 83 91 83 112 85 77 64 91 119 144 145 132